﻿<?xml version="1.0" encoding="utf-8"?><gpx creator="Garmin Desktop App" version="1.1" xsi:schemaLocation="http://www.topografix.com/GPX/1/1 http://www.topografix.com/GPX/1/1/gpx.xsd http://www.garmin.com/xmlschemas/WaypointExtension/v1 http://www8.garmin.com/xmlschemas/WaypointExtensionv1.xsd http://www.garmin.com/xmlschemas/TrackPointExtension/v1 http://www.garmin.com/xmlschemas/TrackPointExtensionv1.xsd http://www.garmin.com/xmlschemas/GpxExtensions/v3 http://www8.garmin.com/xmlschemas/GpxExtensionsv3.xsd http://www.garmin.com/xmlschemas/ActivityExtension/v1 http://www8.garmin.com/xmlschemas/ActivityExtensionv1.xsd http://www.garmin.com/xmlschemas/AdventuresExtensions/v1 http://www8.garmin.com/xmlschemas/AdventuresExtensionv1.xsd http://www.garmin.com/xmlschemas/PressureExtension/v1 http://www.garmin.com/xmlschemas/PressureExtensionv1.xsd http://www.garmin.com/xmlschemas/TripExtensions/v1 http://www.garmin.com/xmlschemas/TripExtensionsv1.xsd http://www.garmin.com/xmlschemas/TripMetaDataExtensions/v1 http://www.garmin.com/xmlschemas/TripMetaDataExtensionsv1.xsd http://www.garmin.com/xmlschemas/ViaPointTransportationModeExtensions/v1 http://www.garmin.com/xmlschemas/ViaPointTransportationModeExtensionsv1.xsd http://www.garmin.com/xmlschemas/CreationTimeExtensions/v1 http://www.garmin.com/xmlschemas/CreationTimeExtensionsv1.xsd" xmlns="http://www.topografix.com/GPX/1/1" xmlns:xsi="http://www.w3.org/2001/XMLSchema-instance" xmlns:wptx1="http://www.garmin.com/xmlschemas/WaypointExtension/v1" xmlns:gpxtrx="http://www.garmin.com/xmlschemas/GpxExtensions/v3" xmlns:gpxtpx="http://www.garmin.com/xmlschemas/TrackPointExtension/v1" xmlns:gpxx="http://www.garmin.com/xmlschemas/GpxExtensions/v3" xmlns:trp="http://www.garmin.com/xmlschemas/TripExtensions/v1" xmlns:adv="http://www.garmin.com/xmlschemas/AdventuresExtensions/v1" xmlns:prs="http://www.garmin.com/xmlschemas/PressureExtension/v1" xmlns:tmd="http://www.garmin.com/xmlschemas/TripMetaDataExtensions/v1" xmlns:vptm="http://www.garmin.com/xmlschemas/ViaPointTransportationModeExtensions/v1" xmlns:ctx="http://www.garmin.com/xmlschemas/CreationTimeExtension/v1">

  <metadata>
    <link href="http://www.garmin.com">
      <text>Garmin International</text>
    </link>
    <time>2014-02-23T22:40:34Z</time>
    <bounds maxlat="45.889477422460914" maxlon="7.937917532399297" minlat="45.864829514175653" minlon="7.910690847784281" />
  </metadata>

  <trk>
    <name>rifugio calderini2014-02-23</name>
    <extensions>
      <gpxx:TrackExtension>
        <gpxx:DisplayColor>Yellow</gpxx:DisplayColor>
      </gpxx:TrackExtension>
    </extensions>
    <trkseg>
      <trkpt lat="45.865409541875124" lon="7.936516413465142">
        <ele>1267.1600000000001</ele>
        <time>2014-02-23T08:21:55Z</time>
      </trkpt>
      <trkpt lat="45.86541666649282" lon="7.936506690457463">
        <ele>1265.71</ele>
        <time>2014-02-23T08:21:58Z</time>
      </trkpt>
      <trkpt lat="45.865405853837729" lon="7.936499565839768">
        <ele>1266.6700000000001</ele>
        <time>2014-02-23T08:22:29Z</time>
      </trkpt>
      <trkpt lat="45.865395627915859" lon="7.936486322432756">
        <ele>1265.71</ele>
        <time>2014-02-23T08:22:44Z</time>
      </trkpt>
      <trkpt lat="45.865351622924209" lon="7.936492608860135">
        <ele>1266.6700000000001</ele>
        <time>2014-02-23T08:23:00Z</time>
      </trkpt>
      <trkpt lat="45.865372661501169" lon="7.936489842832089">
        <ele>1267.1600000000001</ele>
        <time>2014-02-23T08:23:14Z</time>
      </trkpt>
      <trkpt lat="45.865397555753589" lon="7.936490597203374">
        <ele>1267.1600000000001</ele>
        <time>2014-02-23T08:23:33Z</time>
      </trkpt>
      <trkpt lat="45.865396969020367" lon="7.9365099593997">
        <ele>1267.1600000000001</ele>
        <time>2014-02-23T08:23:51Z</time>
      </trkpt>
      <trkpt lat="45.865342654287815" lon="7.936502080410719">
        <ele>1266.6700000000001</ele>
        <time>2014-02-23T08:24:06Z</time>
      </trkpt>
      <trkpt lat="45.865393029525876" lon="7.936522113159299">
        <ele>1266.6700000000001</ele>
        <time>2014-02-23T08:24:20Z</time>
      </trkpt>
      <trkpt lat="45.865393867716193" lon="7.936490932479501">
        <ele>1266.6700000000001</ele>
        <time>2014-02-23T08:24:47Z</time>
      </trkpt>
      <trkpt lat="45.865392023697495" lon="7.936486741527915">
        <ele>1266.6700000000001</ele>
        <time>2014-02-23T08:25:07Z</time>
      </trkpt>
      <trkpt lat="45.865382803604007" lon="7.936490597203374">
        <ele>1266.6700000000001</ele>
        <time>2014-02-23T08:25:28Z</time>
      </trkpt>
      <trkpt lat="45.865387665107846" lon="7.936496632173657">
        <ele>1265.23</ele>
        <time>2014-02-23T08:25:37Z</time>
      </trkpt>
      <trkpt lat="45.86537123657763" lon="7.936517000198364">
        <ele>1265.23</ele>
        <time>2014-02-23T08:25:58Z</time>
      </trkpt>
      <trkpt lat="45.865377858281136" lon="7.936491267755628">
        <ele>1266.1900000000001</ele>
        <time>2014-02-23T08:26:18Z</time>
      </trkpt>
      <trkpt lat="45.865349275991321" lon="7.936489507555962">
        <ele>1265.71</ele>
        <time>2014-02-23T08:26:33Z</time>
      </trkpt>
      <trkpt lat="45.865379115566611" lon="7.936482466757298">
        <ele>1266.1900000000001</ele>
        <time>2014-02-23T08:26:51Z</time>
      </trkpt>
      <trkpt lat="45.865376181900501" lon="7.936490848660469">
        <ele>1266.6700000000001</ele>
        <time>2014-02-23T08:27:16Z</time>
      </trkpt>
      <trkpt lat="45.86540786549449" lon="7.936496380716562">
        <ele>1266.1900000000001</ele>
        <time>2014-02-23T08:27:21Z</time>
      </trkpt>
      <trkpt lat="45.865532588213682" lon="7.93654122389853">
        <ele>1267.1600000000001</ele>
        <time>2014-02-23T08:27:31Z</time>
      </trkpt>
      <trkpt lat="45.865740878507495" lon="7.936611967161298">
        <ele>1267.6400000000001</ele>
        <time>2014-02-23T08:27:48Z</time>
      </trkpt>
      <trkpt lat="45.865985210984945" lon="7.936664940789342">
        <ele>1269.0799999999999</ele>
        <time>2014-02-23T08:28:07Z</time>
      </trkpt>
      <trkpt lat="45.866064084693789" lon="7.936628060415387">
        <ele>1269.0799999999999</ele>
        <time>2014-02-23T08:28:18Z</time>
      </trkpt>
      <trkpt lat="45.866089146584272" lon="7.936600651592016">
        <ele>1268.5999999999999</ele>
        <time>2014-02-23T08:28:30Z</time>
      </trkpt>
      <trkpt lat="45.866086799651384" lon="7.936620432883501">
        <ele>1269.0799999999999</ele>
        <time>2014-02-23T08:28:37Z</time>
      </trkpt>
      <trkpt lat="45.866045225411654" lon="7.936670053750277">
        <ele>1268.5999999999999</ele>
        <time>2014-02-23T08:28:49Z</time>
      </trkpt>
      <trkpt lat="45.865878760814667" lon="7.93673031963408">
        <ele>1267.6400000000001</ele>
        <time>2014-02-23T08:29:04Z</time>
      </trkpt>
      <trkpt lat="45.86585009470582" lon="7.936692601069808">
        <ele>1268.5999999999999</ele>
        <time>2014-02-23T08:29:18Z</time>
      </trkpt>
      <trkpt lat="45.86570299230516" lon="7.936634765937924">
        <ele>1267.6400000000001</ele>
        <time>2014-02-23T08:29:31Z</time>
      </trkpt>
      <trkpt lat="45.865522781386971" lon="7.93655195273459">
        <ele>1266.6700000000001</ele>
        <time>2014-02-23T08:29:46Z</time>
      </trkpt>
      <trkpt lat="45.865353886038065" lon="7.936490681022406">
        <ele>1265.71</ele>
        <time>2014-02-23T08:30:00Z</time>
      </trkpt>
      <trkpt lat="45.865371571853757" lon="7.936482718214393">
        <ele>1265.71</ele>
        <time>2014-02-23T08:30:12Z</time>
      </trkpt>
      <trkpt lat="45.86540350690484" lon="7.936473749577999">
        <ele>1266.1900000000001</ele>
        <time>2014-02-23T08:30:24Z</time>
      </trkpt>
      <trkpt lat="45.865423120558262" lon="7.93650065548718">
        <ele>1265.71</ele>
        <time>2014-02-23T08:30:26Z</time>
      </trkpt>
      <trkpt lat="45.865620765835047" lon="7.936577349901199">
        <ele>1266.6700000000001</ele>
        <time>2014-02-23T08:30:44Z</time>
      </trkpt>
      <trkpt lat="45.865756720304489" lon="7.936671059578657">
        <ele>1267.1600000000001</ele>
        <time>2014-02-23T08:30:57Z</time>
      </trkpt>
      <trkpt lat="45.865975739434361" lon="7.936662929132581">
        <ele>1267.6400000000001</ele>
        <time>2014-02-23T08:31:15Z</time>
      </trkpt>
      <trkpt lat="45.866009769961238" lon="7.936646081507206">
        <ele>1267.6400000000001</ele>
        <time>2014-02-23T08:31:18Z</time>
      </trkpt>
      <trkpt lat="45.866054110229015" lon="7.936659911647439">
        <ele>1268.1199999999999</ele>
        <time>2014-02-23T08:31:22Z</time>
      </trkpt>
      <trkpt lat="45.866074729710817" lon="7.936652367934585">
        <ele>1267.6400000000001</ele>
        <time>2014-02-23T08:31:24Z</time>
      </trkpt>
      <trkpt lat="45.86611152626574" lon="7.936590844765306">
        <ele>1268.1199999999999</ele>
        <time>2014-02-23T08:31:37Z</time>
      </trkpt>
      <trkpt lat="45.866151340305805" lon="7.936586569994688">
        <ele>1268.1199999999999</ele>
        <time>2014-02-23T08:31:55Z</time>
      </trkpt>
      <trkpt lat="45.866177240386605" lon="7.936615822836757">
        <ele>1268.5999999999999</ele>
        <time>2014-02-23T08:32:07Z</time>
      </trkpt>
      <trkpt lat="45.866212528198957" lon="7.936640717089176">
        <ele>1269.0799999999999</ele>
        <time>2014-02-23T08:32:24Z</time>
      </trkpt>
      <trkpt lat="45.866252342239022" lon="7.936645830050111">
        <ele>1269.0799999999999</ele>
        <time>2014-02-23T08:32:35Z</time>
      </trkpt>
      <trkpt lat="45.866271117702127" lon="7.9365876596421">
        <ele>1269.0799999999999</ele>
        <time>2014-02-23T08:32:50Z</time>
      </trkpt>
      <trkpt lat="45.866228118538857" lon="7.936605848371983">
        <ele>1268.5999999999999</ele>
        <time>2014-02-23T08:33:01Z</time>
      </trkpt>
      <trkpt lat="45.866219317540526" lon="7.936607860028744">
        <ele>1268.5999999999999</ele>
        <time>2014-02-23T08:33:16Z</time>
      </trkpt>
      <trkpt lat="45.866224598139524" lon="7.936608865857124">
        <ele>1268.5999999999999</ele>
        <time>2014-02-23T08:33:36Z</time>
      </trkpt>
      <trkpt lat="45.866231471300125" lon="7.936596125364304">
        <ele>1268.5999999999999</ele>
        <time>2014-02-23T08:33:50Z</time>
      </trkpt>
      <trkpt lat="45.866233482956886" lon="7.936600903049111">
        <ele>1268.1199999999999</ele>
        <time>2014-02-23T08:34:08Z</time>
      </trkpt>
      <trkpt lat="45.86626248434186" lon="7.93663208372891">
        <ele>1268.1199999999999</ele>
        <time>2014-02-23T08:34:27Z</time>
      </trkpt>
      <trkpt lat="45.866243038326502" lon="7.936609955504537">
        <ele>1268.1199999999999</ele>
        <time>2014-02-23T08:34:43Z</time>
      </trkpt>
      <trkpt lat="45.866234488785267" lon="7.936641471460462">
        <ele>1268.1199999999999</ele>
        <time>2014-02-23T08:34:56Z</time>
      </trkpt>
      <trkpt lat="45.866240607574582" lon="7.936627389863133">
        <ele>1268.1199999999999</ele>
        <time>2014-02-23T08:35:11Z</time>
      </trkpt>
      <trkpt lat="45.866236919537187" lon="7.936618002131581">
        <ele>1267.6400000000001</ele>
        <time>2014-02-23T08:35:23Z</time>
      </trkpt>
      <trkpt lat="45.866248151287436" lon="7.936608111485839">
        <ele>1267.6400000000001</ele>
        <time>2014-02-23T08:35:27Z</time>
      </trkpt>
      <trkpt lat="45.866454094648361" lon="7.936668377369642">
        <ele>1269.5599999999999</ele>
        <time>2014-02-23T08:35:44Z</time>
      </trkpt>
      <trkpt lat="45.866643106564879" lon="7.936732666566968">
        <ele>1271</ele>
        <time>2014-02-23T08:36:00Z</time>
      </trkpt>
      <trkpt lat="45.866797585040331" lon="7.936814473941922">
        <ele>1271.96</ele>
        <time>2014-02-23T08:36:13Z</time>
      </trkpt>
      <trkpt lat="45.866945190355182" lon="7.936914386227727">
        <ele>1272.9200000000001</ele>
        <time>2014-02-23T08:36:27Z</time>
      </trkpt>
      <trkpt lat="45.867087850347161" lon="7.937070289626718">
        <ele>1273.8800000000001</ele>
        <time>2014-02-23T08:36:41Z</time>
      </trkpt>
      <trkpt lat="45.867110481485724" lon="7.93708604760468">
        <ele>1274.3599999999999</ele>
        <time>2014-02-23T08:36:43Z</time>
      </trkpt>
      <trkpt lat="45.867230929434299" lon="7.9372697789222">
        <ele>1276.77</ele>
        <time>2014-02-23T08:37:00Z</time>
      </trkpt>
      <trkpt lat="45.86735020391643" lon="7.937414702028036">
        <ele>1278.6900000000001</ele>
        <time>2014-02-23T08:37:16Z</time>
      </trkpt>
      <trkpt lat="45.867411894723773" lon="7.937482679262757">
        <ele>1279.6500000000001</ele>
        <time>2014-02-23T08:37:32Z</time>
      </trkpt>
      <trkpt lat="45.867480039596558" lon="7.937567755579948">
        <ele>1281.0899999999999</ele>
        <time>2014-02-23T08:37:41Z</time>
      </trkpt>
      <trkpt lat="45.867611635476351" lon="7.937733717262745">
        <ele>1283.5</ele>
        <time>2014-02-23T08:37:57Z</time>
      </trkpt>
      <trkpt lat="45.867737112566829" lon="7.93784779496491">
        <ele>1283.98</ele>
        <time>2014-02-23T08:38:11Z</time>
      </trkpt>
      <trkpt lat="45.867916233837605" lon="7.937917532399297">
        <ele>1284.9400000000001</ele>
        <time>2014-02-23T08:38:26Z</time>
      </trkpt>
      <trkpt lat="45.867965184152126" lon="7.937916526570916">
        <ele>1285.4200000000001</ele>
        <time>2014-02-23T08:38:30Z</time>
      </trkpt>
      <trkpt lat="45.868024192750454" lon="7.937898673117161">
        <ele>1285.4200000000001</ele>
        <time>2014-02-23T08:38:35Z</time>
      </trkpt>
      <trkpt lat="45.868193507194519" lon="7.937828516587615">
        <ele>1286.3800000000001</ele>
        <time>2014-02-23T08:38:51Z</time>
      </trkpt>
      <trkpt lat="45.868348488584161" lon="7.937740674242377">
        <ele>1288.3</ele>
        <time>2014-02-23T08:39:05Z</time>
      </trkpt>
      <trkpt lat="45.868417220190167" lon="7.937714522704482">
        <ele>1288.78</ele>
        <time>2014-02-23T08:39:12Z</time>
      </trkpt>
      <trkpt lat="45.868483856320381" lon="7.937666326761246">
        <ele>1289.27</ele>
        <time>2014-02-23T08:39:18Z</time>
      </trkpt>
      <trkpt lat="45.868645794689655" lon="7.93750774115324">
        <ele>1290.71</ele>
        <time>2014-02-23T08:39:35Z</time>
      </trkpt>
      <trkpt lat="45.868713604286313" lon="7.937417132779956">
        <ele>1291.1900000000001</ele>
        <time>2014-02-23T08:39:43Z</time>
      </trkpt>
      <trkpt lat="45.868775714188814" lon="7.937332559376955">
        <ele>1292.6300000000001</ele>
        <time>2014-02-23T08:39:51Z</time>
      </trkpt>
      <trkpt lat="45.868831118568778" lon="7.937262151390314">
        <ele>1293.1099999999999</ele>
        <time>2014-02-23T08:39:58Z</time>
      </trkpt>
      <trkpt lat="45.8689025323838" lon="7.937222756445408">
        <ele>1293.5899999999999</ele>
        <time>2014-02-23T08:40:05Z</time>
      </trkpt>
      <trkpt lat="45.869027338922024" lon="7.937207249924541">
        <ele>1294.55</ele>
        <time>2014-02-23T08:40:18Z</time>
      </trkpt>
      <trkpt lat="45.869094980880618" lon="7.937200628221035">
        <ele>1295.51</ele>
        <time>2014-02-23T08:40:29Z</time>
      </trkpt>
      <trkpt lat="45.86912146769464" lon="7.937239771708846">
        <ele>1295.51</ele>
        <time>2014-02-23T08:40:35Z</time>
      </trkpt>
      <trkpt lat="45.869160611182451" lon="7.937288470566273">
        <ele>1295.51</ele>
        <time>2014-02-23T08:40:42Z</time>
      </trkpt>
      <trkpt lat="45.869182152673602" lon="7.937334319576621">
        <ele>1295.99</ele>
        <time>2014-02-23T08:40:58Z</time>
      </trkpt>
      <trkpt lat="45.869236802682281" lon="7.937299283221364">
        <ele>1296.48</ele>
        <time>2014-02-23T08:41:04Z</time>
      </trkpt>
      <trkpt lat="45.869275443255901" lon="7.937284866347909">
        <ele>1296.48</ele>
        <time>2014-02-23T08:41:19Z</time>
      </trkpt>
      <trkpt lat="45.869314838200808" lon="7.937300959601998">
        <ele>1296.48</ele>
        <time>2014-02-23T08:41:33Z</time>
      </trkpt>
      <trkpt lat="45.869317352771759" lon="7.937296684831381">
        <ele>1296.96</ele>
        <time>2014-02-23T08:41:54Z</time>
      </trkpt>
      <trkpt lat="45.869320705533028" lon="7.937321914359927">
        <ele>1296.96</ele>
        <time>2014-02-23T08:42:12Z</time>
      </trkpt>
      <trkpt lat="45.869325734674931" lon="7.93734597042203">
        <ele>1296.48</ele>
        <time>2014-02-23T08:42:29Z</time>
      </trkpt>
      <trkpt lat="45.869369069114327" lon="7.937377905473113">
        <ele>1296.96</ele>
        <time>2014-02-23T08:42:36Z</time>
      </trkpt>
      <trkpt lat="45.869521200656891" lon="7.937465496361256">
        <ele>1298.8800000000001</ele>
        <time>2014-02-23T08:42:53Z</time>
      </trkpt>
      <trkpt lat="45.869626309722662" lon="7.93748376891017">
        <ele>1299.8399999999999</ele>
        <time>2014-02-23T08:43:03Z</time>
      </trkpt>
      <trkpt lat="45.869696382433176" lon="7.937496090307832">
        <ele>1300.8</ele>
        <time>2014-02-23T08:43:10Z</time>
      </trkpt>
      <trkpt lat="45.869882209226489" lon="7.937533725053072">
        <ele>1302.72</ele>
        <time>2014-02-23T08:43:28Z</time>
      </trkpt>
      <trkpt lat="45.870014894753695" lon="7.93754193931818">
        <ele>1304.6500000000001</ele>
        <time>2014-02-23T08:43:44Z</time>
      </trkpt>
      <trkpt lat="45.870125703513622" lon="7.937516625970602">
        <ele>1305.6099999999999</ele>
        <time>2014-02-23T08:43:57Z</time>
      </trkpt>
      <trkpt lat="45.870258808135986" lon="7.937486618757248">
        <ele>1307.53</ele>
        <time>2014-02-23T08:44:13Z</time>
      </trkpt>
      <trkpt lat="45.870339693501592" lon="7.937450660392642">
        <ele>1309.45</ele>
        <time>2014-02-23T08:44:25Z</time>
      </trkpt>
      <trkpt lat="45.87047204375267" lon="7.937414115294814">
        <ele>1311.3800000000001</ele>
        <time>2014-02-23T08:44:41Z</time>
      </trkpt>
      <trkpt lat="45.87062694132328" lon="7.937375893816352">
        <ele>1314.26</ele>
        <time>2014-02-23T08:44:59Z</time>
      </trkpt>
      <trkpt lat="45.870784856379032" lon="7.93733867816627">
        <ele>1316.1800000000001</ele>
        <time>2014-02-23T08:45:16Z</time>
      </trkpt>
      <trkpt lat="45.870865574106574" lon="7.937310514971614">
        <ele>1316.1800000000001</ele>
        <time>2014-02-23T08:45:25Z</time>
      </trkpt>
      <trkpt lat="45.871134717017412" lon="7.937251254916191">
        <ele>1317.6199999999999</ele>
        <time>2014-02-23T08:45:49Z</time>
      </trkpt>
      <trkpt lat="45.871346527710557" lon="7.937259553000331">
        <ele>1319.55</ele>
        <time>2014-02-23T08:46:09Z</time>
      </trkpt>
      <trkpt lat="45.871534114703536" lon="7.937263492494822">
        <ele>1320.51</ele>
        <time>2014-02-23T08:46:26Z</time>
      </trkpt>
      <trkpt lat="45.871613323688507" lon="7.937256451696158">
        <ele>1320.51</ele>
        <time>2014-02-23T08:46:40Z</time>
      </trkpt>
      <trkpt lat="45.871747517958283" lon="7.937172716483474">
        <ele>1322.4300000000001</ele>
        <time>2014-02-23T08:46:57Z</time>
      </trkpt>
      <trkpt lat="45.871874336153269" lon="7.937084957957268">
        <ele>1323.3900000000001</ele>
        <time>2014-02-23T08:47:12Z</time>
      </trkpt>
      <trkpt lat="45.871928902342916" lon="7.937071714550257">
        <ele>1324.3499999999999</ele>
        <time>2014-02-23T08:47:23Z</time>
      </trkpt>
      <trkpt lat="45.872030407190323" lon="7.936976915225387">
        <ele>1325.8</ele>
        <time>2014-02-23T08:47:39Z</time>
      </trkpt>
      <trkpt lat="45.872133253142238" lon="7.936880858615041">
        <ele>1327.24</ele>
        <time>2014-02-23T08:47:53Z</time>
      </trkpt>
      <trkpt lat="45.872267615050077" lon="7.936802236363292">
        <ele>1327.72</ele>
        <time>2014-02-23T08:48:08Z</time>
      </trkpt>
      <trkpt lat="45.872271806001663" lon="7.936793267726898">
        <ele>1328.2</ele>
        <time>2014-02-23T08:48:09Z</time>
      </trkpt>
      <trkpt lat="45.872289575636387" lon="7.936760578304529">
        <ele>1328.2</ele>
        <time>2014-02-23T08:48:12Z</time>
      </trkpt>
      <trkpt lat="45.872364426031709" lon="7.936657397076488">
        <ele>1329.1600000000001</ele>
        <time>2014-02-23T08:48:28Z</time>
      </trkpt>
      <trkpt lat="45.872383117675781" lon="7.93665949255228">
        <ele>1329.6400000000001</ele>
        <time>2014-02-23T08:48:31Z</time>
      </trkpt>
      <trkpt lat="45.872479258105159" lon="7.936636274680495">
        <ele>1329.6400000000001</ele>
        <time>2014-02-23T08:48:40Z</time>
      </trkpt>
      <trkpt lat="45.872612781822681" lon="7.936559244990349">
        <ele>1330.5999999999999</ele>
        <time>2014-02-23T08:48:54Z</time>
      </trkpt>
      <trkpt lat="45.872819479554892" lon="7.936441227793694">
        <ele>1332.04</ele>
        <time>2014-02-23T08:49:14Z</time>
      </trkpt>
      <trkpt lat="45.872985105961561" lon="7.936428068205714">
        <ele>1333.49</ele>
        <time>2014-02-23T08:49:31Z</time>
      </trkpt>
      <trkpt lat="45.872989213094115" lon="7.936526471748948">
        <ele>1333.49</ele>
        <time>2014-02-23T08:49:45Z</time>
      </trkpt>
      <trkpt lat="45.872958786785603" lon="7.936567878350616">
        <ele>1333.49</ele>
        <time>2014-02-23T08:50:04Z</time>
      </trkpt>
      <trkpt lat="45.872896341606975" lon="7.93651825748384">
        <ele>1333.49</ele>
        <time>2014-02-23T08:50:29Z</time>
      </trkpt>
      <trkpt lat="45.872912267223001" lon="7.936459165066481">
        <ele>1333.01</ele>
        <time>2014-02-23T08:50:49Z</time>
      </trkpt>
      <trkpt lat="45.872953338548541" lon="7.936440221965313">
        <ele>1333.01</ele>
        <time>2014-02-23T08:51:01Z</time>
      </trkpt>
      <trkpt lat="45.872950488701463" lon="7.936402084305883">
        <ele>1333.01</ele>
        <time>2014-02-23T08:51:09Z</time>
      </trkpt>
      <trkpt lat="45.87298946455121" lon="7.936364365741611">
        <ele>1332.52</ele>
        <time>2014-02-23T08:51:14Z</time>
      </trkpt>
      <trkpt lat="45.873190881684422" lon="7.936320109292865">
        <ele>1333.97</ele>
        <time>2014-02-23T08:51:32Z</time>
      </trkpt>
      <trkpt lat="45.873363967984915" lon="7.936324551701546">
        <ele>1335.4100000000001</ele>
        <time>2014-02-23T08:51:47Z</time>
      </trkpt>
      <trkpt lat="45.873562283813953" lon="7.936318181455135">
        <ele>1337.8099999999999</ele>
        <time>2014-02-23T08:52:06Z</time>
      </trkpt>
      <trkpt lat="45.87373168207705" lon="7.936262022703886">
        <ele>1339.73</ele>
        <time>2014-02-23T08:52:24Z</time>
      </trkpt>
      <trkpt lat="45.873852297663689" lon="7.936180299147964">
        <ele>1341.1800000000001</ele>
        <time>2014-02-23T08:52:38Z</time>
      </trkpt>
      <trkpt lat="45.873983977362514" lon="7.936029173433781">
        <ele>1344.0599999999999</ele>
        <time>2014-02-23T08:52:54Z</time>
      </trkpt>
      <trkpt lat="45.874130828306079" lon="7.935914089903235">
        <ele>1345.98</ele>
        <time>2014-02-23T08:53:11Z</time>
      </trkpt>
      <trkpt lat="45.874275248497725" lon="7.93586983345449">
        <ele>1348.3900000000001</ele>
        <time>2014-02-23T08:53:27Z</time>
      </trkpt>
      <trkpt lat="45.874418243765831" lon="7.935835551470518">
        <ele>1350.3099999999999</ele>
        <time>2014-02-23T08:53:44Z</time>
      </trkpt>
      <trkpt lat="45.874512791633606" lon="7.93578626587987">
        <ele>1352.23</ele>
        <time>2014-02-23T08:53:55Z</time>
      </trkpt>
      <trkpt lat="45.8746546972543" lon="7.935734633356333">
        <ele>1353.6700000000001</ele>
        <time>2014-02-23T08:54:12Z</time>
      </trkpt>
      <trkpt lat="45.87473482824862" lon="7.935779392719269">
        <ele>1355.1199999999999</ele>
        <time>2014-02-23T08:54:25Z</time>
      </trkpt>
      <trkpt lat="45.874836249276996" lon="7.935806382447481">
        <ele>1357.52</ele>
        <time>2014-02-23T08:54:41Z</time>
      </trkpt>
      <trkpt lat="45.87491319514811" lon="7.935769753530622">
        <ele>1358.48</ele>
        <time>2014-02-23T08:54:54Z</time>
      </trkpt>
      <trkpt lat="45.874948650598526" lon="7.935774615034461">
        <ele>1358.48</ele>
        <time>2014-02-23T08:55:15Z</time>
      </trkpt>
      <trkpt lat="45.875046467408538" lon="7.935696747153997">
        <ele>1360.8800000000001</ele>
        <time>2014-02-23T08:55:31Z</time>
      </trkpt>
      <trkpt lat="45.875066835433245" lon="7.935696830973029">
        <ele>1360.8800000000001</ele>
        <time>2014-02-23T08:55:34Z</time>
      </trkpt>
      <trkpt lat="45.875199269503355" lon="7.93564897030592">
        <ele>1362.8099999999999</ele>
        <time>2014-02-23T08:55:49Z</time>
      </trkpt>
      <trkpt lat="45.875329859554768" lon="7.935610413551331">
        <ele>1365.6900000000001</ele>
        <time>2014-02-23T08:56:05Z</time>
      </trkpt>
      <trkpt lat="45.875458354130387" lon="7.935585100203753">
        <ele>1367.6099999999999</ele>
        <time>2014-02-23T08:56:21Z</time>
      </trkpt>
      <trkpt lat="45.875605121254921" lon="7.935506226494908">
        <ele>1369.54</ele>
        <time>2014-02-23T08:56:39Z</time>
      </trkpt>
      <trkpt lat="45.875744009390473" lon="7.935469346120954">
        <ele>1371.9400000000001</ele>
        <time>2014-02-23T08:56:56Z</time>
      </trkpt>
      <trkpt lat="45.875862529501319" lon="7.935427352786064">
        <ele>1374.8199999999999</ele>
        <time>2014-02-23T08:57:11Z</time>
      </trkpt>
      <trkpt lat="45.875989934429526" lon="7.935355268418789">
        <ele>1377.23</ele>
        <time>2014-02-23T08:57:27Z</time>
      </trkpt>
      <trkpt lat="45.87614256888628" lon="7.935235239565373">
        <ele>1378.1900000000001</ele>
        <time>2014-02-23T08:57:44Z</time>
      </trkpt>
      <trkpt lat="45.876296376809478" lon="7.935137087479234">
        <ele>1380.1099999999999</ele>
        <time>2014-02-23T08:58:01Z</time>
      </trkpt>
      <trkpt lat="45.876437528058887" lon="7.935090903192759">
        <ele>1382.03</ele>
        <time>2014-02-23T08:58:16Z</time>
      </trkpt>
      <trkpt lat="45.876588402315974" lon="7.935039103031158">
        <ele>1383.47</ele>
        <time>2014-02-23T08:58:32Z</time>
      </trkpt>
      <trkpt lat="45.876728966832161" lon="7.935048993676901">
        <ele>1384.9200000000001</ele>
        <time>2014-02-23T08:58:48Z</time>
      </trkpt>
      <trkpt lat="45.876851258799434" lon="7.935054609552026">
        <ele>1386.3599999999999</ele>
        <time>2014-02-23T08:59:02Z</time>
      </trkpt>
      <trkpt lat="45.876994170248508" lon="7.935027033090591">
        <ele>1388.28</ele>
        <time>2014-02-23T08:59:17Z</time>
      </trkpt>
      <trkpt lat="45.877001378685236" lon="7.935027033090591">
        <ele>1387.8</ele>
        <time>2014-02-23T08:59:18Z</time>
      </trkpt>
      <trkpt lat="45.877067008987069" lon="7.935047317296267">
        <ele>1389.24</ele>
        <time>2014-02-23T08:59:29Z</time>
      </trkpt>
      <trkpt lat="45.877190893515944" lon="7.935058884322643">
        <ele>1390.6800000000001</ele>
        <time>2014-02-23T08:59:43Z</time>
      </trkpt>
      <trkpt lat="45.877243699505925" lon="7.935004150494933">
        <ele>1391.1700000000001</ele>
        <time>2014-02-23T08:59:57Z</time>
      </trkpt>
      <trkpt lat="45.877249231562018" lon="7.934971712529659">
        <ele>1390.6800000000001</ele>
        <time>2014-02-23T09:00:15Z</time>
      </trkpt>
      <trkpt lat="45.8772380836308" lon="7.935065338388085">
        <ele>1391.1700000000001</ele>
        <time>2014-02-23T09:00:36Z</time>
      </trkpt>
      <trkpt lat="45.87722341530025" lon="7.935053519904614">
        <ele>1391.1700000000001</ele>
        <time>2014-02-23T09:00:51Z</time>
      </trkpt>
      <trkpt lat="45.877218386158347" lon="7.935051089152694">
        <ele>1391.1700000000001</ele>
        <time>2014-02-23T09:01:11Z</time>
      </trkpt>
      <trkpt lat="45.877251578494906" lon="7.935063913464546">
        <ele>1391.1700000000001</ele>
        <time>2014-02-23T09:01:26Z</time>
      </trkpt>
      <trkpt lat="45.877254428341985" lon="7.935098027810454">
        <ele>1391.6500000000001</ele>
        <time>2014-02-23T09:01:47Z</time>
      </trkpt>
      <trkpt lat="45.877234898507595" lon="7.935001803562045">
        <ele>1391.6500000000001</ele>
        <time>2014-02-23T09:02:00Z</time>
      </trkpt>
      <trkpt lat="45.877220816910267" lon="7.934968946501613">
        <ele>1391.1700000000001</ele>
        <time>2014-02-23T09:02:25Z</time>
      </trkpt>
      <trkpt lat="45.877219391986728" lon="7.934971377253532">
        <ele>1391.1700000000001</ele>
        <time>2014-02-23T09:02:41Z</time>
      </trkpt>
      <trkpt lat="45.877292482182384" lon="7.934960061684251">
        <ele>1392.6099999999999</ele>
        <time>2014-02-23T09:02:55Z</time>
      </trkpt>
      <trkpt lat="45.877301953732967" lon="7.934988476336002">
        <ele>1392.6099999999999</ele>
        <time>2014-02-23T09:03:13Z</time>
      </trkpt>
      <trkpt lat="45.877288123592734" lon="7.934962408617139">
        <ele>1392.6099999999999</ele>
        <time>2014-02-23T09:03:34Z</time>
      </trkpt>
      <trkpt lat="45.877269599586725" lon="7.935008257627487">
        <ele>1392.1300000000001</ele>
        <time>2014-02-23T09:03:50Z</time>
      </trkpt>
      <trkpt lat="45.87726985104382" lon="7.9350093472749">
        <ele>1392.6099999999999</ele>
        <time>2014-02-23T09:04:11Z</time>
      </trkpt>
      <trkpt lat="45.877252165228128" lon="7.934990236535668">
        <ele>1392.6099999999999</ele>
        <time>2014-02-23T09:04:34Z</time>
      </trkpt>
      <trkpt lat="45.877231461927295" lon="7.935000546276569">
        <ele>1393.0899999999999</ele>
        <time>2014-02-23T09:04:52Z</time>
      </trkpt>
      <trkpt lat="45.877223163843155" lon="7.934988727793098">
        <ele>1392.6099999999999</ele>
        <time>2014-02-23T09:05:17Z</time>
      </trkpt>
      <trkpt lat="45.877246214076877" lon="7.935014795511961">
        <ele>1392.1300000000001</ele>
        <time>2014-02-23T09:05:34Z</time>
      </trkpt>
      <trkpt lat="45.877266330644488" lon="7.935008341446519">
        <ele>1392.6099999999999</ele>
        <time>2014-02-23T09:05:57Z</time>
      </trkpt>
      <trkpt lat="45.877269431948662" lon="7.934989565983415">
        <ele>1393.0899999999999</ele>
        <time>2014-02-23T09:06:18Z</time>
      </trkpt>
      <trkpt lat="45.877295499667525" lon="7.934919493272901">
        <ele>1393.0899999999999</ele>
        <time>2014-02-23T09:06:38Z</time>
      </trkpt>
      <trkpt lat="45.87730354629457" lon="7.934941370040178">
        <ele>1393.0899999999999</ele>
        <time>2014-02-23T09:06:52Z</time>
      </trkpt>
      <trkpt lat="45.87723758071661" lon="7.934988476336002">
        <ele>1392.6099999999999</ele>
        <time>2014-02-23T09:07:10Z</time>
      </trkpt>
      <trkpt lat="45.877257110551" lon="7.934984033927321">
        <ele>1393.0899999999999</ele>
        <time>2014-02-23T09:07:25Z</time>
      </trkpt>
      <trkpt lat="45.877277310937643" lon="7.934982944279909">
        <ele>1393.5699999999999</ele>
        <time>2014-02-23T09:07:41Z</time>
      </trkpt>
      <trkpt lat="45.877384264022112" lon="7.93500741943717">
        <ele>1395.01</ele>
        <time>2014-02-23T09:07:53Z</time>
      </trkpt>
      <trkpt lat="45.877398261800408" lon="7.935008760541678">
        <ele>1395.01</ele>
        <time>2014-02-23T09:07:55Z</time>
      </trkpt>
      <trkpt lat="45.877561373636127" lon="7.935015130788088">
        <ele>1396.9300000000001</ele>
        <time>2014-02-23T09:08:10Z</time>
      </trkpt>
      <trkpt lat="45.877681905403733" lon="7.935047401115298">
        <ele>1397.8900000000001</ele>
        <time>2014-02-23T09:08:23Z</time>
      </trkpt>
      <trkpt lat="45.877690454944968" lon="7.935052262619138">
        <ele>1398.3699999999999</ele>
        <time>2014-02-23T09:08:25Z</time>
      </trkpt>
      <trkpt lat="45.877784164622426" lon="7.935091070830822">
        <ele>1399.3399999999999</ele>
        <time>2014-02-23T09:08:35Z</time>
      </trkpt>
      <trkpt lat="45.877971919253469" lon="7.935052094981074">
        <ele>1400.78</ele>
        <time>2014-02-23T09:08:51Z</time>
      </trkpt>
      <trkpt lat="45.878110220655799" lon="7.934879260137677">
        <ele>1402.22</ele>
        <time>2014-02-23T09:09:07Z</time>
      </trkpt>
      <trkpt lat="45.878117261454463" lon="7.934871381148696">
        <ele>1402.22</ele>
        <time>2014-02-23T09:09:08Z</time>
      </trkpt>
      <trkpt lat="45.878267465159297" lon="7.934735091403127">
        <ele>1404.1400000000001</ele>
        <time>2014-02-23T09:09:25Z</time>
      </trkpt>
      <trkpt lat="45.878384476527572" lon="7.934694439172745">
        <ele>1405.0999999999999</ele>
        <time>2014-02-23T09:09:39Z</time>
      </trkpt>
      <trkpt lat="45.878500062972307" lon="7.934682117775083">
        <ele>1406.55</ele>
        <time>2014-02-23T09:09:56Z</time>
      </trkpt>
      <trkpt lat="45.878512468189001" lon="7.934682453051209">
        <ele>1406.0699999999999</ele>
        <time>2014-02-23T09:09:58Z</time>
      </trkpt>
      <trkpt lat="45.878588324412704" lon="7.934722602367401">
        <ele>1406.0699999999999</ele>
        <time>2014-02-23T09:10:12Z</time>
      </trkpt>
      <trkpt lat="45.878675496205688" lon="7.934775492176414">
        <ele>1407.03</ele>
        <time>2014-02-23T09:10:30Z</time>
      </trkpt>
      <trkpt lat="45.878702737390995" lon="7.93478605337441">
        <ele>1407.51</ele>
        <time>2014-02-23T09:10:43Z</time>
      </trkpt>
      <trkpt lat="45.878842379897833" lon="7.934816060587764">
        <ele>1408.95</ele>
        <time>2014-02-23T09:10:56Z</time>
      </trkpt>
      <trkpt lat="45.879049664363265" lon="7.934722434729338">
        <ele>1410.8699999999999</ele>
        <time>2014-02-23T09:11:11Z</time>
      </trkpt>
      <trkpt lat="45.879114288836718" lon="7.934726877138019">
        <ele>1412.3099999999999</ele>
        <time>2014-02-23T09:11:26Z</time>
      </trkpt>
      <trkpt lat="45.879225768148899" lon="7.934746406972408">
        <ele>1413.76</ele>
        <time>2014-02-23T09:11:37Z</time>
      </trkpt>
      <trkpt lat="45.879370355978608" lon="7.934767613187432">
        <ele>1415.6800000000001</ele>
        <time>2014-02-23T09:11:50Z</time>
      </trkpt>
      <trkpt lat="45.879478566348553" lon="7.934814468026161">
        <ele>1417.1199999999999</ele>
        <time>2014-02-23T09:12:00Z</time>
      </trkpt>
      <trkpt lat="45.879525253549218" lon="7.934818994253874">
        <ele>1418.5599999999999</ele>
        <time>2014-02-23T09:12:04Z</time>
      </trkpt>
      <trkpt lat="45.879545453935862" lon="7.934820167720318">
        <ele>1418.5599999999999</ele>
        <time>2014-02-23T09:12:06Z</time>
      </trkpt>
      <trkpt lat="45.879574287682772" lon="7.934836931526661">
        <ele>1419.04</ele>
        <time>2014-02-23T09:12:09Z</time>
      </trkpt>
      <trkpt lat="45.8797403331846" lon="7.934869285672903">
        <ele>1421.45</ele>
        <time>2014-02-23T09:12:24Z</time>
      </trkpt>
      <trkpt lat="45.879802443087101" lon="7.934862412512302">
        <ele>1421.9300000000001</ele>
        <time>2014-02-23T09:12:29Z</time>
      </trkpt>
      <trkpt lat="45.879822811111808" lon="7.934865429997444">
        <ele>1422.4100000000001</ele>
        <time>2014-02-23T09:12:31Z</time>
      </trkpt>
      <trkpt lat="45.879918783903122" lon="7.934868698939681">
        <ele>1423.8499999999999</ele>
        <time>2014-02-23T09:12:40Z</time>
      </trkpt>
      <trkpt lat="45.880098575726151" lon="7.934916894882917">
        <ele>1425.77</ele>
        <time>2014-02-23T09:12:56Z</time>
      </trkpt>
      <trkpt lat="45.880220951512456" lon="7.934966012835503">
        <ele>1427.7</ele>
        <time>2014-02-23T09:13:10Z</time>
      </trkpt>
      <trkpt lat="45.880356822162867" lon="7.934999624267221">
        <ele>1429.6199999999999</ele>
        <time>2014-02-23T09:13:24Z</time>
      </trkpt>
      <trkpt lat="45.880406526848674" lon="7.935031643137336">
        <ele>1431.0599999999999</ele>
        <time>2014-02-23T09:13:30Z</time>
      </trkpt>
      <trkpt lat="45.880505098029971" lon="7.93510121293366">
        <ele>1432.02</ele>
        <time>2014-02-23T09:13:43Z</time>
      </trkpt>
      <trkpt lat="45.880536194890738" lon="7.935284608975053">
        <ele>1433.9400000000001</ele>
        <time>2014-02-23T09:13:55Z</time>
      </trkpt>
      <trkpt lat="45.880537452176213" lon="7.935310425236821">
        <ele>1433.46</ele>
        <time>2014-02-23T09:13:57Z</time>
      </trkpt>
      <trkpt lat="45.880489088594913" lon="7.935418551787734">
        <ele>1434.9100000000001</ele>
        <time>2014-02-23T09:14:05Z</time>
      </trkpt>
      <trkpt lat="45.880353385582566" lon="7.935515027493238">
        <ele>1436.3499999999999</ele>
        <time>2014-02-23T09:14:21Z</time>
      </trkpt>
      <trkpt lat="45.880232350900769" lon="7.935577472671866">
        <ele>1437.3099999999999</ele>
        <time>2014-02-23T09:14:35Z</time>
      </trkpt>
      <trkpt lat="45.880202259868383" lon="7.935599684715271">
        <ele>1437.79</ele>
        <time>2014-02-23T09:14:39Z</time>
      </trkpt>
      <trkpt lat="45.880155824124813" lon="7.935735387727618">
        <ele>1439.23</ele>
        <time>2014-02-23T09:14:53Z</time>
      </trkpt>
      <trkpt lat="45.880172504112124" lon="7.935790959745646">
        <ele>1440.1900000000001</ele>
        <time>2014-02-23T09:14:58Z</time>
      </trkpt>
      <trkpt lat="45.880286330357194" lon="7.935883663594723">
        <ele>1442.1099999999999</ele>
        <time>2014-02-23T09:15:13Z</time>
      </trkpt>
      <trkpt lat="45.880402838811278" lon="7.935920627787709">
        <ele>1444.52</ele>
        <time>2014-02-23T09:15:29Z</time>
      </trkpt>
      <trkpt lat="45.88057542219758" lon="7.935949210077524">
        <ele>1445</ele>
        <time>2014-02-23T09:15:44Z</time>
      </trkpt>
      <trkpt lat="45.880696708336473" lon="7.935937810689211">
        <ele>1446.9200000000001</ele>
        <time>2014-02-23T09:15:58Z</time>
      </trkpt>
      <trkpt lat="45.880814893171191" lon="7.935872599482536">
        <ele>1448.8399999999999</ele>
        <time>2014-02-23T09:16:13Z</time>
      </trkpt>
      <trkpt lat="45.880869710817933" lon="7.935828845947981">
        <ele>1449.8099999999999</ele>
        <time>2014-02-23T09:16:20Z</time>
      </trkpt>
      <trkpt lat="45.881004156544805" lon="7.935735890641809">
        <ele>1451.73</ele>
        <time>2014-02-23T09:16:35Z</time>
      </trkpt>
      <trkpt lat="45.881130723282695" lon="7.935653245076537">
        <ele>1454.6099999999999</ele>
        <time>2014-02-23T09:16:51Z</time>
      </trkpt>
      <trkpt lat="45.881157210096717" lon="7.935649221763015">
        <ele>1453.6500000000001</ele>
        <time>2014-02-23T09:17:04Z</time>
      </trkpt>
      <trkpt lat="45.881130304187536" lon="7.935669589787722">
        <ele>1454.1300000000001</ele>
        <time>2014-02-23T09:17:35Z</time>
      </trkpt>
      <trkpt lat="45.881155952811241" lon="7.935663387179375">
        <ele>1454.1300000000001</ele>
        <time>2014-02-23T09:17:55Z</time>
      </trkpt>
      <trkpt lat="45.881206160411239" lon="7.935673026368022">
        <ele>1454.6099999999999</ele>
        <time>2014-02-23T09:18:15Z</time>
      </trkpt>
      <trkpt lat="45.881312359124422" lon="7.935590296983719">
        <ele>1456.05</ele>
        <time>2014-02-23T09:18:31Z</time>
      </trkpt>
      <trkpt lat="45.881446469575167" lon="7.935551656410098">
        <ele>1458.9400000000001</ele>
        <time>2014-02-23T09:18:50Z</time>
      </trkpt>
      <trkpt lat="45.881593488156796" lon="7.935501113533974">
        <ele>1460.8599999999999</ele>
        <time>2014-02-23T09:19:06Z</time>
      </trkpt>
      <trkpt lat="45.881721312180161" lon="7.935478482395411">
        <ele>1463.26</ele>
        <time>2014-02-23T09:19:20Z</time>
      </trkpt>
      <trkpt lat="45.881789792329073" lon="7.935488792136312">
        <ele>1463.74</ele>
        <time>2014-02-23T09:19:33Z</time>
      </trkpt>
      <trkpt lat="45.881906216964126" lon="7.935413019731641">
        <ele>1466.1500000000001</ele>
        <time>2014-02-23T09:19:48Z</time>
      </trkpt>
      <trkpt lat="45.882011828944087" lon="7.935247225686908">
        <ele>1468.55</ele>
        <time>2014-02-23T09:20:05Z</time>
      </trkpt>
      <trkpt lat="45.882072346284986" lon="7.935034241527319">
        <ele>1470.95</ele>
        <time>2014-02-23T09:20:23Z</time>
      </trkpt>
      <trkpt lat="45.882115513086319" lon="7.934954278171063">
        <ele>1471.4400000000001</ele>
        <time>2014-02-23T09:20:35Z</time>
      </trkpt>
      <trkpt lat="45.882176114246249" lon="7.934866100549698">
        <ele>1472.8800000000001</ele>
        <time>2014-02-23T09:20:51Z</time>
      </trkpt>
      <trkpt lat="45.882177706807852" lon="7.934850677847862">
        <ele>1472.4000000000001</ele>
        <time>2014-02-23T09:21:15Z</time>
      </trkpt>
      <trkpt lat="45.882201259955764" lon="7.934788065031171">
        <ele>1472.8800000000001</ele>
        <time>2014-02-23T09:21:36Z</time>
      </trkpt>
      <trkpt lat="45.882220286875963" lon="7.934750514104962">
        <ele>1472.8800000000001</ele>
        <time>2014-02-23T09:21:52Z</time>
      </trkpt>
      <trkpt lat="45.88227141648531" lon="7.934635933488607">
        <ele>1474.8</ele>
        <time>2014-02-23T09:22:05Z</time>
      </trkpt>
      <trkpt lat="45.882365964353085" lon="7.934516659006476">
        <ele>1476.72</ele>
        <time>2014-02-23T09:22:20Z</time>
      </trkpt>
      <trkpt lat="45.882468642666936" lon="7.934393109753728">
        <ele>1478.1600000000001</ele>
        <time>2014-02-23T09:22:37Z</time>
      </trkpt>
      <trkpt lat="45.882585570216179" lon="7.934283977374435">
        <ele>1480.0899999999999</ele>
        <time>2014-02-23T09:22:53Z</time>
      </trkpt>
      <trkpt lat="45.88272244669497" lon="7.934182053431869">
        <ele>1482.01</ele>
        <time>2014-02-23T09:23:09Z</time>
      </trkpt>
      <trkpt lat="45.882844571024179" lon="7.934103179723024">
        <ele>1483.9300000000001</ele>
        <time>2014-02-23T09:23:24Z</time>
      </trkpt>
      <trkpt lat="45.882981782779098" lon="7.934037046507001">
        <ele>1485.3699999999999</ele>
        <time>2014-02-23T09:23:39Z</time>
      </trkpt>
      <trkpt lat="45.883078845217824" lon="7.933983402326703">
        <ele>1487.3</ele>
        <time>2014-02-23T09:23:53Z</time>
      </trkpt>
      <trkpt lat="45.883201137185097" lon="7.933893213048577">
        <ele>1489.22</ele>
        <time>2014-02-23T09:24:08Z</time>
      </trkpt>
      <trkpt lat="45.883286129683256" lon="7.933800593018532">
        <ele>1490.6600000000001</ele>
        <time>2014-02-23T09:24:22Z</time>
      </trkpt>
      <trkpt lat="45.88335569947958" lon="7.933720964938402">
        <ele>1492.0999999999999</ele>
        <time>2014-02-23T09:24:39Z</time>
      </trkpt>
      <trkpt lat="45.883420491591096" lon="7.933623902499676">
        <ele>1493.0599999999999</ele>
        <time>2014-02-23T09:24:57Z</time>
      </trkpt>
      <trkpt lat="45.883494252339005" lon="7.933555925264955">
        <ele>1494.03</ele>
        <time>2014-02-23T09:25:11Z</time>
      </trkpt>
      <trkpt lat="45.883566923439503" lon="7.933453330770135">
        <ele>1494.99</ele>
        <time>2014-02-23T09:25:22Z</time>
      </trkpt>
      <trkpt lat="45.883697345852852" lon="7.93323028832674">
        <ele>1497.3900000000001</ele>
        <time>2014-02-23T09:25:42Z</time>
      </trkpt>
      <trkpt lat="45.883813854306936" lon="7.933072205632925">
        <ele>1499.3099999999999</ele>
        <time>2014-02-23T09:25:59Z</time>
      </trkpt>
      <trkpt lat="45.883953580632806" lon="7.932895347476006">
        <ele>1501.24</ele>
        <time>2014-02-23T09:26:17Z</time>
      </trkpt>
      <trkpt lat="45.884045278653502" lon="7.932804068550468">
        <ele>1502.2</ele>
        <time>2014-02-23T09:26:29Z</time>
      </trkpt>
      <trkpt lat="45.884202187880874" lon="7.932700803503394">
        <ele>1504.1199999999999</ele>
        <time>2014-02-23T09:26:46Z</time>
      </trkpt>
      <trkpt lat="45.884361108765006" lon="7.932592341676354">
        <ele>1505.5599999999999</ele>
        <time>2014-02-23T09:27:05Z</time>
      </trkpt>
      <trkpt lat="45.884453309699893" lon="7.932436438277364">
        <ele>1507</ele>
        <time>2014-02-23T09:27:21Z</time>
      </trkpt>
      <trkpt lat="45.884471498429775" lon="7.932431157678366">
        <ele>1506.52</ele>
        <time>2014-02-23T09:27:35Z</time>
      </trkpt>
      <trkpt lat="45.88447661139071" lon="7.932398803532124">
        <ele>1506.52</ele>
        <time>2014-02-23T09:27:37Z</time>
      </trkpt>
      <trkpt lat="45.88448541238904" lon="7.932334849610925">
        <ele>1506.52</ele>
        <time>2014-02-23T09:27:40Z</time>
      </trkpt>
      <trkpt lat="45.884447358548641" lon="7.932078279554844">
        <ele>1509.4100000000001</ele>
        <time>2014-02-23T09:27:58Z</time>
      </trkpt>
      <trkpt lat="45.884432857856154" lon="7.931864457204938">
        <ele>1511.3299999999999</ele>
        <time>2014-02-23T09:28:14Z</time>
      </trkpt>
      <trkpt lat="45.88443168438971" lon="7.931749122217298">
        <ele>1512.29</ele>
        <time>2014-02-23T09:28:23Z</time>
      </trkpt>
      <trkpt lat="45.884447861462831" lon="7.931702099740505">
        <ele>1512.77</ele>
        <time>2014-02-23T09:28:27Z</time>
      </trkpt>
      <trkpt lat="45.88446537964046" lon="7.931655328720808">
        <ele>1513.25</ele>
        <time>2014-02-23T09:28:45Z</time>
      </trkpt>
      <trkpt lat="45.88445171713829" lon="7.931666979566217">
        <ele>1513.25</ele>
        <time>2014-02-23T09:29:06Z</time>
      </trkpt>
      <trkpt lat="45.884514413774014" lon="7.93161635287106">
        <ele>1514.6900000000001</ele>
        <time>2014-02-23T09:29:30Z</time>
      </trkpt>
      <trkpt lat="45.884544840082526" lon="7.931508561596274">
        <ele>1516.1400000000001</ele>
        <time>2014-02-23T09:29:56Z</time>
      </trkpt>
      <trkpt lat="45.884634191170335" lon="7.931364644318819">
        <ele>1519.5</ele>
        <time>2014-02-23T09:30:15Z</time>
      </trkpt>
      <trkpt lat="45.884668054059148" lon="7.931243609637022">
        <ele>1521.4200000000001</ele>
        <time>2014-02-23T09:30:33Z</time>
      </trkpt>
      <trkpt lat="45.884679201990366" lon="7.931096255779266">
        <ele>1523.8299999999999</ele>
        <time>2014-02-23T09:30:49Z</time>
      </trkpt>
      <trkpt lat="45.884733013808727" lon="7.930952254682779">
        <ele>1525.27</ele>
        <time>2014-02-23T09:31:05Z</time>
      </trkpt>
      <trkpt lat="45.884779365733266" lon="7.9308130312711">
        <ele>1527.1900000000001</ele>
        <time>2014-02-23T09:31:21Z</time>
      </trkpt>
      <trkpt lat="45.884836027398705" lon="7.930693086236715">
        <ele>1528.6300000000001</ele>
        <time>2014-02-23T09:31:37Z</time>
      </trkpt>
      <trkpt lat="45.884883720427752" lon="7.930545648559928">
        <ele>1531.04</ele>
        <time>2014-02-23T09:31:53Z</time>
      </trkpt>
      <trkpt lat="45.884916912764311" lon="7.930381949990988">
        <ele>1533.4400000000001</ele>
        <time>2014-02-23T09:32:09Z</time>
      </trkpt>
      <trkpt lat="45.884871985763311" lon="7.930246246978641">
        <ele>1534.4000000000001</ele>
        <time>2014-02-23T09:32:27Z</time>
      </trkpt>
      <trkpt lat="45.884845666587353" lon="7.930198889225721">
        <ele>1534.8800000000001</ele>
        <time>2014-02-23T09:32:31Z</time>
      </trkpt>
      <trkpt lat="45.884755477309227" lon="7.93004684150219">
        <ele>1535.8399999999999</ele>
        <time>2014-02-23T09:32:48Z</time>
      </trkpt>
      <trkpt lat="45.884785316884518" lon="7.929888172075152">
        <ele>1538.25</ele>
        <time>2014-02-23T09:33:06Z</time>
      </trkpt>
      <trkpt lat="45.88485580869019" lon="7.929754899814725">
        <ele>1541.1300000000001</ele>
        <time>2014-02-23T09:33:25Z</time>
      </trkpt>
      <trkpt lat="45.884922947734594" lon="7.929776022210717">
        <ele>1542.5699999999999</ele>
        <time>2014-02-23T09:33:42Z</time>
      </trkpt>
      <trkpt lat="45.884927893057466" lon="7.929763114079833">
        <ele>1542.0899999999999</ele>
        <time>2014-02-23T09:33:58Z</time>
      </trkpt>
      <trkpt lat="45.884909117594361" lon="7.929811645299196">
        <ele>1541.1300000000001</ele>
        <time>2014-02-23T09:34:13Z</time>
      </trkpt>
      <trkpt lat="45.884903082624078" lon="7.929813740774989">
        <ele>1541.1300000000001</ele>
        <time>2014-02-23T09:34:37Z</time>
      </trkpt>
      <trkpt lat="45.884886989369988" lon="7.929907953366637">
        <ele>1541.1300000000001</ele>
        <time>2014-02-23T09:35:09Z</time>
      </trkpt>
      <trkpt lat="45.884839212521911" lon="7.929736962541938">
        <ele>1541.1300000000001</ele>
        <time>2014-02-23T09:35:35Z</time>
      </trkpt>
      <trkpt lat="45.884807277470827" lon="7.929670829325914">
        <ele>1541.1300000000001</ele>
        <time>2014-02-23T09:36:02Z</time>
      </trkpt>
      <trkpt lat="45.884855305776" lon="7.929719779640436">
        <ele>1542.5699999999999</ele>
        <time>2014-02-23T09:36:14Z</time>
      </trkpt>
      <trkpt lat="45.884886402636766" lon="7.929738387465477">
        <ele>1542.5699999999999</ele>
        <time>2014-02-23T09:36:35Z</time>
      </trkpt>
      <trkpt lat="45.884859161451459" lon="7.92978591285646">
        <ele>1542.5699999999999</ele>
        <time>2014-02-23T09:36:52Z</time>
      </trkpt>
      <trkpt lat="45.884852120652795" lon="7.92968968860805">
        <ele>1544.98</ele>
        <time>2014-02-23T09:37:07Z</time>
      </trkpt>
      <trkpt lat="45.884786657989025" lon="7.929651802405715">
        <ele>1548.3399999999999</ele>
        <time>2014-02-23T09:37:18Z</time>
      </trkpt>
      <trkpt lat="45.88477517478168" lon="7.929587680846453">
        <ele>1550.26</ele>
        <time>2014-02-23T09:37:33Z</time>
      </trkpt>
      <trkpt lat="45.88473217561841" lon="7.929568905383349">
        <ele>1552.1900000000001</ele>
        <time>2014-02-23T09:37:49Z</time>
      </trkpt>
      <trkpt lat="45.884741814807057" lon="7.929532611742616">
        <ele>1555.0699999999999</ele>
        <time>2014-02-23T09:38:00Z</time>
      </trkpt>
      <trkpt lat="45.884642070159316" lon="7.929496066644788">
        <ele>1558.4300000000001</ele>
        <time>2014-02-23T09:38:24Z</time>
      </trkpt>
      <trkpt lat="45.884646931663156" lon="7.929433956742287">
        <ele>1559.8800000000001</ele>
        <time>2014-02-23T09:38:38Z</time>
      </trkpt>
      <trkpt lat="45.884606195613742" lon="7.929380480200052">
        <ele>1562.76</ele>
        <time>2014-02-23T09:38:51Z</time>
      </trkpt>
      <trkpt lat="45.88460267521441" lon="7.92938869446516">
        <ele>1562.76</ele>
        <time>2014-02-23T09:38:52Z</time>
      </trkpt>
      <trkpt lat="45.884572835639119" lon="7.929404536262155">
        <ele>1563.24</ele>
        <time>2014-02-23T09:39:07Z</time>
      </trkpt>
      <trkpt lat="45.884620528668165" lon="7.929357513785362">
        <ele>1563.24</ele>
        <time>2014-02-23T09:39:22Z</time>
      </trkpt>
      <trkpt lat="45.884636538103223" lon="7.929350472986698">
        <ele>1562.76</ele>
        <time>2014-02-23T09:39:45Z</time>
      </trkpt>
      <trkpt lat="45.884639974683523" lon="7.929352149367333">
        <ele>1561.8</ele>
        <time>2014-02-23T09:39:58Z</time>
      </trkpt>
      <trkpt lat="45.884692780673504" lon="7.92929976247251">
        <ele>1563.72</ele>
        <time>2014-02-23T09:40:11Z</time>
      </trkpt>
      <trkpt lat="45.884675262495875" lon="7.929343683645129">
        <ele>1563.24</ele>
        <time>2014-02-23T09:40:28Z</time>
      </trkpt>
      <trkpt lat="45.88473410345614" lon="7.929297666996718">
        <ele>1564.6800000000001</ele>
        <time>2014-02-23T09:40:40Z</time>
      </trkpt>
      <trkpt lat="45.884736785665154" lon="7.929320801049471">
        <ele>1566.1199999999999</ele>
        <time>2014-02-23T09:40:54Z</time>
      </trkpt>
      <trkpt lat="45.884741311892867" lon="7.929352149367333">
        <ele>1566.1199999999999</ele>
        <time>2014-02-23T09:41:16Z</time>
      </trkpt>
      <trkpt lat="45.884730666875839" lon="7.929344521835446">
        <ele>1565.6400000000001</ele>
        <time>2014-02-23T09:41:41Z</time>
      </trkpt>
      <trkpt lat="45.884690685197711" lon="7.929320717230439">
        <ele>1566.1199999999999</ele>
        <time>2014-02-23T09:42:02Z</time>
      </trkpt>
      <trkpt lat="45.88468280620873" lon="7.929391209036112">
        <ele>1565.6400000000001</ele>
        <time>2014-02-23T09:42:20Z</time>
      </trkpt>
      <trkpt lat="45.884644500911236" lon="7.929432447999716">
        <ele>1564.6800000000001</ele>
        <time>2014-02-23T09:42:37Z</time>
      </trkpt>
      <trkpt lat="45.884628994390368" lon="7.929458264261484">
        <ele>1564.2</ele>
        <time>2014-02-23T09:42:41Z</time>
      </trkpt>
      <trkpt lat="45.884651876986027" lon="7.929382240399718">
        <ele>1563.24</ele>
        <time>2014-02-23T09:42:57Z</time>
      </trkpt>
      <trkpt lat="45.884683895856142" lon="7.92929389514029">
        <ele>1564.2</ele>
        <time>2014-02-23T09:43:20Z</time>
      </trkpt>
      <trkpt lat="45.884690517559648" lon="7.929295739158988">
        <ele>1563.72</ele>
        <time>2014-02-23T09:43:50Z</time>
      </trkpt>
      <trkpt lat="45.884687835350633" lon="7.929345946758986">
        <ele>1564.2</ele>
        <time>2014-02-23T09:44:12Z</time>
      </trkpt>
      <trkpt lat="45.884701414033771" lon="7.92934812605381">
        <ele>1564.2</ele>
        <time>2014-02-23T09:44:31Z</time>
      </trkpt>
      <trkpt lat="45.884712059050798" lon="7.929307892918587">
        <ele>1564.2</ele>
        <time>2014-02-23T09:44:51Z</time>
      </trkpt>
      <trkpt lat="45.88468573987484" lon="7.929365895688534">
        <ele>1564.2</ele>
        <time>2014-02-23T09:45:04Z</time>
      </trkpt>
      <trkpt lat="45.884650116786361" lon="7.929393472149968">
        <ele>1564.2</ele>
        <time>2014-02-23T09:45:23Z</time>
      </trkpt>
      <trkpt lat="45.884711891412735" lon="7.929321387782693">
        <ele>1566.1199999999999</ele>
        <time>2014-02-23T09:45:37Z</time>
      </trkpt>
      <trkpt lat="45.88474684394896" lon="7.929232958704233">
        <ele>1569.01</ele>
        <time>2014-02-23T09:45:49Z</time>
      </trkpt>
      <trkpt lat="45.884760590270162" lon="7.929181074723601">
        <ele>1570.45</ele>
        <time>2014-02-23T09:46:01Z</time>
      </trkpt>
      <trkpt lat="45.884768888354301" lon="7.929062973707914">
        <ele>1573.8199999999999</ele>
        <time>2014-02-23T09:46:16Z</time>
      </trkpt>
      <trkpt lat="45.884762769564986" lon="7.928958535194397">
        <ele>1575.74</ele>
        <time>2014-02-23T09:46:29Z</time>
      </trkpt>
      <trkpt lat="45.884788669645786" lon="7.928907154127955">
        <ele>1576.7</ele>
        <time>2014-02-23T09:46:49Z</time>
      </trkpt>
      <trkpt lat="45.884862681850791" lon="7.928892401978374">
        <ele>1577.6600000000001</ele>
        <time>2014-02-23T09:47:01Z</time>
      </trkpt>
      <trkpt lat="45.884912637993693" lon="7.928859209641814">
        <ele>1580.0599999999999</ele>
        <time>2014-02-23T09:47:15Z</time>
      </trkpt>
      <trkpt lat="45.884926300495863" lon="7.928781257942319">
        <ele>1581.99</ele>
        <time>2014-02-23T09:47:27Z</time>
      </trkpt>
      <trkpt lat="45.884925378486514" lon="7.9288116004318">
        <ele>1581.99</ele>
        <time>2014-02-23T09:47:47Z</time>
      </trkpt>
      <trkpt lat="45.884944321587682" lon="7.928741443902254">
        <ele>1583.4300000000001</ele>
        <time>2014-02-23T09:48:01Z</time>
      </trkpt>
      <trkpt lat="45.884957313537598" lon="7.928645052015781">
        <ele>1586.3099999999999</ele>
        <time>2014-02-23T09:48:14Z</time>
      </trkpt>
      <trkpt lat="45.884967455640435" lon="7.928496189415455">
        <ele>1589.2</ele>
        <time>2014-02-23T09:48:28Z</time>
      </trkpt>
      <trkpt lat="45.884975753724575" lon="7.928445814177394">
        <ele>1589.6800000000001</ele>
        <time>2014-02-23T09:48:44Z</time>
      </trkpt>
      <trkpt lat="45.884991679340601" lon="7.928412538021803">
        <ele>1590.6400000000001</ele>
        <time>2014-02-23T09:48:57Z</time>
      </trkpt>
      <trkpt lat="45.885070720687509" lon="7.928301310166717">
        <ele>1593.04</ele>
        <time>2014-02-23T09:49:12Z</time>
      </trkpt>
      <trkpt lat="45.885079773142934" lon="7.928225286304951">
        <ele>1595.45</ele>
        <time>2014-02-23T09:49:27Z</time>
      </trkpt>
      <trkpt lat="45.885082958266139" lon="7.928178096190095">
        <ele>1595.9300000000001</ele>
        <time>2014-02-23T09:49:43Z</time>
      </trkpt>
      <trkpt lat="45.885126795619726" lon="7.928127553313971">
        <ele>1598.3299999999999</ele>
        <time>2014-02-23T09:50:00Z</time>
      </trkpt>
      <trkpt lat="45.885127382352948" lon="7.928006183356047">
        <ele>1601.21</ele>
        <time>2014-02-23T09:50:14Z</time>
      </trkpt>
      <trkpt lat="45.885184882208705" lon="7.927977181971073">
        <ele>1603.1400000000001</ele>
        <time>2014-02-23T09:50:28Z</time>
      </trkpt>
      <trkpt lat="45.885251853615046" lon="7.92791792191565">
        <ele>1606.02</ele>
        <time>2014-02-23T09:50:43Z</time>
      </trkpt>
      <trkpt lat="45.885327877476811" lon="7.927863858640194">
        <ele>1608.4200000000001</ele>
        <time>2014-02-23T09:50:56Z</time>
      </trkpt>
      <trkpt lat="45.885363752022386" lon="7.927807280793786">
        <ele>1611.3099999999999</ele>
        <time>2014-02-23T09:51:11Z</time>
      </trkpt>
      <trkpt lat="45.885352687910199" lon="7.927732262760401">
        <ele>1612.27</ele>
        <time>2014-02-23T09:51:19Z</time>
      </trkpt>
      <trkpt lat="45.885369954630733" lon="7.927586333826184">
        <ele>1611.3099999999999</ele>
        <time>2014-02-23T09:51:33Z</time>
      </trkpt>
      <trkpt lat="45.885366937145591" lon="7.927521457895637">
        <ele>1611.3099999999999</ele>
        <time>2014-02-23T09:51:50Z</time>
      </trkpt>
      <trkpt lat="45.885359141975641" lon="7.927425401285291">
        <ele>1611.79</ele>
        <time>2014-02-23T09:52:03Z</time>
      </trkpt>
      <trkpt lat="45.885379845276475" lon="7.927297577261925">
        <ele>1611.3099999999999</ele>
        <time>2014-02-23T09:52:16Z</time>
      </trkpt>
      <trkpt lat="45.885353023186326" lon="7.927221721038222">
        <ele>1610.8299999999999</ele>
        <time>2014-02-23T09:52:32Z</time>
      </trkpt>
      <trkpt lat="45.885316226631403" lon="7.9271624609828">
        <ele>1609.8599999999999</ele>
        <time>2014-02-23T09:52:44Z</time>
      </trkpt>
      <trkpt lat="45.885322764515877" lon="7.927137231454253">
        <ele>1609.3800000000001</ele>
        <time>2014-02-23T09:52:59Z</time>
      </trkpt>
      <trkpt lat="45.885325530543923" lon="7.927159862592816">
        <ele>1608.9000000000001</ele>
        <time>2014-02-23T09:53:20Z</time>
      </trkpt>
      <trkpt lat="45.885342126712203" lon="7.927063386887312">
        <ele>1607.46</ele>
        <time>2014-02-23T09:53:29Z</time>
      </trkpt>
      <trkpt lat="45.885302983224392" lon="7.927045533433557">
        <ele>1606.5</ele>
        <time>2014-02-23T09:53:37Z</time>
      </trkpt>
      <trkpt lat="45.88523643091321" lon="7.927121724933386">
        <ele>1604.0999999999999</ele>
        <time>2014-02-23T09:53:44Z</time>
      </trkpt>
      <trkpt lat="45.885200388729572" lon="7.926972610875964">
        <ele>1601.21</ele>
        <time>2014-02-23T09:53:59Z</time>
      </trkpt>
      <trkpt lat="45.885192761197686" lon="7.926895413547754">
        <ele>1599.77</ele>
        <time>2014-02-23T09:54:06Z</time>
      </trkpt>
      <trkpt lat="45.885167364031076" lon="7.926902286708355">
        <ele>1598.8099999999999</ele>
        <time>2014-02-23T09:54:16Z</time>
      </trkpt>
      <trkpt lat="45.885084047913551" lon="7.926947800442576">
        <ele>1597.3699999999999</ele>
        <time>2014-02-23T09:54:31Z</time>
      </trkpt>
      <trkpt lat="45.885085640475154" lon="7.926916787400842">
        <ele>1597.3699999999999</ele>
        <time>2014-02-23T09:54:49Z</time>
      </trkpt>
      <trkpt lat="45.885059237480164" lon="7.926934808492661">
        <ele>1597.3699999999999</ele>
        <time>2014-02-23T09:55:06Z</time>
      </trkpt>
      <trkpt lat="45.885090921074152" lon="7.926888624206185">
        <ele>1597.3699999999999</ele>
        <time>2014-02-23T09:55:23Z</time>
      </trkpt>
      <trkpt lat="45.885089663788676" lon="7.926909914240241">
        <ele>1596.4100000000001</ele>
        <time>2014-02-23T09:55:33Z</time>
      </trkpt>
      <trkpt lat="45.885086394846439" lon="7.926920475438237">
        <ele>1597.3699999999999</ele>
        <time>2014-02-23T09:55:51Z</time>
      </trkpt>
      <trkpt lat="45.885120341554284" lon="7.926889713853598">
        <ele>1596.8900000000001</ele>
        <time>2014-02-23T09:56:10Z</time>
      </trkpt>
      <trkpt lat="45.885137943550944" lon="7.926842607557774">
        <ele>1596.4100000000001</ele>
        <time>2014-02-23T09:56:18Z</time>
      </trkpt>
      <trkpt lat="45.885146576911211" lon="7.92676717042923">
        <ele>1594.48</ele>
        <time>2014-02-23T09:56:27Z</time>
      </trkpt>
      <trkpt lat="45.885131154209375" lon="7.926753675565124">
        <ele>1594</ele>
        <time>2014-02-23T09:56:30Z</time>
      </trkpt>
      <trkpt lat="45.885100811719894" lon="7.926773708313704">
        <ele>1593.04</ele>
        <time>2014-02-23T09:56:33Z</time>
      </trkpt>
      <trkpt lat="45.885083796456456" lon="7.926806146278977">
        <ele>1593.04</ele>
        <time>2014-02-23T09:56:36Z</time>
      </trkpt>
      <trkpt lat="45.885052364319563" lon="7.926843445748091">
        <ele>1592.0799999999999</ele>
        <time>2014-02-23T09:56:49Z</time>
      </trkpt>
      <trkpt lat="45.884972484782338" lon="7.92688594199717">
        <ele>1591.5999999999999</ele>
        <time>2014-02-23T09:57:05Z</time>
      </trkpt>
      <trkpt lat="45.884951362386346" lon="7.926897089928389">
        <ele>1591.5999999999999</ele>
        <time>2014-02-23T09:57:18Z</time>
      </trkpt>
      <trkpt lat="45.884928982704878" lon="7.926909914240241">
        <ele>1591.1199999999999</ele>
        <time>2014-02-23T09:57:33Z</time>
      </trkpt>
      <trkpt lat="45.884912554174662" lon="7.926933215931058">
        <ele>1591.1199999999999</ele>
        <time>2014-02-23T09:57:44Z</time>
      </trkpt>
      <trkpt lat="45.884817419573665" lon="7.927030697464943">
        <ele>1589.6800000000001</ele>
        <time>2014-02-23T09:58:00Z</time>
      </trkpt>
      <trkpt lat="45.884838290512562" lon="7.927051903679967">
        <ele>1591.1199999999999</ele>
        <time>2014-02-23T09:58:15Z</time>
      </trkpt>
      <trkpt lat="45.884761093184352" lon="7.927059950307012">
        <ele>1591.5999999999999</ele>
        <time>2014-02-23T09:58:27Z</time>
      </trkpt>
      <trkpt lat="45.884651960805058" lon="7.927130023017526">
        <ele>1593.52</ele>
        <time>2014-02-23T09:58:41Z</time>
      </trkpt>
      <trkpt lat="45.884641148149967" lon="7.927134800702334">
        <ele>1593.52</ele>
        <time>2014-02-23T09:58:43Z</time>
      </trkpt>
      <trkpt lat="45.88461684063077" lon="7.927149804309011">
        <ele>1593.04</ele>
        <time>2014-02-23T09:58:52Z</time>
      </trkpt>
      <trkpt lat="45.884602256119251" lon="7.927198503166437">
        <ele>1594</ele>
        <time>2014-02-23T09:59:08Z</time>
      </trkpt>
      <trkpt lat="45.884535787627101" lon="7.927245022729039">
        <ele>1595.45</ele>
        <time>2014-02-23T09:59:24Z</time>
      </trkpt>
      <trkpt lat="45.884464792907238" lon="7.927271509543061">
        <ele>1597.8499999999999</ele>
        <time>2014-02-23T09:59:34Z</time>
      </trkpt>
      <trkpt lat="45.884471582248807" lon="7.927293721586466">
        <ele>1598.8099999999999</ele>
        <time>2014-02-23T09:59:49Z</time>
      </trkpt>
      <trkpt lat="45.884477030485868" lon="7.927294811233878">
        <ele>1598.8099999999999</ele>
        <time>2014-02-23T10:00:05Z</time>
      </trkpt>
      <trkpt lat="45.884469905868173" lon="7.927325572818518">
        <ele>1598.3299999999999</ele>
        <time>2014-02-23T10:00:07Z</time>
      </trkpt>
      <trkpt lat="45.884428834542632" lon="7.927344767376781">
        <ele>1598.3299999999999</ele>
        <time>2014-02-23T10:00:11Z</time>
      </trkpt>
      <trkpt lat="45.88440528139472" lon="7.927347868680954">
        <ele>1598.3299999999999</ele>
        <time>2014-02-23T10:00:13Z</time>
      </trkpt>
      <trkpt lat="45.884350296109915" lon="7.927360022440553">
        <ele>1597.8499999999999</ele>
        <time>2014-02-23T10:00:24Z</time>
      </trkpt>
      <trkpt lat="45.884358007460833" lon="7.927320376038551">
        <ele>1597.8499999999999</ele>
        <time>2014-02-23T10:00:41Z</time>
      </trkpt>
      <trkpt lat="45.884346943348646" lon="7.927327081561089">
        <ele>1597.3699999999999</ele>
        <time>2014-02-23T10:00:57Z</time>
      </trkpt>
      <trkpt lat="45.884332107380033" lon="7.927355747669935">
        <ele>1597.8499999999999</ele>
        <time>2014-02-23T10:01:15Z</time>
      </trkpt>
      <trkpt lat="45.884280558675528" lon="7.927395226433873">
        <ele>1597.8499999999999</ele>
        <time>2014-02-23T10:01:29Z</time>
      </trkpt>
      <trkpt lat="45.884285503998399" lon="7.927397238090634">
        <ele>1597.8499999999999</ele>
        <time>2014-02-23T10:01:52Z</time>
      </trkpt>
      <trkpt lat="45.884317187592387" lon="7.92734426446259">
        <ele>1596.8900000000001</ele>
        <time>2014-02-23T10:02:15Z</time>
      </trkpt>
      <trkpt lat="45.884318361058831" lon="7.927347449585795">
        <ele>1597.3699999999999</ele>
        <time>2014-02-23T10:02:40Z</time>
      </trkpt>
      <trkpt lat="45.884256502613425" lon="7.927396148443222">
        <ele>1597.3699999999999</ele>
        <time>2014-02-23T10:02:53Z</time>
      </trkpt>
      <trkpt lat="45.88426111266017" lon="7.927408888936043">
        <ele>1597.3699999999999</ele>
        <time>2014-02-23T10:02:56Z</time>
      </trkpt>
      <trkpt lat="45.884239738807082" lon="7.927420036867261">
        <ele>1597.3699999999999</ele>
        <time>2014-02-23T10:02:59Z</time>
      </trkpt>
      <trkpt lat="45.884144939482212" lon="7.927523637190461">
        <ele>1596.8900000000001</ele>
        <time>2014-02-23T10:03:11Z</time>
      </trkpt>
      <trkpt lat="45.884131696075201" lon="7.927532438188791">
        <ele>1596.8900000000001</ele>
        <time>2014-02-23T10:03:21Z</time>
      </trkpt>
      <trkpt lat="45.884042512625456" lon="7.927703429013491">
        <ele>1595.9300000000001</ele>
        <time>2014-02-23T10:03:36Z</time>
      </trkpt>
      <trkpt lat="45.883974200114608" lon="7.92785732075572">
        <ele>1594.96</ele>
        <time>2014-02-23T10:03:49Z</time>
      </trkpt>
      <trkpt lat="45.883918879553676" lon="7.928015319630504">
        <ele>1594</ele>
        <time>2014-02-23T10:04:03Z</time>
      </trkpt>
      <trkpt lat="45.883898595348001" lon="7.928113555535674">
        <ele>1594.48</ele>
        <time>2014-02-23T10:04:16Z</time>
      </trkpt>
      <trkpt lat="45.883899265900254" lon="7.928103748708963">
        <ele>1594</ele>
        <time>2014-02-23T10:04:17Z</time>
      </trkpt>
      <trkpt lat="45.883933128789067" lon="7.928025210276246">
        <ele>1594</ele>
        <time>2014-02-23T10:04:30Z</time>
      </trkpt>
      <trkpt lat="45.883939834311604" lon="7.928014229983091">
        <ele>1594</ele>
        <time>2014-02-23T10:04:54Z</time>
      </trkpt>
      <trkpt lat="45.88392005302012" lon="7.928025126457214">
        <ele>1594.48</ele>
        <time>2014-02-23T10:05:01Z</time>
      </trkpt>
      <trkpt lat="45.883896164596081" lon="7.927997633814812">
        <ele>1594.96</ele>
        <time>2014-02-23T10:05:15Z</time>
      </trkpt>
      <trkpt lat="45.883904127404094" lon="7.928021354600787">
        <ele>1594.96</ele>
        <time>2014-02-23T10:05:28Z</time>
      </trkpt>
      <trkpt lat="45.883896080777049" lon="7.927987324073911">
        <ele>1594.96</ele>
        <time>2014-02-23T10:05:47Z</time>
      </trkpt>
      <trkpt lat="45.883918963372707" lon="7.928018672391772">
        <ele>1594.48</ele>
        <time>2014-02-23T10:06:08Z</time>
      </trkpt>
      <trkpt lat="45.883920472115278" lon="7.928022025153041">
        <ele>1594.48</ele>
        <time>2014-02-23T10:06:15Z</time>
      </trkpt>
      <trkpt lat="45.883948802947998" lon="7.928029568865895">
        <ele>1594.96</ele>
        <time>2014-02-23T10:06:29Z</time>
      </trkpt>
      <trkpt lat="45.883903037756681" lon="7.928092097863555">
        <ele>1594.48</ele>
        <time>2014-02-23T10:06:46Z</time>
      </trkpt>
      <trkpt lat="45.883905636146665" lon="7.928073322400451">
        <ele>1594.48</ele>
        <time>2014-02-23T10:07:00Z</time>
      </trkpt>
      <trkpt lat="45.883872779086232" lon="7.928067119792104">
        <ele>1594.48</ele>
        <time>2014-02-23T10:07:15Z</time>
      </trkpt>
      <trkpt lat="45.883878311142325" lon="7.928077261894941">
        <ele>1594.48</ele>
        <time>2014-02-23T10:07:27Z</time>
      </trkpt>
      <trkpt lat="45.883891973644495" lon="7.928079189732671">
        <ele>1594.96</ele>
        <time>2014-02-23T10:07:44Z</time>
      </trkpt>
      <trkpt lat="45.88389758951962" lon="7.928121602162719">
        <ele>1594.48</ele>
        <time>2014-02-23T10:08:00Z</time>
      </trkpt>
      <trkpt lat="45.883894739672542" lon="7.928116992115974">
        <ele>1593.52</ele>
        <time>2014-02-23T10:08:16Z</time>
      </trkpt>
      <trkpt lat="45.883930949494243" lon="7.928091175854206">
        <ele>1593.52</ele>
        <time>2014-02-23T10:08:37Z</time>
      </trkpt>
      <trkpt lat="45.883897505700588" lon="7.928143395110965">
        <ele>1593.52</ele>
        <time>2014-02-23T10:08:53Z</time>
      </trkpt>
      <trkpt lat="45.883913012221456" lon="7.928259400650859">
        <ele>1593.04</ele>
        <time>2014-02-23T10:09:03Z</time>
      </trkpt>
      <trkpt lat="45.884068580344319" lon="7.928464002907276">
        <ele>1594</ele>
        <time>2014-02-23T10:09:26Z</time>
      </trkpt>
      <trkpt lat="45.88430411182344" lon="7.928380435332656">
        <ele>1593.52</ele>
        <time>2014-02-23T10:09:58Z</time>
      </trkpt>
      <trkpt lat="45.883254446089268" lon="7.928088074550033">
        <ele>1593.52</ele>
        <time>2014-02-23T10:11:38Z</time>
      </trkpt>
      <trkpt lat="45.882132863625884" lon="7.927774088457227">
        <ele>1592.5599999999999</ele>
        <time>2014-02-23T10:12:03Z</time>
      </trkpt>
      <trkpt lat="45.882978765293956" lon="7.927807364612818">
        <ele>1594</ele>
        <time>2014-02-23T10:12:19Z</time>
      </trkpt>
      <trkpt lat="45.88383799418807" lon="7.928050691261888">
        <ele>1594</ele>
        <time>2014-02-23T10:12:52Z</time>
      </trkpt>
      <trkpt lat="45.883856266736984" lon="7.928062928840518">
        <ele>1593.52</ele>
        <time>2014-02-23T10:13:19Z</time>
      </trkpt>
      <trkpt lat="45.883877137675881" lon="7.928074495866895">
        <ele>1593.52</ele>
        <time>2014-02-23T10:13:47Z</time>
      </trkpt>
      <trkpt lat="45.883885435760021" lon="7.928073992952704">
        <ele>1593.52</ele>
        <time>2014-02-23T10:14:18Z</time>
      </trkpt>
      <trkpt lat="45.883867498487234" lon="7.928062509745359">
        <ele>1593.52</ele>
        <time>2014-02-23T10:14:54Z</time>
      </trkpt>
      <trkpt lat="45.883838329464197" lon="7.928070807829499">
        <ele>1593.52</ele>
        <time>2014-02-23T10:15:27Z</time>
      </trkpt>
      <trkpt lat="45.883819470182061" lon="7.928064605221152">
        <ele>1594</ele>
        <time>2014-02-23T10:15:50Z</time>
      </trkpt>
      <trkpt lat="45.883843274787068" lon="7.928063683211803">
        <ele>1593.52</ele>
        <time>2014-02-23T10:16:18Z</time>
      </trkpt>
      <trkpt lat="45.883885016664863" lon="7.928077513352037">
        <ele>1594</ele>
        <time>2014-02-23T10:16:52Z</time>
      </trkpt>
      <trkpt lat="45.883917957544327" lon="7.928116489201784">
        <ele>1593.52</ele>
        <time>2014-02-23T10:17:20Z</time>
      </trkpt>
      <trkpt lat="45.883926087990403" lon="7.928078435361385">
        <ele>1594</ele>
        <time>2014-02-23T10:17:30Z</time>
      </trkpt>
      <trkpt lat="45.883913179859519" lon="7.928137192502618">
        <ele>1593.52</ele>
        <time>2014-02-23T10:17:57Z</time>
      </trkpt>
      <trkpt lat="45.883927261456847" lon="7.928138617426157">
        <ele>1593.52</ele>
        <time>2014-02-23T10:18:18Z</time>
      </trkpt>
      <trkpt lat="45.883894739672542" lon="7.928153118118644">
        <ele>1593.52</ele>
        <time>2014-02-23T10:18:47Z</time>
      </trkpt>
      <trkpt lat="45.88390982709825" lon="7.928161919116974">
        <ele>1594</ele>
        <time>2014-02-23T10:19:13Z</time>
      </trkpt>
      <trkpt lat="45.883901864290237" lon="7.928167954087257">
        <ele>1593.52</ele>
        <time>2014-02-23T10:19:38Z</time>
      </trkpt>
      <trkpt lat="45.883839502930641" lon="7.928159488365054">
        <ele>1593.52</ele>
        <time>2014-02-23T10:20:05Z</time>
      </trkpt>
      <trkpt lat="45.883848974481225" lon="7.928129564970732">
        <ele>1594</ele>
        <time>2014-02-23T10:20:31Z</time>
      </trkpt>
      <trkpt lat="45.883891973644495" lon="7.928054463118315">
        <ele>1594.48</ele>
        <time>2014-02-23T10:20:42Z</time>
      </trkpt>
      <trkpt lat="45.883850483223796" lon="7.928093941882253">
        <ele>1594.48</ele>
        <time>2014-02-23T10:20:55Z</time>
      </trkpt>
      <trkpt lat="45.883894991129637" lon="7.928056726232171">
        <ele>1594.96</ele>
        <time>2014-02-23T10:21:06Z</time>
      </trkpt>
      <trkpt lat="45.883901445195079" lon="7.928036358207464">
        <ele>1594.96</ele>
        <time>2014-02-23T10:21:11Z</time>
      </trkpt>
      <trkpt lat="45.883937906473875" lon="7.927945163100958">
        <ele>1594.96</ele>
        <time>2014-02-23T10:21:23Z</time>
      </trkpt>
      <trkpt lat="45.883957101032138" lon="7.927930075675249">
        <ele>1594.48</ele>
        <time>2014-02-23T10:21:25Z</time>
      </trkpt>
      <trkpt lat="45.883968835696578" lon="7.927946504205465">
        <ele>1594.48</ele>
        <time>2014-02-23T10:21:37Z</time>
      </trkpt>
      <trkpt lat="45.883936816826463" lon="7.927949018776417">
        <ele>1594.96</ele>
        <time>2014-02-23T10:21:51Z</time>
      </trkpt>
      <trkpt lat="45.883943689987063" lon="7.927912892773747">
        <ele>1594.96</ele>
        <time>2014-02-23T10:22:07Z</time>
      </trkpt>
      <trkpt lat="45.883950898423791" lon="7.927935691550374">
        <ele>1595.45</ele>
        <time>2014-02-23T10:22:20Z</time>
      </trkpt>
      <trkpt lat="45.883938074111938" lon="7.927912306040525">
        <ele>1595.45</ele>
        <time>2014-02-23T10:22:33Z</time>
      </trkpt>
      <trkpt lat="45.883926674723625" lon="7.927960669621825">
        <ele>1594.96</ele>
        <time>2014-02-23T10:22:58Z</time>
      </trkpt>
      <trkpt lat="45.883913766592741" lon="7.927928986027837">
        <ele>1595.45</ele>
        <time>2014-02-23T10:23:15Z</time>
      </trkpt>
      <trkpt lat="45.883934050798416" lon="7.927939631044865">
        <ele>1595.45</ele>
        <time>2014-02-23T10:23:32Z</time>
      </trkpt>
      <trkpt lat="45.883918711915612" lon="7.92793208733201">
        <ele>1595.45</ele>
        <time>2014-02-23T10:23:50Z</time>
      </trkpt>
      <trkpt lat="45.883934805169702" lon="7.927956059575081">
        <ele>1595.45</ele>
        <time>2014-02-23T10:24:07Z</time>
      </trkpt>
      <trkpt lat="45.883958274498582" lon="7.92792865075171">
        <ele>1595.45</ele>
        <time>2014-02-23T10:24:28Z</time>
      </trkpt>
      <trkpt lat="45.883946539834142" lon="7.927930494770408">
        <ele>1595.45</ele>
        <time>2014-02-23T10:24:44Z</time>
      </trkpt>
      <trkpt lat="45.883963890373707" lon="7.927888752892613">
        <ele>1595.45</ele>
        <time>2014-02-23T10:24:46Z</time>
      </trkpt>
      <trkpt lat="45.884013008326292" lon="7.927811052650213">
        <ele>1595.45</ele>
        <time>2014-02-23T10:24:57Z</time>
      </trkpt>
      <trkpt lat="45.884027592837811" lon="7.927767215296626">
        <ele>1596.4100000000001</ele>
        <time>2014-02-23T10:25:01Z</time>
      </trkpt>
      <trkpt lat="45.884085092693567" lon="7.927706362679601">
        <ele>1596.8900000000001</ele>
        <time>2014-02-23T10:25:17Z</time>
      </trkpt>
      <trkpt lat="45.884046284481883" lon="7.927696639671922">
        <ele>1596.4100000000001</ele>
        <time>2014-02-23T10:25:31Z</time>
      </trkpt>
      <trkpt lat="45.884032705798745" lon="7.927602427080274">
        <ele>1595.9300000000001</ele>
        <time>2014-02-23T10:25:41Z</time>
      </trkpt>
      <trkpt lat="45.884034465998411" lon="7.927620364353061">
        <ele>1597.3699999999999</ele>
        <time>2014-02-23T10:25:54Z</time>
      </trkpt>
      <trkpt lat="45.884050475433469" lon="7.92758759111166">
        <ele>1597.3699999999999</ele>
        <time>2014-02-23T10:26:01Z</time>
      </trkpt>
      <trkpt lat="45.884092804044485" lon="7.927574096247554">
        <ele>1597.8499999999999</ele>
        <time>2014-02-23T10:26:05Z</time>
      </trkpt>
      <trkpt lat="45.884185172617435" lon="7.92745322920382">
        <ele>1598.3299999999999</ele>
        <time>2014-02-23T10:26:20Z</time>
      </trkpt>
      <trkpt lat="45.884189028292894" lon="7.927451217547059">
        <ele>1598.3299999999999</ele>
        <time>2014-02-23T10:26:22Z</time>
      </trkpt>
      <trkpt lat="45.884205456823111" lon="7.927438896149397">
        <ele>1598.3299999999999</ele>
        <time>2014-02-23T10:26:24Z</time>
      </trkpt>
      <trkpt lat="45.884298160672188" lon="7.927340073511004">
        <ele>1598.3299999999999</ele>
        <time>2014-02-23T10:26:34Z</time>
      </trkpt>
      <trkpt lat="45.884370328858495" lon="7.927117869257927">
        <ele>1598.8099999999999</ele>
        <time>2014-02-23T10:26:50Z</time>
      </trkpt>
      <trkpt lat="45.88433395139873" lon="7.926966743543744">
        <ele>1601.21</ele>
        <time>2014-02-23T10:27:05Z</time>
      </trkpt>
      <trkpt lat="45.884317103773355" lon="7.926938747987151">
        <ele>1601.6900000000001</ele>
        <time>2014-02-23T10:27:22Z</time>
      </trkpt>
      <trkpt lat="45.884291874244809" lon="7.926930617541075">
        <ele>1601.21</ele>
        <time>2014-02-23T10:27:41Z</time>
      </trkpt>
      <trkpt lat="45.884294891729951" lon="7.926922990009189">
        <ele>1601.21</ele>
        <time>2014-02-23T10:27:57Z</time>
      </trkpt>
      <trkpt lat="45.884210485965014" lon="7.926762476563454">
        <ele>1602.6600000000001</ele>
        <time>2014-02-23T10:28:11Z</time>
      </trkpt>
      <trkpt lat="45.884163463488221" lon="7.926611769944429">
        <ele>1603.6199999999999</ele>
        <time>2014-02-23T10:28:21Z</time>
      </trkpt>
      <trkpt lat="45.884135216474533" lon="7.926375651732087">
        <ele>1605.54</ele>
        <time>2014-02-23T10:28:37Z</time>
      </trkpt>
      <trkpt lat="45.884146699681878" lon="7.926221173256636">
        <ele>1606.98</ele>
        <time>2014-02-23T10:28:48Z</time>
      </trkpt>
      <trkpt lat="45.884165223687887" lon="7.926072310656309">
        <ele>1606.98</ele>
        <time>2014-02-23T10:28:58Z</time>
      </trkpt>
      <trkpt lat="45.884164804592729" lon="7.925962591543794">
        <ele>1607.46</ele>
        <time>2014-02-23T10:29:07Z</time>
      </trkpt>
      <trkpt lat="45.884150974452496" lon="7.925772070884705">
        <ele>1608.9000000000001</ele>
        <time>2014-02-23T10:29:21Z</time>
      </trkpt>
      <trkpt lat="45.884175533428788" lon="7.925659082829952">
        <ele>1610.3499999999999</ele>
        <time>2014-02-23T10:29:32Z</time>
      </trkpt>
      <trkpt lat="45.884154662489891" lon="7.925615077838302">
        <ele>1610.8299999999999</ele>
        <time>2014-02-23T10:29:35Z</time>
      </trkpt>
      <trkpt lat="45.884150555357337" lon="7.925564954057336">
        <ele>1610.3499999999999</ele>
        <time>2014-02-23T10:29:38Z</time>
      </trkpt>
      <trkpt lat="45.884168995544314" lon="7.925378289073706">
        <ele>1612.75</ele>
        <time>2014-02-23T10:29:52Z</time>
      </trkpt>
      <trkpt lat="45.884195063263178" lon="7.925294553861022">
        <ele>1613.71</ele>
        <time>2014-02-23T10:30:00Z</time>
      </trkpt>
      <trkpt lat="45.88428164832294" lon="7.9251161031425">
        <ele>1613.71</ele>
        <time>2014-02-23T10:30:13Z</time>
      </trkpt>
      <trkpt lat="45.884312661364675" lon="7.925020297989249">
        <ele>1614.1900000000001</ele>
        <time>2014-02-23T10:30:19Z</time>
      </trkpt>
      <trkpt lat="45.884312577545643" lon="7.924930779263377">
        <ele>1614.6700000000001</ele>
        <time>2014-02-23T10:30:25Z</time>
      </trkpt>
      <trkpt lat="45.884383320808411" lon="7.92479750700295">
        <ele>1614.6700000000001</ele>
        <time>2014-02-23T10:30:39Z</time>
      </trkpt>
      <trkpt lat="45.884424895048141" lon="7.924711089581251">
        <ele>1614.1900000000001</ele>
        <time>2014-02-23T10:30:53Z</time>
      </trkpt>
      <trkpt lat="45.884472336620092" lon="7.924585612490773">
        <ele>1615.1500000000001</ele>
        <time>2014-02-23T10:31:04Z</time>
      </trkpt>
      <trkpt lat="45.884494045749307" lon="7.924510259181261">
        <ele>1615.1500000000001</ele>
        <time>2014-02-23T10:31:09Z</time>
      </trkpt>
      <trkpt lat="45.884522292762995" lon="7.924387715756893">
        <ele>1616.1099999999999</ele>
        <time>2014-02-23T10:31:18Z</time>
      </trkpt>
      <trkpt lat="45.884572584182024" lon="7.924314709380269">
        <ele>1616.5899999999999</ele>
        <time>2014-02-23T10:31:26Z</time>
      </trkpt>
      <trkpt lat="45.884623127058148" lon="7.924268189817667">
        <ele>1617.0699999999999</ele>
        <time>2014-02-23T10:31:33Z</time>
      </trkpt>
      <trkpt lat="45.884720692411065" lon="7.924121506512165">
        <ele>1618.04</ele>
        <time>2014-02-23T10:31:49Z</time>
      </trkpt>
      <trkpt lat="45.884807026013732" lon="7.924020420759916">
        <ele>1619</ele>
        <time>2014-02-23T10:32:01Z</time>
      </trkpt>
      <trkpt lat="45.884889084845781" lon="7.923914389684796">
        <ele>1618.52</ele>
        <time>2014-02-23T10:32:11Z</time>
      </trkpt>
      <trkpt lat="45.884977346286178" lon="7.923773489892483">
        <ele>1619</ele>
        <time>2014-02-23T10:32:23Z</time>
      </trkpt>
      <trkpt lat="45.885024452582002" lon="7.923635188490152">
        <ele>1619.96</ele>
        <time>2014-02-23T10:32:38Z</time>
      </trkpt>
      <trkpt lat="45.885082120075822" lon="7.923535443842411">
        <ele>1620.9200000000001</ele>
        <time>2014-02-23T10:32:50Z</time>
      </trkpt>
      <trkpt lat="45.885140877217054" lon="7.923431424424052">
        <ele>1622.8399999999999</ele>
        <time>2014-02-23T10:33:01Z</time>
      </trkpt>
      <trkpt lat="45.885160323232412" lon="7.923359423875809">
        <ele>1623.3199999999999</ele>
        <time>2014-02-23T10:33:08Z</time>
      </trkpt>
      <trkpt lat="45.885222349315882" lon="7.923237131908536">
        <ele>1623.8</ele>
        <time>2014-02-23T10:33:21Z</time>
      </trkpt>
      <trkpt lat="45.885246992111206" lon="7.923206118866801">
        <ele>1624.28</ele>
        <time>2014-02-23T10:33:26Z</time>
      </trkpt>
      <trkpt lat="45.885335337370634" lon="7.923086090013385">
        <ele>1626.21</ele>
        <time>2014-02-23T10:33:41Z</time>
      </trkpt>
      <trkpt lat="45.885333744809031" lon="7.923022219911218">
        <ele>1627.1700000000001</ele>
        <time>2014-02-23T10:33:47Z</time>
      </trkpt>
      <trkpt lat="45.885315891355276" lon="7.922943597659469">
        <ele>1626.6900000000001</ele>
        <time>2014-02-23T10:33:53Z</time>
      </trkpt>
      <trkpt lat="45.885384203866124" lon="7.922793813049793">
        <ele>1628.1300000000001</ele>
        <time>2014-02-23T10:34:07Z</time>
      </trkpt>
      <trkpt lat="45.885407505556941" lon="7.922680741176009">
        <ele>1627.6500000000001</ele>
        <time>2014-02-23T10:34:22Z</time>
      </trkpt>
      <trkpt lat="45.885448576882482" lon="7.922537662088871">
        <ele>1628.1300000000001</ele>
        <time>2014-02-23T10:34:32Z</time>
      </trkpt>
      <trkpt lat="45.885470286011696" lon="7.922484185546637">
        <ele>1628.6099999999999</ele>
        <time>2014-02-23T10:34:36Z</time>
      </trkpt>
      <trkpt lat="45.885482188314199" lon="7.922453591600061">
        <ele>1628.6099999999999</ele>
        <time>2014-02-23T10:34:38Z</time>
      </trkpt>
      <trkpt lat="45.885527618229389" lon="7.922257706522942">
        <ele>1629.0899999999999</ele>
        <time>2014-02-23T10:34:52Z</time>
      </trkpt>
      <trkpt lat="45.885531641542912" lon="7.922245217487216">
        <ele>1629.0899999999999</ele>
        <time>2014-02-23T10:34:53Z</time>
      </trkpt>
      <trkpt lat="45.885567180812359" lon="7.922073388472199">
        <ele>1629.0899999999999</ele>
        <time>2014-02-23T10:35:05Z</time>
      </trkpt>
      <trkpt lat="45.885610096156597" lon="7.921945480629802">
        <ele>1631.98</ele>
        <time>2014-02-23T10:35:20Z</time>
      </trkpt>
      <trkpt lat="45.885634068399668" lon="7.921843975782394">
        <ele>1632.9400000000001</ele>
        <time>2014-02-23T10:35:32Z</time>
      </trkpt>
      <trkpt lat="45.885620322078466" lon="7.921800222247839">
        <ele>1633.4200000000001</ele>
        <time>2014-02-23T10:35:47Z</time>
      </trkpt>
      <trkpt lat="45.885671284049749" lon="7.921709278598428">
        <ele>1634.8599999999999</ele>
        <time>2014-02-23T10:35:59Z</time>
      </trkpt>
      <trkpt lat="45.885720150545239" lon="7.921640630811453">
        <ele>1636.3</ele>
        <time>2014-02-23T10:36:06Z</time>
      </trkpt>
      <trkpt lat="45.885793743655086" lon="7.921489924192429">
        <ele>1638.22</ele>
        <time>2014-02-23T10:36:20Z</time>
      </trkpt>
      <trkpt lat="45.885820733383298" lon="7.921451032161713">
        <ele>1639.1900000000001</ele>
        <time>2014-02-23T10:36:26Z</time>
      </trkpt>
      <trkpt lat="45.88590388186276" lon="7.921401327475905">
        <ele>1639.6700000000001</ele>
        <time>2014-02-23T10:36:37Z</time>
      </trkpt>
      <trkpt lat="45.885961130261421" lon="7.921249028295279">
        <ele>1642.0699999999999</ele>
        <time>2014-02-23T10:36:53Z</time>
      </trkpt>
      <trkpt lat="45.886009661480784" lon="7.921168813481927">
        <ele>1642.0699999999999</ele>
        <time>2014-02-23T10:37:06Z</time>
      </trkpt>
      <trkpt lat="45.885988119989634" lon="7.921216674149036">
        <ele>1642.55</ele>
        <time>2014-02-23T10:37:27Z</time>
      </trkpt>
      <trkpt lat="45.886016534641385" lon="7.92100427672267">
        <ele>1643.51</ele>
        <time>2014-02-23T10:37:41Z</time>
      </trkpt>
      <trkpt lat="45.886015947908163" lon="7.921000337228179">
        <ele>1643.99</ele>
        <time>2014-02-23T10:38:09Z</time>
      </trkpt>
      <trkpt lat="45.886035561561584" lon="7.921012323349714">
        <ele>1643.51</ele>
        <time>2014-02-23T10:38:34Z</time>
      </trkpt>
      <trkpt lat="45.886077806353569" lon="7.920978795737028">
        <ele>1643.03</ele>
        <time>2014-02-23T10:38:47Z</time>
      </trkpt>
      <trkpt lat="45.886091468855739" lon="7.920921128243208">
        <ele>1643.99</ele>
        <time>2014-02-23T10:38:52Z</time>
      </trkpt>
      <trkpt lat="45.886128349229693" lon="7.920737648382783">
        <ele>1643.99</ele>
        <time>2014-02-23T10:39:05Z</time>
      </trkpt>
      <trkpt lat="45.886123823001981" lon="7.920721806585789">
        <ele>1644.47</ele>
        <time>2014-02-23T10:39:07Z</time>
      </trkpt>
      <trkpt lat="45.886121727526188" lon="7.920695906504989">
        <ele>1644.47</ele>
        <time>2014-02-23T10:39:09Z</time>
      </trkpt>
      <trkpt lat="45.886143688112497" lon="7.920530950650573">
        <ele>1644.47</ele>
        <time>2014-02-23T10:39:22Z</time>
      </trkpt>
      <trkpt lat="45.886139497160912" lon="7.920305477455258">
        <ele>1645.4300000000001</ele>
        <time>2014-02-23T10:39:37Z</time>
      </trkpt>
      <trkpt lat="45.886145532131195" lon="7.920281505212188">
        <ele>1645.4300000000001</ele>
        <time>2014-02-23T10:39:39Z</time>
      </trkpt>
      <trkpt lat="45.886155674234033" lon="7.920185700058937">
        <ele>1645.9100000000001</ele>
        <time>2014-02-23T10:39:45Z</time>
      </trkpt>
      <trkpt lat="45.886171348392963" lon="7.920032981783152">
        <ele>1645.9100000000001</ele>
        <time>2014-02-23T10:39:57Z</time>
      </trkpt>
      <trkpt lat="45.886229854077101" lon="7.919890992343426">
        <ele>1646.8800000000001</ele>
        <time>2014-02-23T10:40:09Z</time>
      </trkpt>
      <trkpt lat="45.886264806613326" lon="7.919831648468971">
        <ele>1647.3599999999999</ele>
        <time>2014-02-23T10:40:15Z</time>
      </trkpt>
      <trkpt lat="45.886279894039035" lon="7.919802814722061">
        <ele>1646.8800000000001</ele>
        <time>2014-02-23T10:40:31Z</time>
      </trkpt>
      <trkpt lat="45.886292215436697" lon="7.919856542721391">
        <ele>1647.3599999999999</ele>
        <time>2014-02-23T10:40:47Z</time>
      </trkpt>
      <trkpt lat="45.886304369196296" lon="7.919790660962462">
        <ele>1647.3599999999999</ele>
        <time>2014-02-23T10:41:05Z</time>
      </trkpt>
      <trkpt lat="45.886375783011317" lon="7.919578514993191">
        <ele>1648.8</ele>
        <time>2014-02-23T10:41:18Z</time>
      </trkpt>
      <trkpt lat="45.886406376957893" lon="7.919475166127086">
        <ele>1649.76</ele>
        <time>2014-02-23T10:41:26Z</time>
      </trkpt>
      <trkpt lat="45.8864492084831" lon="7.919351197779179">
        <ele>1650.72</ele>
        <time>2014-02-23T10:41:35Z</time>
      </trkpt>
      <trkpt lat="45.886503523215652" lon="7.919287076219916">
        <ele>1651.6800000000001</ele>
        <time>2014-02-23T10:41:41Z</time>
      </trkpt>
      <trkpt lat="45.886594634503126" lon="7.919163526967168">
        <ele>1652.6400000000001</ele>
        <time>2014-02-23T10:41:52Z</time>
      </trkpt>
      <trkpt lat="45.886701419949532" lon="7.919067721813917">
        <ele>1654.0899999999999</ele>
        <time>2014-02-23T10:42:05Z</time>
      </trkpt>
      <trkpt lat="45.886714495718479" lon="7.919064955785871">
        <ele>1654.5699999999999</ele>
        <time>2014-02-23T10:42:07Z</time>
      </trkpt>
      <trkpt lat="45.886761350557208" lon="7.919026147574186">
        <ele>1655.53</ele>
        <time>2014-02-23T10:42:14Z</time>
      </trkpt>
      <trkpt lat="45.886800913140178" lon="7.91894668713212">
        <ele>1656.49</ele>
        <time>2014-02-23T10:42:23Z</time>
      </trkpt>
      <trkpt lat="45.886893616989255" lon="7.918879296630621">
        <ele>1657.45</ele>
        <time>2014-02-23T10:42:37Z</time>
      </trkpt>
      <trkpt lat="45.886936616152525" lon="7.918887762352824">
        <ele>1657.45</ele>
        <time>2014-02-23T10:42:50Z</time>
      </trkpt>
      <trkpt lat="45.886945500969887" lon="7.918900670483708">
        <ele>1657.9300000000001</ele>
        <time>2014-02-23T10:43:09Z</time>
      </trkpt>
      <trkpt lat="45.887020519003272" lon="7.918846439570189">
        <ele>1658.8900000000001</ele>
        <time>2014-02-23T10:43:19Z</time>
      </trkpt>
      <trkpt lat="45.887018591165543" lon="7.91882649064064">
        <ele>1658.8900000000001</ele>
        <time>2014-02-23T10:43:35Z</time>
      </trkpt>
      <trkpt lat="45.887026637792587" lon="7.91880888864398">
        <ele>1659.3699999999999</ele>
        <time>2014-02-23T10:43:48Z</time>
      </trkpt>
      <trkpt lat="45.887031331658363" lon="7.918832860887051">
        <ele>1659.3699999999999</ele>
        <time>2014-02-23T10:44:05Z</time>
      </trkpt>
      <trkpt lat="45.887025967240334" lon="7.918816264718771">
        <ele>1659.3699999999999</ele>
        <time>2014-02-23T10:44:20Z</time>
      </trkpt>
      <trkpt lat="45.887064272537827" lon="7.918842500075698">
        <ele>1659.8499999999999</ele>
        <time>2014-02-23T10:44:43Z</time>
      </trkpt>
      <trkpt lat="45.887069888412952" lon="7.918824227526784">
        <ele>1659.3699999999999</ele>
        <time>2014-02-23T10:45:07Z</time>
      </trkpt>
      <trkpt lat="45.887047005817294" lon="7.918842667713761">
        <ele>1659.8499999999999</ele>
        <time>2014-02-23T10:45:21Z</time>
      </trkpt>
      <trkpt lat="45.887061841785908" lon="7.918861946091056">
        <ele>1659.8499999999999</ele>
        <time>2014-02-23T10:45:34Z</time>
      </trkpt>
      <trkpt lat="45.887073324993253" lon="7.91885431855917">
        <ele>1659.8499999999999</ele>
        <time>2014-02-23T10:45:53Z</time>
      </trkpt>
      <trkpt lat="45.887106014415622" lon="7.918848618865013">
        <ele>1660.8099999999999</ele>
        <time>2014-02-23T10:46:04Z</time>
      </trkpt>
      <trkpt lat="45.887134345248342" lon="7.91884015314281">
        <ele>1659.8499999999999</ele>
        <time>2014-02-23T10:46:19Z</time>
      </trkpt>
      <trkpt lat="45.887108026072383" lon="7.918840823695064">
        <ele>1659.8499999999999</ele>
        <time>2014-02-23T10:46:41Z</time>
      </trkpt>
      <trkpt lat="45.887068714946508" lon="7.918821545317769">
        <ele>1660.3299999999999</ele>
        <time>2014-02-23T10:47:08Z</time>
      </trkpt>
      <trkpt lat="45.887042311951518" lon="7.918861275538802">
        <ele>1659.8499999999999</ele>
        <time>2014-02-23T10:47:24Z</time>
      </trkpt>
      <trkpt lat="45.887041725218296" lon="7.918857000768185">
        <ele>1660.3299999999999</ele>
        <time>2014-02-23T10:47:45Z</time>
      </trkpt>
      <trkpt lat="45.887044575065374" lon="7.918830513954163">
        <ele>1661.3</ele>
        <time>2014-02-23T10:48:03Z</time>
      </trkpt>
      <trkpt lat="45.887041306123137" lon="7.918853061273694">
        <ele>1661.3</ele>
        <time>2014-02-23T10:48:17Z</time>
      </trkpt>
      <trkpt lat="45.887056980282068" lon="7.918830765411258">
        <ele>1661.78</ele>
        <time>2014-02-23T10:48:27Z</time>
      </trkpt>
      <trkpt lat="45.887123951688409" lon="7.918815342709422">
        <ele>1661.78</ele>
        <time>2014-02-23T10:48:45Z</time>
      </trkpt>
      <trkpt lat="45.887101320549846" lon="7.918831687420607">
        <ele>1661.78</ele>
        <time>2014-02-23T10:48:47Z</time>
      </trkpt>
      <trkpt lat="45.887079779058695" lon="7.91884945705533">
        <ele>1661.3</ele>
        <time>2014-02-23T10:48:49Z</time>
      </trkpt>
      <trkpt lat="45.887037115171552" lon="7.918856497853994">
        <ele>1660.8099999999999</ele>
        <time>2014-02-23T10:49:02Z</time>
      </trkpt>
      <trkpt lat="45.887009454891086" lon="7.918839566409588">
        <ele>1661.3</ele>
        <time>2014-02-23T10:49:18Z</time>
      </trkpt>
      <trkpt lat="45.887088915333152" lon="7.91878935880959">
        <ele>1662.26</ele>
        <time>2014-02-23T10:49:32Z</time>
      </trkpt>
      <trkpt lat="45.887161921709776" lon="7.918737977743149">
        <ele>1662.74</ele>
        <time>2014-02-23T10:49:40Z</time>
      </trkpt>
      <trkpt lat="45.887179272249341" lon="7.918715011328459">
        <ele>1662.74</ele>
        <time>2014-02-23T10:49:42Z</time>
      </trkpt>
      <trkpt lat="45.887263845652342" lon="7.918625827878714">
        <ele>1665.1400000000001</ele>
        <time>2014-02-23T10:49:55Z</time>
      </trkpt>
      <trkpt lat="45.887344563379884" lon="7.918546870350838">
        <ele>1667.0599999999999</ele>
        <time>2014-02-23T10:50:08Z</time>
      </trkpt>
      <trkpt lat="45.887352526187897" lon="7.918541254475713">
        <ele>1667.54</ele>
        <time>2014-02-23T10:50:09Z</time>
      </trkpt>
      <trkpt lat="45.887431316077709" lon="7.918449891731143">
        <ele>1669.95</ele>
        <time>2014-02-23T10:50:21Z</time>
      </trkpt>
      <trkpt lat="45.887489318847656" lon="7.918387949466705">
        <ele>1670.9100000000001</ele>
        <time>2014-02-23T10:50:28Z</time>
      </trkpt>
      <trkpt lat="45.887500215321779" lon="7.918361462652683">
        <ele>1670.9100000000001</ele>
        <time>2014-02-23T10:50:30Z</time>
      </trkpt>
      <trkpt lat="45.887557379901409" lon="7.91823573410511">
        <ele>1671.8699999999999</ele>
        <time>2014-02-23T10:50:43Z</time>
      </trkpt>
      <trkpt lat="45.887679168954492" lon="7.918089721351862">
        <ele>1673.79</ele>
        <time>2014-02-23T10:51:01Z</time>
      </trkpt>
      <trkpt lat="45.887771369889379" lon="7.917987294495106">
        <ele>1674.75</ele>
        <time>2014-02-23T10:51:11Z</time>
      </trkpt>
      <trkpt lat="45.887810429558158" lon="7.917926693335176">
        <ele>1675.23</ele>
        <time>2014-02-23T10:51:18Z</time>
      </trkpt>
      <trkpt lat="45.887883435934782" lon="7.917788056656718">
        <ele>1675.23</ele>
        <time>2014-02-23T10:51:31Z</time>
      </trkpt>
      <trkpt lat="45.887972535565495" lon="7.917699962854385">
        <ele>1677.6400000000001</ele>
        <time>2014-02-23T10:51:46Z</time>
      </trkpt>
      <trkpt lat="45.888031544163823" lon="7.917546490207315">
        <ele>1678.1199999999999</ele>
        <time>2014-02-23T10:52:00Z</time>
      </trkpt>
      <trkpt lat="45.888052918016911" lon="7.917416403070092">
        <ele>1679.0799999999999</ele>
        <time>2014-02-23T10:52:13Z</time>
      </trkpt>
      <trkpt lat="45.888058952987194" lon="7.917251279577613">
        <ele>1681</ele>
        <time>2014-02-23T10:52:28Z</time>
      </trkpt>
      <trkpt lat="45.888073705136776" lon="7.917060339823365">
        <ele>1682.4400000000001</ele>
        <time>2014-02-23T10:52:42Z</time>
      </trkpt>
      <trkpt lat="45.888047972694039" lon="7.916870405897498">
        <ele>1684.3699999999999</ele>
        <time>2014-02-23T10:52:56Z</time>
      </trkpt>
      <trkpt lat="45.888051744550467" lon="7.916808295994997">
        <ele>1684.8499999999999</ele>
        <time>2014-02-23T10:53:00Z</time>
      </trkpt>
      <trkpt lat="45.888154255226254" lon="7.916683321818709">
        <ele>1686.77</ele>
        <time>2014-02-23T10:53:14Z</time>
      </trkpt>
      <trkpt lat="45.88826104067266" lon="7.916602352634072">
        <ele>1687.73</ele>
        <time>2014-02-23T10:53:29Z</time>
      </trkpt>
      <trkpt lat="45.888332538306713" lon="7.916485676541925">
        <ele>1690.1400000000001</ele>
        <time>2014-02-23T10:53:42Z</time>
      </trkpt>
      <trkpt lat="45.888330526649952" lon="7.91637159883976">
        <ele>1691.5799999999999</ele>
        <time>2014-02-23T10:53:51Z</time>
      </trkpt>
      <trkpt lat="45.888403533026576" lon="7.916248049587011">
        <ele>1692.54</ele>
        <time>2014-02-23T10:54:03Z</time>
      </trkpt>
      <trkpt lat="45.888477126136422" lon="7.916144616901875">
        <ele>1693.02</ele>
        <time>2014-02-23T10:54:12Z</time>
      </trkpt>
      <trkpt lat="45.888513000681996" lon="7.915982259437442">
        <ele>1696.3800000000001</ele>
        <time>2014-02-23T10:54:24Z</time>
      </trkpt>
      <trkpt lat="45.888514928519726" lon="7.915851837024093">
        <ele>1698.79</ele>
        <time>2014-02-23T10:54:36Z</time>
      </trkpt>
      <trkpt lat="45.8885283395648" lon="7.915811771526933">
        <ele>1699.27</ele>
        <time>2014-02-23T10:54:40Z</time>
      </trkpt>
      <trkpt lat="45.88860453106463" lon="7.915713870897889">
        <ele>1701.1900000000001</ele>
        <time>2014-02-23T10:54:53Z</time>
      </trkpt>
      <trkpt lat="45.888693798333406" lon="7.915568947792053">
        <ele>1702.6300000000001</ele>
        <time>2014-02-23T10:55:06Z</time>
      </trkpt>
      <trkpt lat="45.88875699788332" lon="7.915437771007419">
        <ele>1705.04</ele>
        <time>2014-02-23T10:55:21Z</time>
      </trkpt>
      <trkpt lat="45.88880049996078" lon="7.915300140157342">
        <ele>1707.4400000000001</ele>
        <time>2014-02-23T10:55:34Z</time>
      </trkpt>
      <trkpt lat="45.888830507174134" lon="7.915289662778378">
        <ele>1707.9200000000001</ele>
        <time>2014-02-23T10:55:45Z</time>
      </trkpt>
      <trkpt lat="45.888879625126719" lon="7.91519595310092">
        <ele>1708.8800000000001</ele>
        <time>2014-02-23T10:55:59Z</time>
      </trkpt>
      <trkpt lat="45.888918433338404" lon="7.915100315585733">
        <ele>1710.8</ele>
        <time>2014-02-23T10:56:08Z</time>
      </trkpt>
      <trkpt lat="45.888940058648586" lon="7.915048431605101">
        <ele>1710.3199999999999</ele>
        <time>2014-02-23T10:56:12Z</time>
      </trkpt>
      <trkpt lat="45.888997223228216" lon="7.9148602578789">
        <ele>1712.25</ele>
        <time>2014-02-23T10:56:25Z</time>
      </trkpt>
      <trkpt lat="45.888998061418533" lon="7.914847517386079">
        <ele>1712.25</ele>
        <time>2014-02-23T10:56:26Z</time>
      </trkpt>
      <trkpt lat="45.889045922085643" lon="7.914621876552701">
        <ele>1714.1700000000001</ele>
        <time>2014-02-23T10:56:42Z</time>
      </trkpt>
      <trkpt lat="45.889082215726376" lon="7.914474774152041">
        <ele>1716.5699999999999</ele>
        <time>2014-02-23T10:56:56Z</time>
      </trkpt>
      <trkpt lat="45.889083305373788" lon="7.914483323693276">
        <ele>1716.5699999999999</ele>
        <time>2014-02-23T10:57:03Z</time>
      </trkpt>
      <trkpt lat="45.889114821329713" lon="7.914316775277257">
        <ele>1717.53</ele>
        <time>2014-02-23T10:57:17Z</time>
      </trkpt>
      <trkpt lat="45.889143152162433" lon="7.914302609860897">
        <ele>1718.49</ele>
        <time>2014-02-23T10:57:20Z</time>
      </trkpt>
      <trkpt lat="45.889156730845571" lon="7.914294144138694">
        <ele>1718.01</ele>
        <time>2014-02-23T10:57:22Z</time>
      </trkpt>
      <trkpt lat="45.889238119125366" lon="7.914148215204477">
        <ele>1719.9400000000001</ele>
        <time>2014-02-23T10:57:36Z</time>
      </trkpt>
      <trkpt lat="45.889241807162762" lon="7.914129691198468">
        <ele>1720.9000000000001</ele>
        <time>2014-02-23T10:57:38Z</time>
      </trkpt>
      <trkpt lat="45.889243232086301" lon="7.914081327617168">
        <ele>1723.78</ele>
        <time>2014-02-23T10:57:48Z</time>
      </trkpt>
      <trkpt lat="45.889230826869607" lon="7.914023660123348">
        <ele>1726.6700000000001</ele>
        <time>2014-02-23T10:57:59Z</time>
      </trkpt>
      <trkpt lat="45.889259157702327" lon="7.914040256291628">
        <ele>1726.6700000000001</ele>
        <time>2014-02-23T10:58:02Z</time>
      </trkpt>
      <trkpt lat="45.889299474656582" lon="7.9140814114362">
        <ele>1726.6700000000001</ele>
        <time>2014-02-23T10:58:18Z</time>
      </trkpt>
      <trkpt lat="45.889329733327031" lon="7.914010500535369">
        <ele>1728.5899999999999</ele>
        <time>2014-02-23T10:58:38Z</time>
      </trkpt>
      <trkpt lat="45.889361752197146" lon="7.913866247981787">
        <ele>1731.47</ele>
        <time>2014-02-23T10:58:52Z</time>
      </trkpt>
      <trkpt lat="45.88935705833137" lon="7.91379701346159">
        <ele>1734.8399999999999</ele>
        <time>2014-02-23T10:59:05Z</time>
      </trkpt>
      <trkpt lat="45.889332415536046" lon="7.913708332926035">
        <ele>1736.28</ele>
        <time>2014-02-23T10:59:23Z</time>
      </trkpt>
      <trkpt lat="45.889380360022187" lon="7.913643540814519">
        <ele>1739.1600000000001</ele>
        <time>2014-02-23T10:59:35Z</time>
      </trkpt>
      <trkpt lat="45.889360411092639" lon="7.913673883304">
        <ele>1739.1600000000001</ele>
        <time>2014-02-23T10:59:52Z</time>
      </trkpt>
      <trkpt lat="45.889340545982122" lon="7.913730880245566">
        <ele>1739.1600000000001</ele>
        <time>2014-02-23T11:00:16Z</time>
      </trkpt>
      <trkpt lat="45.889286566525698" lon="7.913718810304999">
        <ele>1740.5999999999999</ele>
        <time>2014-02-23T11:00:39Z</time>
      </trkpt>
      <trkpt lat="45.889283968135715" lon="7.913742531090975">
        <ele>1740.5999999999999</ele>
        <time>2014-02-23T11:00:57Z</time>
      </trkpt>
      <trkpt lat="45.889243986457586" lon="7.913733143359423">
        <ele>1741.0799999999999</ele>
        <time>2014-02-23T11:01:14Z</time>
      </trkpt>
      <trkpt lat="45.889201490208507" lon="7.913665249943733">
        <ele>1741.5699999999999</ele>
        <time>2014-02-23T11:01:27Z</time>
      </trkpt>
      <trkpt lat="45.889158407226205" lon="7.91359324939549">
        <ele>1744.9300000000001</ele>
        <time>2014-02-23T11:01:41Z</time>
      </trkpt>
      <trkpt lat="45.889079868793488" lon="7.913509095087647">
        <ele>1747.3299999999999</ele>
        <time>2014-02-23T11:01:55Z</time>
      </trkpt>
      <trkpt lat="45.889051705598831" lon="7.913469364866614">
        <ele>1749.26</ele>
        <time>2014-02-23T11:02:01Z</time>
      </trkpt>
      <trkpt lat="45.888985237106681" lon="7.913404321298003">
        <ele>1752.1400000000001</ele>
        <time>2014-02-23T11:02:13Z</time>
      </trkpt>
      <trkpt lat="45.888990769162774" lon="7.913331650197506">
        <ele>1754.0599999999999</ele>
        <time>2014-02-23T11:02:20Z</time>
      </trkpt>
      <trkpt lat="45.889058075845242" lon="7.913253447040916">
        <ele>1756.95</ele>
        <time>2014-02-23T11:02:33Z</time>
      </trkpt>
      <trkpt lat="45.889012478291988" lon="7.913198713213205">
        <ele>1759.8299999999999</ele>
        <time>2014-02-23T11:02:43Z</time>
      </trkpt>
      <trkpt lat="45.888950368389487" lon="7.913138531148434">
        <ele>1761.75</ele>
        <time>2014-02-23T11:02:56Z</time>
      </trkpt>
      <trkpt lat="45.888957576826215" lon="7.913138782605529">
        <ele>1761.75</ele>
        <time>2014-02-23T11:03:11Z</time>
      </trkpt>
      <trkpt lat="45.888937711715698" lon="7.91309142485261">
        <ele>1763.6800000000001</ele>
        <time>2014-02-23T11:03:30Z</time>
      </trkpt>
      <trkpt lat="45.888871913775802" lon="7.913044989109039">
        <ele>1766.0799999999999</ele>
        <time>2014-02-23T11:03:43Z</time>
      </trkpt>
      <trkpt lat="45.88889773003757" lon="7.912946585565805">
        <ele>1768.48</ele>
        <time>2014-02-23T11:03:56Z</time>
      </trkpt>
      <trkpt lat="45.888884318992496" lon="7.912896713241935">
        <ele>1771.3699999999999</ele>
        <time>2014-02-23T11:04:07Z</time>
      </trkpt>
      <trkpt lat="45.888855317607522" lon="7.912878273054957">
        <ele>1773.29</ele>
        <time>2014-02-23T11:04:20Z</time>
      </trkpt>
      <trkpt lat="45.888794297352433" lon="7.912789341062307">
        <ele>1775.21</ele>
        <time>2014-02-23T11:04:35Z</time>
      </trkpt>
      <trkpt lat="45.888746688142419" lon="7.912724800407887">
        <ele>1778.5799999999999</ele>
        <time>2014-02-23T11:04:48Z</time>
      </trkpt>
      <trkpt lat="45.888736043125391" lon="7.912626061588526">
        <ele>1781.46</ele>
        <time>2014-02-23T11:05:03Z</time>
      </trkpt>
      <trkpt lat="45.88871743530035" lon="7.912529250606895">
        <ele>1783.8599999999999</ele>
        <time>2014-02-23T11:05:17Z</time>
      </trkpt>
      <trkpt lat="45.888751382008195" lon="7.912475103512406">
        <ele>1786.75</ele>
        <time>2014-02-23T11:05:31Z</time>
      </trkpt>
      <trkpt lat="45.888751968741417" lon="7.912510139867663">
        <ele>1787.23</ele>
        <time>2014-02-23T11:05:44Z</time>
      </trkpt>
      <trkpt lat="45.888790525496006" lon="7.912466553971171">
        <ele>1787.71</ele>
        <time>2014-02-23T11:06:04Z</time>
      </trkpt>
      <trkpt lat="45.888745514675975" lon="7.912348285317421">
        <ele>1790.5899999999999</ele>
        <time>2014-02-23T11:06:19Z</time>
      </trkpt>
      <trkpt lat="45.88871986605227" lon="7.912274608388543">
        <ele>1793</ele>
        <time>2014-02-23T11:06:31Z</time>
      </trkpt>
      <trkpt lat="45.8886993303895" lon="7.912154076620936">
        <ele>1795.8800000000001</ele>
        <time>2014-02-23T11:06:46Z</time>
      </trkpt>
      <trkpt lat="45.888716261833906" lon="7.9120834171772">
        <ele>1799.24</ele>
        <time>2014-02-23T11:06:59Z</time>
      </trkpt>
      <trkpt lat="45.888686841353774" lon="7.912020720541477">
        <ele>1800.6900000000001</ele>
        <time>2014-02-23T11:07:07Z</time>
      </trkpt>
      <trkpt lat="45.888662366196513" lon="7.911970345303416">
        <ele>1802.1300000000001</ele>
        <time>2014-02-23T11:07:20Z</time>
      </trkpt>
      <trkpt lat="45.888682985678315" lon="7.911921478807926">
        <ele>1805.01</ele>
        <time>2014-02-23T11:07:33Z</time>
      </trkpt>
      <trkpt lat="45.8886993303895" lon="7.911898428574204">
        <ele>1806.9400000000001</ele>
        <time>2014-02-23T11:07:48Z</time>
      </trkpt>
      <trkpt lat="45.888657839968801" lon="7.911822656169534">
        <ele>1809.8199999999999</ele>
        <time>2014-02-23T11:08:00Z</time>
      </trkpt>
      <trkpt lat="45.888599501922727" lon="7.911727353930473">
        <ele>1813.1800000000001</ele>
        <time>2014-02-23T11:08:20Z</time>
      </trkpt>
      <trkpt lat="45.888613164424896" lon="7.911660131067038">
        <ele>1816.0699999999999</ele>
        <time>2014-02-23T11:08:32Z</time>
      </trkpt>
      <trkpt lat="45.888657839968801" lon="7.91167488321662">
        <ele>1818.47</ele>
        <time>2014-02-23T11:08:43Z</time>
      </trkpt>
      <trkpt lat="45.888677956536412" lon="7.911725509911776">
        <ele>1819.9100000000001</ele>
        <time>2014-02-23T11:08:57Z</time>
      </trkpt>
      <trkpt lat="45.888712741434574" lon="7.911650743335486">
        <ele>1822.3199999999999</ele>
        <time>2014-02-23T11:09:15Z</time>
      </trkpt>
      <trkpt lat="45.888664964586496" lon="7.911588298156858">
        <ele>1825.2</ele>
        <time>2014-02-23T11:09:27Z</time>
      </trkpt>
      <trkpt lat="45.888666557148099" lon="7.91150975972414">
        <ele>1827.5999999999999</ele>
        <time>2014-02-23T11:09:39Z</time>
      </trkpt>
      <trkpt lat="45.888664629310369" lon="7.911448739469051">
        <ele>1830.01</ele>
        <time>2014-02-23T11:09:51Z</time>
      </trkpt>
      <trkpt lat="45.88862020522356" lon="7.911399872973561">
        <ele>1832.8900000000001</ele>
        <time>2014-02-23T11:10:03Z</time>
      </trkpt>
      <trkpt lat="45.888613667339087" lon="7.911351593211293">
        <ele>1835.77</ele>
        <time>2014-02-23T11:10:13Z</time>
      </trkpt>
      <trkpt lat="45.888577038422227" lon="7.911274144425988">
        <ele>1838.6600000000001</ele>
        <time>2014-02-23T11:10:28Z</time>
      </trkpt>
      <trkpt lat="45.888562873005867" lon="7.911266349256039">
        <ele>1841.0599999999999</ele>
        <time>2014-02-23T11:10:45Z</time>
      </trkpt>
      <trkpt lat="45.888542840257287" lon="7.911272635683417">
        <ele>1841.54</ele>
        <time>2014-02-23T11:10:56Z</time>
      </trkpt>
      <trkpt lat="45.888488357886672" lon="7.911195186898112">
        <ele>1844.4300000000001</ele>
        <time>2014-02-23T11:11:09Z</time>
      </trkpt>
      <trkpt lat="45.888463547453284" lon="7.911079851910472">
        <ele>1846.8299999999999</ele>
        <time>2014-02-23T11:11:22Z</time>
      </trkpt>
      <trkpt lat="45.888456255197525" lon="7.91105973534286">
        <ele>1846.3499999999999</ele>
        <time>2014-02-23T11:11:36Z</time>
      </trkpt>
      <trkpt lat="45.888490537181497" lon="7.911091418936849">
        <ele>1846.3499999999999</ele>
        <time>2014-02-23T11:11:56Z</time>
      </trkpt>
      <trkpt lat="45.888519622385502" lon="7.911125868558884">
        <ele>1846.3499999999999</ele>
        <time>2014-02-23T11:12:13Z</time>
      </trkpt>
      <trkpt lat="45.888532446697354" lon="7.91125075891614">
        <ele>1843.47</ele>
        <time>2014-02-23T11:12:30Z</time>
      </trkpt>
      <trkpt lat="45.888526495546103" lon="7.911258302628994">
        <ele>1843.47</ele>
        <time>2014-02-23T11:12:57Z</time>
      </trkpt>
      <trkpt lat="45.888486849144101" lon="7.911277329549193">
        <ele>1843.47</ele>
        <time>2014-02-23T11:13:18Z</time>
      </trkpt>
      <trkpt lat="45.888504618778825" lon="7.911249417811632">
        <ele>1843.47</ele>
        <time>2014-02-23T11:13:37Z</time>
      </trkpt>
      <trkpt lat="45.888516521081328" lon="7.911271629855037">
        <ele>1843.95</ele>
        <time>2014-02-23T11:14:04Z</time>
      </trkpt>
      <trkpt lat="45.888511324301362" lon="7.911248411983252">
        <ele>1843.95</ele>
        <time>2014-02-23T11:14:26Z</time>
      </trkpt>
      <trkpt lat="45.888520712032914" lon="7.911237766966224">
        <ele>1843.47</ele>
        <time>2014-02-23T11:14:51Z</time>
      </trkpt>
      <trkpt lat="45.888511156663299" lon="7.911233324557543">
        <ele>1843.95</ele>
        <time>2014-02-23T11:15:18Z</time>
      </trkpt>
      <trkpt lat="45.888517275452614" lon="7.911232570186257">
        <ele>1843.47</ele>
        <time>2014-02-23T11:15:40Z</time>
      </trkpt>
      <trkpt lat="45.888526914641261" lon="7.911243885755539">
        <ele>1843.95</ele>
        <time>2014-02-23T11:16:00Z</time>
      </trkpt>
      <trkpt lat="45.888530686497688" lon="7.911230223253369">
        <ele>1843.47</ele>
        <time>2014-02-23T11:16:21Z</time>
      </trkpt>
      <trkpt lat="45.888532362878323" lon="7.911241455003619">
        <ele>1844.4300000000001</ele>
        <time>2014-02-23T11:16:39Z</time>
      </trkpt>
      <trkpt lat="45.888533871620893" lon="7.911248495802283">
        <ele>1844.9100000000001</ele>
        <time>2014-02-23T11:17:03Z</time>
      </trkpt>
      <trkpt lat="45.888530686497688" lon="7.911239443346858">
        <ele>1844.4300000000001</ele>
        <time>2014-02-23T11:17:28Z</time>
      </trkpt>
      <trkpt lat="45.888527417555451" lon="7.91124883107841">
        <ele>1843.95</ele>
        <time>2014-02-23T11:17:46Z</time>
      </trkpt>
      <trkpt lat="45.888507720082998" lon="7.911267187446356">
        <ele>1844.4300000000001</ele>
        <time>2014-02-23T11:18:09Z</time>
      </trkpt>
      <trkpt lat="45.888484502211213" lon="7.911181105300784">
        <ele>1846.8299999999999</ele>
        <time>2014-02-23T11:18:23Z</time>
      </trkpt>
      <trkpt lat="45.888465642929077" lon="7.911118408665061">
        <ele>1847.79</ele>
        <time>2014-02-23T11:18:30Z</time>
      </trkpt>
      <trkpt lat="45.888369670137763" lon="7.910970048978925">
        <ele>1848.75</ele>
        <time>2014-02-23T11:18:47Z</time>
      </trkpt>
      <trkpt lat="45.888371178880334" lon="7.910953033715487">
        <ele>1848.27</ele>
        <time>2014-02-23T11:18:59Z</time>
      </trkpt>
      <trkpt lat="45.888382494449615" lon="7.910891342908144">
        <ele>1848.75</ele>
        <time>2014-02-23T11:19:20Z</time>
      </trkpt>
      <trkpt lat="45.888344692066312" lon="7.910905675962567">
        <ele>1848.27</ele>
        <time>2014-02-23T11:19:31Z</time>
      </trkpt>
      <trkpt lat="45.88836707174778" lon="7.910921182483435">
        <ele>1848.27</ele>
        <time>2014-02-23T11:19:53Z</time>
      </trkpt>
      <trkpt lat="45.888400599360466" lon="7.91085940785706">
        <ele>1849.23</ele>
        <time>2014-02-23T11:20:04Z</time>
      </trkpt>
      <trkpt lat="45.888394648209214" lon="7.910887319594622">
        <ele>1848.75</ele>
        <time>2014-02-23T11:20:22Z</time>
      </trkpt>
      <trkpt lat="45.888409065082669" lon="7.910858234390616">
        <ele>1848.75</ele>
        <time>2014-02-23T11:20:39Z</time>
      </trkpt>
      <trkpt lat="45.888402527198195" lon="7.91089553385973">
        <ele>1848.75</ele>
        <time>2014-02-23T11:20:50Z</time>
      </trkpt>
      <trkpt lat="45.888399761170149" lon="7.9110162332654">
        <ele>1848.27</ele>
        <time>2014-02-23T11:20:57Z</time>
      </trkpt>
      <trkpt lat="45.888404538854957" lon="7.911025872454047">
        <ele>1847.79</ele>
        <time>2014-02-23T11:21:06Z</time>
      </trkpt>
      <trkpt lat="45.888425996527076" lon="7.911037104204297">
        <ele>1848.27</ele>
        <time>2014-02-23T11:21:08Z</time>
      </trkpt>
      <trkpt lat="45.888492129743099" lon="7.911126958206296">
        <ele>1847.79</ele>
        <time>2014-02-23T11:21:17Z</time>
      </trkpt>
      <trkpt lat="45.888514509424567" lon="7.911237766966224">
        <ele>1844.4300000000001</ele>
        <time>2014-02-23T11:21:27Z</time>
      </trkpt>
      <trkpt lat="45.888528926298022" lon="7.911234414204955">
        <ele>1844.4300000000001</ele>
        <time>2014-02-23T11:21:43Z</time>
      </trkpt>
      <trkpt lat="45.888534374535084" lon="7.911272048950195">
        <ele>1843.95</ele>
        <time>2014-02-23T11:21:57Z</time>
      </trkpt>
      <trkpt lat="45.888523813337088" lon="7.911257296800613">
        <ele>1842.98</ele>
        <time>2014-02-23T11:22:14Z</time>
      </trkpt>
      <trkpt lat="45.888518448919058" lon="7.911276156082749">
        <ele>1844.4300000000001</ele>
        <time>2014-02-23T11:22:28Z</time>
      </trkpt>
      <trkpt lat="45.888538900762796" lon="7.91126593016088">
        <ele>1844.4300000000001</ele>
        <time>2014-02-23T11:22:56Z</time>
      </trkpt>
      <trkpt lat="45.88853320106864" lon="7.911243131384254">
        <ele>1843.95</ele>
        <time>2014-02-23T11:23:21Z</time>
      </trkpt>
      <trkpt lat="45.8885214664042" lon="7.911252519115806">
        <ele>1843.95</ele>
        <time>2014-02-23T11:23:39Z</time>
      </trkpt>
      <trkpt lat="45.888537308201194" lon="7.91121169924736">
        <ele>1843.95</ele>
        <time>2014-02-23T11:24:04Z</time>
      </trkpt>
      <trkpt lat="45.888541666790843" lon="7.911231480538845">
        <ele>1843.95</ele>
        <time>2014-02-23T11:24:23Z</time>
      </trkpt>
      <trkpt lat="45.888533787801862" lon="7.911211866885424">
        <ele>1843.95</ele>
        <time>2014-02-23T11:24:45Z</time>
      </trkpt>
      <trkpt lat="45.888538816943765" lon="7.911222763359547">
        <ele>1843.95</ele>
        <time>2014-02-23T11:25:13Z</time>
      </trkpt>
      <trkpt lat="45.888532195240259" lon="7.9112234339118">
        <ele>1844.4300000000001</ele>
        <time>2014-02-23T11:25:37Z</time>
      </trkpt>
      <trkpt lat="45.888535883277655" lon="7.911211363971233">
        <ele>1843.95</ele>
        <time>2014-02-23T11:25:55Z</time>
      </trkpt>
      <trkpt lat="45.888528842478991" lon="7.911207424476743">
        <ele>1844.4300000000001</ele>
        <time>2014-02-23T11:26:17Z</time>
      </trkpt>
      <trkpt lat="45.888542253524065" lon="7.911229720339179">
        <ele>1844.4300000000001</ele>
        <time>2014-02-23T11:26:34Z</time>
      </trkpt>
      <trkpt lat="45.888566393405199" lon="7.911235000938177">
        <ele>1844.4300000000001</ele>
        <time>2014-02-23T11:27:05Z</time>
      </trkpt>
      <trkpt lat="45.888539487496018" lon="7.911243718117476">
        <ele>1844.4300000000001</ele>
        <time>2014-02-23T11:27:30Z</time>
      </trkpt>
      <trkpt lat="45.888512665405869" lon="7.911227038130164">
        <ele>1844.4300000000001</ele>
        <time>2014-02-23T11:27:50Z</time>
      </trkpt>
      <trkpt lat="45.888518197461963" lon="7.911233408376575">
        <ele>1844.4300000000001</ele>
        <time>2014-02-23T11:28:06Z</time>
      </trkpt>
      <trkpt lat="45.888517359271646" lon="7.911225194111466">
        <ele>1844.9100000000001</ele>
        <time>2014-02-23T11:28:20Z</time>
      </trkpt>
      <trkpt lat="45.888515850529075" lon="7.911173645406961">
        <ele>1844.4300000000001</ele>
        <time>2014-02-23T11:28:45Z</time>
      </trkpt>
      <trkpt lat="45.888514006510377" lon="7.911200132220984">
        <ele>1844.9100000000001</ele>
        <time>2014-02-23T11:29:06Z</time>
      </trkpt>
      <trkpt lat="45.888555748388171" lon="7.911223936825991">
        <ele>1844.9100000000001</ele>
        <time>2014-02-23T11:29:30Z</time>
      </trkpt>
      <trkpt lat="45.888565136119723" lon="7.911253105849028">
        <ele>1844.4300000000001</ele>
        <time>2014-02-23T11:29:52Z</time>
      </trkpt>
      <trkpt lat="45.888559017330408" lon="7.911239108070731">
        <ele>1844.9100000000001</ele>
        <time>2014-02-23T11:30:14Z</time>
      </trkpt>
      <trkpt lat="45.888531608507037" lon="7.911240784451366">
        <ele>1844.9100000000001</ele>
        <time>2014-02-23T11:30:34Z</time>
      </trkpt>
      <trkpt lat="45.888550132513046" lon="7.911225110292435">
        <ele>1844.4300000000001</ele>
        <time>2014-02-23T11:30:59Z</time>
      </trkpt>
      <trkpt lat="45.888530854135752" lon="7.911239108070731">
        <ele>1844.4300000000001</ele>
        <time>2014-02-23T11:31:20Z</time>
      </trkpt>
      <trkpt lat="45.888537308201194" lon="7.911217650398612">
        <ele>1844.4300000000001</ele>
        <time>2014-02-23T11:31:39Z</time>
      </trkpt>
      <trkpt lat="45.888530937954783" lon="7.911196947097778">
        <ele>1844.4300000000001</ele>
        <time>2014-02-23T11:31:58Z</time>
      </trkpt>
      <trkpt lat="45.888499924913049" lon="7.911094939336181">
        <ele>1847.3099999999999</ele>
        <time>2014-02-23T11:32:14Z</time>
      </trkpt>
      <trkpt lat="45.888469498604536" lon="7.911052610725164">
        <ele>1847.3099999999999</ele>
        <time>2014-02-23T11:32:21Z</time>
      </trkpt>
      <trkpt lat="45.888426247984171" lon="7.911035344004631">
        <ele>1847.3099999999999</ele>
        <time>2014-02-23T11:32:27Z</time>
      </trkpt>
      <trkpt lat="45.88839590549469" lon="7.910927888005972">
        <ele>1848.27</ele>
        <time>2014-02-23T11:32:36Z</time>
      </trkpt>
      <trkpt lat="45.888372855260968" lon="7.910836273804307">
        <ele>1847.79</ele>
        <time>2014-02-23T11:32:51Z</time>
      </trkpt>
      <trkpt lat="45.888354666531086" lon="7.910794196650386">
        <ele>1847.3099999999999</ele>
        <time>2014-02-23T11:33:04Z</time>
      </trkpt>
      <trkpt lat="45.888371933251619" lon="7.910790424793959">
        <ele>1847.3099999999999</ele>
        <time>2014-02-23T11:33:26Z</time>
      </trkpt>
      <trkpt lat="45.888370592147112" lon="7.910804422572255">
        <ele>1847.3099999999999</ele>
        <time>2014-02-23T11:33:42Z</time>
      </trkpt>
      <trkpt lat="45.888404455035925" lon="7.910851780325174">
        <ele>1847.79</ele>
        <time>2014-02-23T11:33:58Z</time>
      </trkpt>
      <trkpt lat="45.888401940464973" lon="7.910856306552887">
        <ele>1847.3099999999999</ele>
        <time>2014-02-23T11:34:10Z</time>
      </trkpt>
      <trkpt lat="45.888382997363806" lon="7.910846164450049">
        <ele>1846.8299999999999</ele>
        <time>2014-02-23T11:34:36Z</time>
      </trkpt>
      <trkpt lat="45.888397498056293" lon="7.910851947963238">
        <ele>1846.8299999999999</ele>
        <time>2014-02-23T11:35:03Z</time>
      </trkpt>
      <trkpt lat="45.888398587703705" lon="7.910875584930182">
        <ele>1847.3099999999999</ele>
        <time>2014-02-23T11:35:25Z</time>
      </trkpt>
      <trkpt lat="45.88840956799686" lon="7.910861587151885">
        <ele>1847.3099999999999</ele>
        <time>2014-02-23T11:35:52Z</time>
      </trkpt>
      <trkpt lat="45.888386517763138" lon="7.910869298502803">
        <ele>1847.79</ele>
        <time>2014-02-23T11:36:24Z</time>
      </trkpt>
      <trkpt lat="45.888409735634923" lon="7.910848679021001">
        <ele>1847.3099999999999</ele>
        <time>2014-02-23T11:36:56Z</time>
      </trkpt>
      <trkpt lat="45.888393810018897" lon="7.910819677636027">
        <ele>1847.79</ele>
        <time>2014-02-23T11:37:30Z</time>
      </trkpt>
      <trkpt lat="45.88843697682023" lon="7.910900311544538">
        <ele>1847.79</ele>
        <time>2014-02-23T11:38:02Z</time>
      </trkpt>
      <trkpt lat="45.888346200808883" lon="7.910889917984605">
        <ele>1847.79</ele>
        <time>2014-02-23T11:38:34Z</time>
      </trkpt>
      <trkpt lat="45.888288198038936" lon="7.910856222733855">
        <ele>1848.27</ele>
        <time>2014-02-23T11:39:04Z</time>
      </trkpt>
      <trkpt lat="45.888338489457965" lon="7.910847924649715">
        <ele>1848.27</ele>
        <time>2014-02-23T11:39:30Z</time>
      </trkpt>
      <trkpt lat="45.888366317376494" lon="7.910878183320165">
        <ele>1848.75</ele>
        <time>2014-02-23T11:40:01Z</time>
      </trkpt>
      <trkpt lat="45.888389702886343" lon="7.910875584930182">
        <ele>1848.27</ele>
        <time>2014-02-23T11:40:33Z</time>
      </trkpt>
      <trkpt lat="45.888361623510718" lon="7.910824371501803">
        <ele>1848.75</ele>
        <time>2014-02-23T11:41:07Z</time>
      </trkpt>
      <trkpt lat="45.888349134474993" lon="7.910835016518831">
        <ele>1848.75</ele>
        <time>2014-02-23T11:41:39Z</time>
      </trkpt>
      <trkpt lat="45.888393558561802" lon="7.910818504169583">
        <ele>1849.23</ele>
        <time>2014-02-23T11:42:08Z</time>
      </trkpt>
      <trkpt lat="45.888368999585509" lon="7.910797297954559">
        <ele>1849.23</ele>
        <time>2014-02-23T11:42:40Z</time>
      </trkpt>
      <trkpt lat="45.888389199972153" lon="7.910800902172923">
        <ele>1849.23</ele>
        <time>2014-02-23T11:43:01Z</time>
      </trkpt>
      <trkpt lat="45.888387691229582" lon="7.910802830010653">
        <ele>1849.23</ele>
        <time>2014-02-23T11:43:29Z</time>
      </trkpt>
      <trkpt lat="45.888353493064642" lon="7.910777265205979">
        <ele>1849.71</ele>
        <time>2014-02-23T11:43:56Z</time>
      </trkpt>
      <trkpt lat="45.888371933251619" lon="7.910781288519502">
        <ele>1850.6800000000001</ele>
        <time>2014-02-23T11:44:27Z</time>
      </trkpt>
      <trkpt lat="45.888376794755459" lon="7.910793945193291">
        <ele>1850.1900000000001</ele>
        <time>2014-02-23T11:44:49Z</time>
      </trkpt>
      <trkpt lat="45.888375118374825" lon="7.910781791433692">
        <ele>1850.6800000000001</ele>
        <time>2014-02-23T11:45:12Z</time>
      </trkpt>
      <trkpt lat="45.888376794755459" lon="7.910821437835693">
        <ele>1850.6800000000001</ele>
        <time>2014-02-23T11:45:33Z</time>
      </trkpt>
      <trkpt lat="45.888331951573491" lon="7.910807523876429">
        <ele>1850.1900000000001</ele>
        <time>2014-02-23T11:45:58Z</time>
      </trkpt>
      <trkpt lat="45.888360282406211" lon="7.910789754241705">
        <ele>1850.6800000000001</ele>
        <time>2014-02-23T11:46:21Z</time>
      </trkpt>
      <trkpt lat="45.888402191922069" lon="7.910767206922174">
        <ele>1850.1900000000001</ele>
        <time>2014-02-23T11:46:46Z</time>
      </trkpt>
      <trkpt lat="45.888365311548114" lon="7.910761507228017">
        <ele>1851.1600000000001</ele>
        <time>2014-02-23T11:47:14Z</time>
      </trkpt>
      <trkpt lat="45.888379057869315" lon="7.910747677087784">
        <ele>1850.6800000000001</ele>
        <time>2014-02-23T11:47:40Z</time>
      </trkpt>
      <trkpt lat="45.888385511934757" lon="7.910749269649386">
        <ele>1851.1600000000001</ele>
        <time>2014-02-23T11:48:04Z</time>
      </trkpt>
      <trkpt lat="45.88835634291172" lon="7.910752287134528">
        <ele>1851.1600000000001</ele>
        <time>2014-02-23T11:48:24Z</time>
      </trkpt>
      <trkpt lat="45.888357600197196" lon="7.910763770341873">
        <ele>1851.1600000000001</ele>
        <time>2014-02-23T11:48:51Z</time>
      </trkpt>
      <trkpt lat="45.888336142525077" lon="7.910760417580605">
        <ele>1851.6400000000001</ele>
        <time>2014-02-23T11:49:19Z</time>
      </trkpt>
      <trkpt lat="45.888343853875995" lon="7.910777181386948">
        <ele>1851.6400000000001</ele>
        <time>2014-02-23T11:49:41Z</time>
      </trkpt>
      <trkpt lat="45.88834804482758" lon="7.910763267427683">
        <ele>1851.6400000000001</ele>
        <time>2014-02-23T11:50:15Z</time>
      </trkpt>
      <trkpt lat="45.888349050655961" lon="7.910770727321506">
        <ele>1851.6400000000001</ele>
        <time>2014-02-23T11:50:45Z</time>
      </trkpt>
      <trkpt lat="45.888349385932088" lon="7.910784054547548">
        <ele>1851.6400000000001</ele>
        <time>2014-02-23T11:51:16Z</time>
      </trkpt>
      <trkpt lat="45.888327257707715" lon="7.910761339589953">
        <ele>1852.1199999999999</ele>
        <time>2014-02-23T11:51:45Z</time>
      </trkpt>
      <trkpt lat="45.888326000422239" lon="7.910766620188952">
        <ele>1852.1199999999999</ele>
        <time>2014-02-23T11:52:01Z</time>
      </trkpt>
      <trkpt lat="45.888326670974493" lon="7.910758908838034">
        <ele>1852.1199999999999</ele>
        <time>2014-02-23T11:52:28Z</time>
      </trkpt>
      <trkpt lat="45.888311080634594" lon="7.910715322941542">
        <ele>1852.5999999999999</ele>
        <time>2014-02-23T11:52:52Z</time>
      </trkpt>
      <trkpt lat="45.88830797933042" lon="7.910705264657736">
        <ele>1852.5999999999999</ele>
        <time>2014-02-23T11:53:20Z</time>
      </trkpt>
      <trkpt lat="45.88830940425396" lon="7.91072697378695">
        <ele>1852.5999999999999</ele>
        <time>2014-02-23T11:53:47Z</time>
      </trkpt>
      <trkpt lat="45.888321809470654" lon="7.910700151696801">
        <ele>1853.0799999999999</ele>
        <time>2014-02-23T11:54:09Z</time>
      </trkpt>
      <trkpt lat="45.888363467529416" lon="7.910762345418334">
        <ele>1853.0799999999999</ele>
        <time>2014-02-23T11:54:28Z</time>
      </trkpt>
      <trkpt lat="45.888354247435927" lon="7.910696379840374">
        <ele>1853.5599999999999</ele>
        <time>2014-02-23T11:54:59Z</time>
      </trkpt>
      <trkpt lat="45.888361120596528" lon="7.910705683752894">
        <ele>1853.5599999999999</ele>
        <time>2014-02-23T11:55:35Z</time>
      </trkpt>
      <trkpt lat="45.888348547741771" lon="7.910690847784281">
        <ele>1854.04</ele>
        <time>2014-02-23T11:56:02Z</time>
      </trkpt>
      <trkpt lat="45.888350727036595" lon="7.910719681531191">
        <ele>1854.04</ele>
        <time>2014-02-23T11:56:34Z</time>
      </trkpt>
      <trkpt lat="45.888382494449615" lon="7.910744156688452">
        <ele>1854.52</ele>
        <time>2014-02-23T11:57:03Z</time>
      </trkpt>
      <trkpt lat="45.888397917151451" lon="7.910758070647717">
        <ele>1854.52</ele>
        <time>2014-02-23T11:57:34Z</time>
      </trkpt>
      <trkpt lat="45.888427253812551" lon="7.910788245499134">
        <ele>1854.52</ele>
        <time>2014-02-23T11:58:01Z</time>
      </trkpt>
      <trkpt lat="45.888426834717393" lon="7.910790424793959">
        <ele>1854.52</ele>
        <time>2014-02-23T11:58:33Z</time>
      </trkpt>
      <trkpt lat="45.888397498056293" lon="7.910746335983276">
        <ele>1854.52</ele>
        <time>2014-02-23T11:59:08Z</time>
      </trkpt>
      <trkpt lat="45.888385595753789" lon="7.910733260214329">
        <ele>1855</ele>
        <time>2014-02-23T11:59:40Z</time>
      </trkpt>
      <trkpt lat="45.888420883566141" lon="7.910765865817666">
        <ele>1854.52</ele>
        <time>2014-02-23T12:00:05Z</time>
      </trkpt>
      <trkpt lat="45.88843010365963" lon="7.910817246884108">
        <ele>1854.52</ele>
        <time>2014-02-23T12:00:32Z</time>
      </trkpt>
      <trkpt lat="45.88843697682023" lon="7.910819677636027">
        <ele>1854.52</ele>
        <time>2014-02-23T12:00:58Z</time>
      </trkpt>
      <trkpt lat="45.888434713706374" lon="7.910850020125508">
        <ele>1854.04</ele>
        <time>2014-02-23T12:01:26Z</time>
      </trkpt>
      <trkpt lat="45.888432031497359" lon="7.910808613523841">
        <ele>1854.04</ele>
        <time>2014-02-23T12:02:02Z</time>
      </trkpt>
      <trkpt lat="45.888411747291684" lon="7.91082764044404">
        <ele>1853.5599999999999</ele>
        <time>2014-02-23T12:02:36Z</time>
      </trkpt>
      <trkpt lat="45.888427924364805" lon="7.910820180550218">
        <ele>1853.5599999999999</ele>
        <time>2014-02-23T12:03:04Z</time>
      </trkpt>
      <trkpt lat="45.88842180557549" lon="7.910797968506813">
        <ele>1853.5599999999999</ele>
        <time>2014-02-23T12:03:33Z</time>
      </trkpt>
      <trkpt lat="45.888415351510048" lon="7.910793274641037">
        <ele>1853.5599999999999</ele>
        <time>2014-02-23T12:04:08Z</time>
      </trkpt>
      <trkpt lat="45.888426247984171" lon="7.910807775333524">
        <ele>1853.5599999999999</ele>
        <time>2014-02-23T12:04:42Z</time>
      </trkpt>
      <trkpt lat="45.88841401040554" lon="7.910800231620669">
        <ele>1854.04</ele>
        <time>2014-02-23T12:05:14Z</time>
      </trkpt>
      <trkpt lat="45.888423565775156" lon="7.910771062597632">
        <ele>1853.5599999999999</ele>
        <time>2014-02-23T12:05:36Z</time>
      </trkpt>
      <trkpt lat="45.888422895222902" lon="7.910802410915494">
        <ele>1854.04</ele>
        <time>2014-02-23T12:06:03Z</time>
      </trkpt>
      <trkpt lat="45.888434881344438" lon="7.910797968506813">
        <ele>1854.04</ele>
        <time>2014-02-23T12:06:29Z</time>
      </trkpt>
      <trkpt lat="45.88840663433075" lon="7.910770224407315">
        <ele>1853.5599999999999</ele>
        <time>2014-02-23T12:06:59Z</time>
      </trkpt>
      <trkpt lat="45.888393558561802" lon="7.910767374560237">
        <ele>1853.5599999999999</ele>
        <time>2014-02-23T12:07:28Z</time>
      </trkpt>
      <trkpt lat="45.888385092839599" lon="7.910733092576265">
        <ele>1854.04</ele>
        <time>2014-02-23T12:08:01Z</time>
      </trkpt>
      <trkpt lat="45.888383081182837" lon="7.910748096182942">
        <ele>1854.04</ele>
        <time>2014-02-23T12:08:30Z</time>
      </trkpt>
      <trkpt lat="45.88838811032474" lon="7.910735690966249">
        <ele>1854.04</ele>
        <time>2014-02-23T12:09:02Z</time>
      </trkpt>
      <trkpt lat="45.88838953524828" lon="7.910715574398637">
        <ele>1855</ele>
        <time>2014-02-23T12:09:30Z</time>
      </trkpt>
      <trkpt lat="45.888389116153121" lon="7.910732589662075">
        <ele>1855.96</ele>
        <time>2014-02-23T12:09:41Z</time>
      </trkpt>
      <trkpt lat="45.888430774211884" lon="7.910813642665744">
        <ele>1855.48</ele>
        <time>2014-02-23T12:09:58Z</time>
      </trkpt>
      <trkpt lat="45.888427756726742" lon="7.910780869424343">
        <ele>1855.48</ele>
        <time>2014-02-23T12:10:08Z</time>
      </trkpt>
      <trkpt lat="45.888410825282335" lon="7.91075874119997">
        <ele>1855.48</ele>
        <time>2014-02-23T12:10:22Z</time>
      </trkpt>
      <trkpt lat="45.888406215235591" lon="7.910799644887447">
        <ele>1855.96</ele>
        <time>2014-02-23T12:10:42Z</time>
      </trkpt>
      <trkpt lat="45.888411495834589" lon="7.910889834165573">
        <ele>1855.48</ele>
        <time>2014-02-23T12:10:48Z</time>
      </trkpt>
      <trkpt lat="45.888439491391182" lon="7.911043055355549">
        <ele>1854.52</ele>
        <time>2014-02-23T12:11:02Z</time>
      </trkpt>
      <trkpt lat="45.888459356501698" lon="7.91105143725872">
        <ele>1854.52</ele>
        <time>2014-02-23T12:11:14Z</time>
      </trkpt>
      <trkpt lat="45.888504199683666" lon="7.911128550767899">
        <ele>1854.52</ele>
        <time>2014-02-23T12:11:27Z</time>
      </trkpt>
      <trkpt lat="45.888494309037924" lon="7.911136513575912">
        <ele>1854.04</ele>
        <time>2014-02-23T12:11:42Z</time>
      </trkpt>
      <trkpt lat="45.888497745618224" lon="7.911160150542855">
        <ele>1853.5599999999999</ele>
        <time>2014-02-23T12:11:59Z</time>
      </trkpt>
      <trkpt lat="45.888521634042263" lon="7.91123466566205">
        <ele>1851.6400000000001</ele>
        <time>2014-02-23T12:12:14Z</time>
      </trkpt>
      <trkpt lat="45.888520460575819" lon="7.911192504689097">
        <ele>1851.1600000000001</ele>
        <time>2014-02-23T12:12:30Z</time>
      </trkpt>
      <trkpt lat="45.888535380363464" lon="7.911191331222653">
        <ele>1851.1600000000001</ele>
        <time>2014-02-23T12:12:47Z</time>
      </trkpt>
      <trkpt lat="45.888590114191175" lon="7.911252100020647">
        <ele>1848.75</ele>
        <time>2014-02-23T12:13:03Z</time>
      </trkpt>
      <trkpt lat="45.88858743198216" lon="7.911264672875404">
        <ele>1848.27</ele>
        <time>2014-02-23T12:13:18Z</time>
      </trkpt>
      <trkpt lat="45.888612158596516" lon="7.911359639838338">
        <ele>1845.8699999999999</ele>
        <time>2014-02-23T12:13:33Z</time>
      </trkpt>
      <trkpt lat="45.888584414497018" lon="7.911347066983581">
        <ele>1845.8699999999999</ele>
        <time>2014-02-23T12:13:53Z</time>
      </trkpt>
      <trkpt lat="45.88861433789134" lon="7.911313204094768">
        <ele>1846.3499999999999</ele>
        <time>2014-02-23T12:14:16Z</time>
      </trkpt>
      <trkpt lat="45.888633783906698" lon="7.911361316218972">
        <ele>1845.8699999999999</ele>
        <time>2014-02-23T12:14:32Z</time>
      </trkpt>
      <trkpt lat="45.888654235750437" lon="7.911347653716803">
        <ele>1845.3900000000001</ele>
        <time>2014-02-23T12:14:52Z</time>
      </trkpt>
      <trkpt lat="45.888653732836246" lon="7.911340026184917">
        <ele>1844.4300000000001</ele>
        <time>2014-02-23T12:15:10Z</time>
      </trkpt>
      <trkpt lat="45.888637974858284" lon="7.911364585161209">
        <ele>1844.9100000000001</ele>
        <time>2014-02-23T12:15:33Z</time>
      </trkpt>
      <trkpt lat="45.888642584905028" lon="7.911363998427987">
        <ele>1844.9100000000001</ele>
        <time>2014-02-23T12:15:51Z</time>
      </trkpt>
      <trkpt lat="45.888643087819219" lon="7.911358131095767">
        <ele>1844.4300000000001</ele>
        <time>2014-02-23T12:16:08Z</time>
      </trkpt>
      <trkpt lat="45.888661108911037" lon="7.91145695373416">
        <ele>1842.02</ele>
        <time>2014-02-23T12:16:23Z</time>
      </trkpt>
      <trkpt lat="45.88863437063992" lon="7.91143256239593">
        <ele>1841.54</ele>
        <time>2014-02-23T12:16:40Z</time>
      </trkpt>
      <trkpt lat="45.888651134446263" lon="7.911431640386581">
        <ele>1841.54</ele>
        <time>2014-02-23T12:16:59Z</time>
      </trkpt>
      <trkpt lat="45.888637891039252" lon="7.911424431949854">
        <ele>1841.54</ele>
        <time>2014-02-23T12:17:22Z</time>
      </trkpt>
      <trkpt lat="45.888648284599185" lon="7.911475729197264">
        <ele>1840.5799999999999</ele>
        <time>2014-02-23T12:17:48Z</time>
      </trkpt>
      <trkpt lat="45.888631856068969" lon="7.911484697833657">
        <ele>1840.0999999999999</ele>
        <time>2014-02-23T12:18:10Z</time>
      </trkpt>
      <trkpt lat="45.88864853605628" lon="7.911437842994928">
        <ele>1839.6199999999999</ele>
        <time>2014-02-23T12:18:27Z</time>
      </trkpt>
      <trkpt lat="45.888655912131071" lon="7.911451505497098">
        <ele>1840.0999999999999</ele>
        <time>2014-02-23T12:18:48Z</time>
      </trkpt>
      <trkpt lat="45.888662450015545" lon="7.911473549902439">
        <ele>1838.6600000000001</ele>
        <time>2014-02-23T12:19:01Z</time>
      </trkpt>
      <trkpt lat="45.888676950708032" lon="7.911475226283073">
        <ele>1837.7</ele>
        <time>2014-02-23T12:19:23Z</time>
      </trkpt>
      <trkpt lat="45.888687092810869" lon="7.91148679330945">
        <ele>1836.74</ele>
        <time>2014-02-23T12:19:42Z</time>
      </trkpt>
      <trkpt lat="45.888693630695343" lon="7.911556614562869">
        <ele>1834.8099999999999</ele>
        <time>2014-02-23T12:19:58Z</time>
      </trkpt>
      <trkpt lat="45.888690613210201" lon="7.91159282438457">
        <ele>1833.3699999999999</ele>
        <time>2014-02-23T12:20:11Z</time>
      </trkpt>
      <trkpt lat="45.888684242963791" lon="7.911606403067708">
        <ele>1831.9300000000001</ele>
        <time>2014-02-23T12:20:25Z</time>
      </trkpt>
      <trkpt lat="45.888701593503356" lon="7.91163238696754">
        <ele>1830.01</ele>
        <time>2014-02-23T12:20:40Z</time>
      </trkpt>
      <trkpt lat="45.888725817203522" lon="7.911682343110442">
        <ele>1829.05</ele>
        <time>2014-02-23T12:20:55Z</time>
      </trkpt>
      <trkpt lat="45.888734785839915" lon="7.911719894036651">
        <ele>1827.1199999999999</ele>
        <time>2014-02-23T12:21:13Z</time>
      </trkpt>
      <trkpt lat="45.888706455007195" lon="7.911724671721458">
        <ele>1825.6800000000001</ele>
        <time>2014-02-23T12:21:26Z</time>
      </trkpt>
      <trkpt lat="45.888712489977479" lon="7.911688210442662">
        <ele>1825.2</ele>
        <time>2014-02-23T12:21:37Z</time>
      </trkpt>
      <trkpt lat="45.888679632917047" lon="7.911681169643998">
        <ele>1824.24</ele>
        <time>2014-02-23T12:21:51Z</time>
      </trkpt>
      <trkpt lat="45.888663036748767" lon="7.911670105531812">
        <ele>1823.28</ele>
        <time>2014-02-23T12:22:08Z</time>
      </trkpt>
      <trkpt lat="45.88868516497314" lon="7.911631129682064">
        <ele>1822.3199999999999</ele>
        <time>2014-02-23T12:22:23Z</time>
      </trkpt>
      <trkpt lat="45.888662952929735" lon="7.911632638424635">
        <ele>1821.8399999999999</ele>
        <time>2014-02-23T12:22:39Z</time>
      </trkpt>
      <trkpt lat="45.88864903897047" lon="7.91165878996253">
        <ele>1821.3499999999999</ele>
        <time>2014-02-23T12:22:55Z</time>
      </trkpt>
      <trkpt lat="45.888621630147099" lon="7.91169592179358">
        <ele>1819.9100000000001</ele>
        <time>2014-02-23T12:23:08Z</time>
      </trkpt>
      <trkpt lat="45.888651553541422" lon="7.911752834916115">
        <ele>1817.99</ele>
        <time>2014-02-23T12:23:20Z</time>
      </trkpt>
      <trkpt lat="45.888670161366463" lon="7.911830870434642">
        <ele>1816.0699999999999</ele>
        <time>2014-02-23T12:23:35Z</time>
      </trkpt>
      <trkpt lat="45.888654068112373" lon="7.911820728331804">
        <ele>1815.1099999999999</ele>
        <time>2014-02-23T12:23:46Z</time>
      </trkpt>
      <trkpt lat="45.888694049790502" lon="7.911899518221617">
        <ele>1813.6600000000001</ele>
        <time>2014-02-23T12:24:02Z</time>
      </trkpt>
      <trkpt lat="45.888713579624891" lon="7.91194218210876">
        <ele>1812.22</ele>
        <time>2014-02-23T12:24:07Z</time>
      </trkpt>
      <trkpt lat="45.888719111680984" lon="7.911955257877708">
        <ele>1810.78</ele>
        <time>2014-02-23T12:24:17Z</time>
      </trkpt>
      <trkpt lat="45.888706119731069" lon="7.911923406645656">
        <ele>1809.8199999999999</ele>
        <time>2014-02-23T12:24:36Z</time>
      </trkpt>
      <trkpt lat="45.8886803034693" lon="7.911970010027289">
        <ele>1807.9000000000001</ele>
        <time>2014-02-23T12:24:52Z</time>
      </trkpt>
      <trkpt lat="45.888710059225559" lon="7.911986941471696">
        <ele>1806.9400000000001</ele>
        <time>2014-02-23T12:25:09Z</time>
      </trkpt>
      <trkpt lat="45.888732438907027" lon="7.912087440490723">
        <ele>1804.05</ele>
        <time>2014-02-23T12:25:20Z</time>
      </trkpt>
      <trkpt lat="45.888732271268964" lon="7.9121767077595">
        <ele>1802.6099999999999</ele>
        <time>2014-02-23T12:25:33Z</time>
      </trkpt>
      <trkpt lat="45.888721458613873" lon="7.912163296714425">
        <ele>1801.6500000000001</ele>
        <time>2014-02-23T12:25:46Z</time>
      </trkpt>
      <trkpt lat="45.888707544654608" lon="7.912246864289045">
        <ele>1798.76</ele>
        <time>2014-02-23T12:26:00Z</time>
      </trkpt>
      <trkpt lat="45.888719949871302" lon="7.912262538447976">
        <ele>1798.28</ele>
        <time>2014-02-23T12:26:08Z</time>
      </trkpt>
      <trkpt lat="45.888752220198512" lon="7.912392541766167">
        <ele>1795.4000000000001</ele>
        <time>2014-02-23T12:26:20Z</time>
      </trkpt>
      <trkpt lat="45.888755405321717" lon="7.912427075207233">
        <ele>1794.4400000000001</ele>
        <time>2014-02-23T12:26:23Z</time>
      </trkpt>
      <trkpt lat="45.888754734769464" lon="7.912458926439285">
        <ele>1793</ele>
        <time>2014-02-23T12:26:27Z</time>
      </trkpt>
      <trkpt lat="45.888778539374471" lon="7.912487089633942">
        <ele>1792.03</ele>
        <time>2014-02-23T12:26:36Z</time>
      </trkpt>
      <trkpt lat="45.888750627636909" lon="7.912591025233269">
        <ele>1789.1500000000001</ele>
        <time>2014-02-23T12:26:47Z</time>
      </trkpt>
      <trkpt lat="45.888747526332736" lon="7.91254123672843">
        <ele>1788.6700000000001</ele>
        <time>2014-02-23T12:27:01Z</time>
      </trkpt>
      <trkpt lat="45.88871793821454" lon="7.912624049931765">
        <ele>1786.27</ele>
        <time>2014-02-23T12:27:09Z</time>
      </trkpt>
      <trkpt lat="45.88874819688499" lon="7.912606783211231">
        <ele>1785.79</ele>
        <time>2014-02-23T12:27:21Z</time>
      </trkpt>
      <trkpt lat="45.888752052560449" lon="7.912771906703711">
        <ele>1782.4200000000001</ele>
        <time>2014-02-23T12:27:31Z</time>
      </trkpt>
      <trkpt lat="45.888747861608863" lon="7.912739971652627">
        <ele>1781.46</ele>
        <time>2014-02-23T12:27:43Z</time>
      </trkpt>
      <trkpt lat="45.888760853558779" lon="7.912734942510724">
        <ele>1780.98</ele>
        <time>2014-02-23T12:27:45Z</time>
      </trkpt>
      <trkpt lat="45.888820700347424" lon="7.91282806545496">
        <ele>1778.5799999999999</ele>
        <time>2014-02-23T12:27:52Z</time>
      </trkpt>
      <trkpt lat="45.888827908784151" lon="7.912860419601202">
        <ele>1777.6099999999999</ele>
        <time>2014-02-23T12:27:56Z</time>
      </trkpt>
      <trkpt lat="45.888856407254934" lon="7.912896713241935">
        <ele>1776.1700000000001</ele>
        <time>2014-02-23T12:28:07Z</time>
      </trkpt>
      <trkpt lat="45.888856826350093" lon="7.912915656343103">
        <ele>1776.1700000000001</ele>
        <time>2014-02-23T12:28:09Z</time>
      </trkpt>
      <trkpt lat="45.888859592378139" lon="7.912955302745104">
        <ele>1774.25</ele>
        <time>2014-02-23T12:28:21Z</time>
      </trkpt>
      <trkpt lat="45.888864202424884" lon="7.913000481203198">
        <ele>1772.3299999999999</ele>
        <time>2014-02-23T12:28:31Z</time>
      </trkpt>
      <trkpt lat="45.88883176445961" lon="7.913021603599191">
        <ele>1771.8499999999999</ele>
        <time>2014-02-23T12:28:36Z</time>
      </trkpt>
      <trkpt lat="45.888829920440912" lon="7.913090167567134">
        <ele>1769.4400000000001</ele>
        <time>2014-02-23T12:28:41Z</time>
      </trkpt>
      <trkpt lat="45.888832770287991" lon="7.913061585277319">
        <ele>1769.4400000000001</ele>
        <time>2014-02-23T12:28:51Z</time>
      </trkpt>
      <trkpt lat="45.888856658712029" lon="7.913073487579823">
        <ele>1768.96</ele>
        <time>2014-02-23T12:28:53Z</time>
      </trkpt>
      <trkpt lat="45.888917930424213" lon="7.913170717656612">
        <ele>1766.0799999999999</ele>
        <time>2014-02-23T12:29:05Z</time>
      </trkpt>
      <trkpt lat="45.888932766392827" lon="7.913185637444258">
        <ele>1766.0799999999999</ele>
        <time>2014-02-23T12:29:20Z</time>
      </trkpt>
      <trkpt lat="45.888927988708019" lon="7.91326099075377">
        <ele>1762.71</ele>
        <time>2014-02-23T12:29:31Z</time>
      </trkpt>
      <trkpt lat="45.888942489400506" lon="7.91328052058816">
        <ele>1761.75</ele>
        <time>2014-02-23T12:29:35Z</time>
      </trkpt>
      <trkpt lat="45.888967886567116" lon="7.913339445367456">
        <ele>1759.8299999999999</ele>
        <time>2014-02-23T12:29:51Z</time>
      </trkpt>
      <trkpt lat="45.888988170772791" lon="7.91335285641253">
        <ele>1759.3499999999999</ele>
        <time>2014-02-23T12:29:55Z</time>
      </trkpt>
      <trkpt lat="45.888950284570456" lon="7.913425443693996">
        <ele>1756.95</ele>
        <time>2014-02-23T12:30:04Z</time>
      </trkpt>
      <trkpt lat="45.888958415016532" lon="7.91345888748765">
        <ele>1755.02</ele>
        <time>2014-02-23T12:30:07Z</time>
      </trkpt>
      <trkpt lat="45.888988003134727" lon="7.913478165864945">
        <ele>1755.02</ele>
        <time>2014-02-23T12:30:15Z</time>
      </trkpt>
      <trkpt lat="45.889020022004843" lon="7.913511693477631">
        <ele>1753.0999999999999</ele>
        <time>2014-02-23T12:30:18Z</time>
      </trkpt>
      <trkpt lat="45.889051957055926" lon="7.913496689870954">
        <ele>1752.1400000000001</ele>
        <time>2014-02-23T12:30:21Z</time>
      </trkpt>
      <trkpt lat="45.8890809584409" lon="7.913590483367443">
        <ele>1749.26</ele>
        <time>2014-02-23T12:30:28Z</time>
      </trkpt>
      <trkpt lat="45.889101661741734" lon="7.913570869714022">
        <ele>1748.78</ele>
        <time>2014-02-23T12:30:33Z</time>
      </trkpt>
      <trkpt lat="45.889183804392815" lon="7.913676733151078">
        <ele>1745.4100000000001</ele>
        <time>2014-02-23T12:30:44Z</time>
      </trkpt>
      <trkpt lat="45.889204842969775" lon="7.91371931321919">
        <ele>1744.45</ele>
        <time>2014-02-23T12:30:46Z</time>
      </trkpt>
      <trkpt lat="45.889228563755751" lon="7.913748733699322">
        <ele>1743.01</ele>
        <time>2014-02-23T12:30:49Z</time>
      </trkpt>
      <trkpt lat="45.889317244291306" lon="7.913690898567438">
        <ele>1742.05</ele>
        <time>2014-02-23T12:31:01Z</time>
      </trkpt>
      <trkpt lat="45.889339707791805" lon="7.913752421736717">
        <ele>1739.6400000000001</ele>
        <time>2014-02-23T12:31:12Z</time>
      </trkpt>
      <trkpt lat="45.889390166848898" lon="7.913775723427534">
        <ele>1737.72</ele>
        <time>2014-02-23T12:31:27Z</time>
      </trkpt>
      <trkpt lat="45.889403242617846" lon="7.913780668750405">
        <ele>1737.24</ele>
        <time>2014-02-23T12:31:29Z</time>
      </trkpt>
      <trkpt lat="45.889396788552403" lon="7.91384244337678">
        <ele>1734.8399999999999</ele>
        <time>2014-02-23T12:31:35Z</time>
      </trkpt>
      <trkpt lat="45.889419168233871" lon="7.913875132799149">
        <ele>1733.3900000000001</ele>
        <time>2014-02-23T12:31:39Z</time>
      </trkpt>
      <trkpt lat="45.889452025294304" lon="7.913884939625859">
        <ele>1731.95</ele>
        <time>2014-02-23T12:31:48Z</time>
      </trkpt>
      <trkpt lat="45.889446493238211" lon="7.913844706490636">
        <ele>1732.4300000000001</ele>
        <time>2014-02-23T12:32:03Z</time>
      </trkpt>
      <trkpt lat="45.889460323378444" lon="7.913825931027532">
        <ele>1731.47</ele>
        <time>2014-02-23T12:32:14Z</time>
      </trkpt>
      <trkpt lat="45.889477422460914" lon="7.913801623508334">
        <ele>1731.47</ele>
        <time>2014-02-23T12:32:34Z</time>
      </trkpt>
      <trkpt lat="45.88944791816175" lon="7.913794834166765">
        <ele>1731.95</ele>
        <time>2014-02-23T12:32:42Z</time>
      </trkpt>
      <trkpt lat="45.889400392770767" lon="7.913696514442563">
        <ele>1731.47</ele>
        <time>2014-02-23T12:33:01Z</time>
      </trkpt>
      <trkpt lat="45.889359237626195" lon="7.913679415360093">
        <ele>1731.47</ele>
        <time>2014-02-23T12:33:24Z</time>
      </trkpt>
      <trkpt lat="45.88942201808095" lon="7.913755942136049">
        <ele>1733.3900000000001</ele>
        <time>2014-02-23T12:33:35Z</time>
      </trkpt>
      <trkpt lat="45.8894401229918" lon="7.913726270198822">
        <ele>1732.9100000000001</ele>
        <time>2014-02-23T12:34:03Z</time>
      </trkpt>
      <trkpt lat="45.889426041394472" lon="7.913804389536381">
        <ele>1732.4300000000001</ele>
        <time>2014-02-23T12:34:22Z</time>
      </trkpt>
      <trkpt lat="45.889412295073271" lon="7.91387714445591">
        <ele>1732.4300000000001</ele>
        <time>2014-02-23T12:34:35Z</time>
      </trkpt>
      <trkpt lat="45.889375414699316" lon="7.913903882727027">
        <ele>1731.47</ele>
        <time>2014-02-23T12:34:47Z</time>
      </trkpt>
      <trkpt lat="45.889369295910001" lon="7.914002873003483">
        <ele>1731.47</ele>
        <time>2014-02-23T12:34:57Z</time>
      </trkpt>
      <trkpt lat="45.889349682256579" lon="7.914012596011162">
        <ele>1730.03</ele>
        <time>2014-02-23T12:35:04Z</time>
      </trkpt>
      <trkpt lat="45.889313723891973" lon="7.914020055904985">
        <ele>1728.5899999999999</ele>
        <time>2014-02-23T12:35:07Z</time>
      </trkpt>
      <trkpt lat="45.889283046126366" lon="7.91401200927794">
        <ele>1728.1099999999999</ele>
        <time>2014-02-23T12:35:10Z</time>
      </trkpt>
      <trkpt lat="45.889263264834881" lon="7.914031120017171">
        <ele>1726.6700000000001</ele>
        <time>2014-02-23T12:35:12Z</time>
      </trkpt>
      <trkpt lat="45.889281118288636" lon="7.91411024518311">
        <ele>1725.22</ele>
        <time>2014-02-23T12:35:17Z</time>
      </trkpt>
      <trkpt lat="45.889289081096649" lon="7.914126673713327">
        <ele>1724.74</ele>
        <time>2014-02-23T12:35:18Z</time>
      </trkpt>
      <trkpt lat="45.88929352350533" lon="7.91414737701416">
        <ele>1724.26</ele>
        <time>2014-02-23T12:35:19Z</time>
      </trkpt>
      <trkpt lat="45.889290925115347" lon="7.914176378399134">
        <ele>1723.78</ele>
        <time>2014-02-23T12:35:20Z</time>
      </trkpt>
      <trkpt lat="45.889269718900323" lon="7.914219629019499">
        <ele>1723.3</ele>
        <time>2014-02-23T12:35:29Z</time>
      </trkpt>
      <trkpt lat="45.889245076104999" lon="7.914291797205806">
        <ele>1722.8199999999999</ele>
        <time>2014-02-23T12:35:37Z</time>
      </trkpt>
      <trkpt lat="45.889144074171782" lon="7.914444096386433">
        <ele>1720.4200000000001</ele>
        <time>2014-02-23T12:35:50Z</time>
      </trkpt>
      <trkpt lat="45.889114318415523" lon="7.914448790252209">
        <ele>1718.97</ele>
        <time>2014-02-23T12:35:59Z</time>
      </trkpt>
      <trkpt lat="45.889176009222865" lon="7.914461363106966">
        <ele>1718.49</ele>
        <time>2014-02-23T12:36:12Z</time>
      </trkpt>
      <trkpt lat="45.889208195731044" lon="7.914438899606466">
        <ele>1718.49</ele>
        <time>2014-02-23T12:36:34Z</time>
      </trkpt>
      <trkpt lat="45.889231162145734" lon="7.914412328973413">
        <ele>1719.46</ele>
        <time>2014-02-23T12:36:51Z</time>
      </trkpt>
      <trkpt lat="45.889172991737723" lon="7.914350219070911">
        <ele>1718.97</ele>
        <time>2014-02-23T12:37:10Z</time>
      </trkpt>
      <trkpt lat="45.889158323407173" lon="7.914495561271906">
        <ele>1718.49</ele>
        <time>2014-02-23T12:37:24Z</time>
      </trkpt>
      <trkpt lat="45.889094537124038" lon="7.914742073044181">
        <ele>1716.0899999999999</ele>
        <time>2014-02-23T12:37:38Z</time>
      </trkpt>
      <trkpt lat="45.889016501605511" lon="7.914951369166374">
        <ele>1713.6900000000001</ele>
        <time>2014-02-23T12:37:51Z</time>
      </trkpt>
      <trkpt lat="45.888938969001174" lon="7.915174076333642">
        <ele>1711.76</ele>
        <time>2014-02-23T12:38:05Z</time>
      </trkpt>
      <trkpt lat="45.888898735865951" lon="7.915257224813104">
        <ele>1711.76</ele>
        <time>2014-02-23T12:38:10Z</time>
      </trkpt>
      <trkpt lat="45.888878367841244" lon="7.915301145985723">
        <ele>1710.3199999999999</ele>
        <time>2014-02-23T12:38:13Z</time>
      </trkpt>
      <trkpt lat="45.888836458325386" lon="7.915392341092229">
        <ele>1708.4000000000001</ele>
        <time>2014-02-23T12:38:21Z</time>
      </trkpt>
      <trkpt lat="45.888833776116371" lon="7.915433496236801">
        <ele>1707.4400000000001</ele>
        <time>2014-02-23T12:38:24Z</time>
      </trkpt>
      <trkpt lat="45.88882589712739" lon="7.915474148467183">
        <ele>1706.96</ele>
        <time>2014-02-23T12:38:27Z</time>
      </trkpt>
      <trkpt lat="45.888774432241917" lon="7.915545227006078">
        <ele>1706</ele>
        <time>2014-02-23T12:38:35Z</time>
      </trkpt>
      <trkpt lat="45.888677202165127" lon="7.915746560320258">
        <ele>1703.5899999999999</ele>
        <time>2014-02-23T12:38:51Z</time>
      </trkpt>
      <trkpt lat="45.88860210031271" lon="7.915866170078516">
        <ele>1701.6700000000001</ele>
        <time>2014-02-23T12:39:05Z</time>
      </trkpt>
      <trkpt lat="45.888605117797852" lon="7.915985947474837">
        <ele>1697.8299999999999</ele>
        <time>2014-02-23T12:39:14Z</time>
      </trkpt>
      <trkpt lat="45.888606123626232" lon="7.91600564494729">
        <ele>1697.8299999999999</ele>
        <time>2014-02-23T12:39:15Z</time>
      </trkpt>
      <trkpt lat="45.888537224382162" lon="7.916176887229085">
        <ele>1694.46</ele>
        <time>2014-02-23T12:39:24Z</time>
      </trkpt>
      <trkpt lat="45.888424403965473" lon="7.916334215551615">
        <ele>1693.02</ele>
        <time>2014-02-23T12:39:36Z</time>
      </trkpt>
      <trkpt lat="45.888362377882004" lon="7.916530100628734">
        <ele>1690.6199999999999</ele>
        <time>2014-02-23T12:39:48Z</time>
      </trkpt>
      <trkpt lat="45.888231368735433" lon="7.916685333475471">
        <ele>1687.73</ele>
        <time>2014-02-23T12:40:03Z</time>
      </trkpt>
      <trkpt lat="45.88811787776649" lon="7.916854061186314">
        <ele>1685.3299999999999</ele>
        <time>2014-02-23T12:40:17Z</time>
      </trkpt>
      <trkpt lat="45.888121733441949" lon="7.916898652911186">
        <ele>1685.3299999999999</ele>
        <time>2014-02-23T12:40:20Z</time>
      </trkpt>
      <trkpt lat="45.888131204992533" lon="7.916936371475458">
        <ele>1684.3699999999999</ele>
        <time>2014-02-23T12:40:22Z</time>
      </trkpt>
      <trkpt lat="45.888128271326423" lon="7.917149187996984">
        <ele>1681.96</ele>
        <time>2014-02-23T12:40:34Z</time>
      </trkpt>
      <trkpt lat="45.888147549703717" lon="7.917285226285458">
        <ele>1681</ele>
        <time>2014-02-23T12:40:43Z</time>
      </trkpt>
      <trkpt lat="45.888113938271999" lon="7.917474741116166">
        <ele>1678.5999999999999</ele>
        <time>2014-02-23T12:40:56Z</time>
      </trkpt>
      <trkpt lat="45.888071190565825" lon="7.917661909013987">
        <ele>1677.6400000000001</ele>
        <time>2014-02-23T12:41:07Z</time>
      </trkpt>
      <trkpt lat="45.887928195297718" lon="7.917810101062059">
        <ele>1675.23</ele>
        <time>2014-02-23T12:41:23Z</time>
      </trkpt>
      <trkpt lat="45.887814704328775" lon="7.917984696105123">
        <ele>1674.75</ele>
        <time>2014-02-23T12:41:37Z</time>
      </trkpt>
      <trkpt lat="45.887692077085376" lon="7.918164907023311">
        <ele>1674.27</ele>
        <time>2014-02-23T12:41:52Z</time>
      </trkpt>
      <trkpt lat="45.887665674090385" lon="7.918220395222306">
        <ele>1672.8299999999999</ele>
        <time>2014-02-23T12:42:07Z</time>
      </trkpt>
      <trkpt lat="45.887642037123442" lon="7.918202122673392">
        <ele>1672.8299999999999</ele>
        <time>2014-02-23T12:42:27Z</time>
      </trkpt>
      <trkpt lat="45.887641701847315" lon="7.918252665549517">
        <ele>1672.8299999999999</ele>
        <time>2014-02-23T12:42:42Z</time>
      </trkpt>
      <trkpt lat="45.887548243626952" lon="7.918440503999591">
        <ele>1670.9100000000001</ele>
        <time>2014-02-23T12:42:55Z</time>
      </trkpt>
      <trkpt lat="45.887435087934136" lon="7.918565226718783">
        <ele>1667.54</ele>
        <time>2014-02-23T12:43:07Z</time>
      </trkpt>
      <trkpt lat="45.887286812067032" lon="7.918668910861015">
        <ele>1664.6600000000001</ele>
        <time>2014-02-23T12:43:20Z</time>
      </trkpt>
      <trkpt lat="45.887110456824303" lon="7.918782150372863">
        <ele>1662.26</ele>
        <time>2014-02-23T12:43:36Z</time>
      </trkpt>
      <trkpt lat="45.887030828744173" lon="7.918841745704413">
        <ele>1660.8099999999999</ele>
        <time>2014-02-23T12:43:44Z</time>
      </trkpt>
      <trkpt lat="45.886941142380238" lon="7.918895892798901">
        <ele>1659.8499999999999</ele>
        <time>2014-02-23T12:43:52Z</time>
      </trkpt>
      <trkpt lat="45.886918259784579" lon="7.918930007144809">
        <ele>1659.8499999999999</ele>
        <time>2014-02-23T12:43:55Z</time>
      </trkpt>
      <trkpt lat="45.886728577315807" lon="7.919066045433283">
        <ele>1656.49</ele>
        <time>2014-02-23T12:44:13Z</time>
      </trkpt>
      <trkpt lat="45.886570243164897" lon="7.919236868619919">
        <ele>1653.5999999999999</ele>
        <time>2014-02-23T12:44:28Z</time>
      </trkpt>
      <trkpt lat="45.886469576507807" lon="7.919401321560144">
        <ele>1652.6400000000001</ele>
        <time>2014-02-23T12:44:41Z</time>
      </trkpt>
      <trkpt lat="45.886456500738859" lon="7.919490421190858">
        <ele>1652.1600000000001</ele>
        <time>2014-02-23T12:44:46Z</time>
      </trkpt>
      <trkpt lat="45.886428840458393" lon="7.919583292677999">
        <ele>1650.72</ele>
        <time>2014-02-23T12:44:51Z</time>
      </trkpt>
      <trkpt lat="45.886347619816661" lon="7.919841790571809">
        <ele>1649.28</ele>
        <time>2014-02-23T12:45:06Z</time>
      </trkpt>
      <trkpt lat="45.886276625096798" lon="7.920087045058608">
        <ele>1647.3599999999999</ele>
        <time>2014-02-23T12:45:21Z</time>
      </trkpt>
      <trkpt lat="45.886217700317502" lon="7.920332467183471">
        <ele>1645.9100000000001</ele>
        <time>2014-02-23T12:45:35Z</time>
      </trkpt>
      <trkpt lat="45.886186603456736" lon="7.920522568747401">
        <ele>1645.9100000000001</ele>
        <time>2014-02-23T12:45:47Z</time>
      </trkpt>
      <trkpt lat="45.886164139956236" lon="7.920731948688626">
        <ele>1645.9100000000001</ele>
        <time>2014-02-23T12:46:00Z</time>
      </trkpt>
      <trkpt lat="45.88612575083971" lon="7.920952141284943">
        <ele>1644.95</ele>
        <time>2014-02-23T12:46:13Z</time>
      </trkpt>
      <trkpt lat="45.886055929586291" lon="7.921159006655216">
        <ele>1643.99</ele>
        <time>2014-02-23T12:46:28Z</time>
      </trkpt>
      <trkpt lat="45.886025670915842" lon="7.921253135427833">
        <ele>1644.47</ele>
        <time>2014-02-23T12:46:35Z</time>
      </trkpt>
      <trkpt lat="45.885999770835042" lon="7.921302085742354">
        <ele>1643.51</ele>
        <time>2014-02-23T12:46:39Z</time>
      </trkpt>
      <trkpt lat="45.88593321852386" lon="7.921465868130326">
        <ele>1641.5899999999999</ele>
        <time>2014-02-23T12:46:49Z</time>
      </trkpt>
      <trkpt lat="45.885860631242394" lon="7.921455893665552">
        <ele>1641.1099999999999</ele>
        <time>2014-02-23T12:47:03Z</time>
      </trkpt>
      <trkpt lat="45.885856356471777" lon="7.921466454863548">
        <ele>1640.1500000000001</ele>
        <time>2014-02-23T12:47:04Z</time>
      </trkpt>
      <trkpt lat="45.88581939227879" lon="7.921577682718635">
        <ele>1637.74</ele>
        <time>2014-02-23T12:47:10Z</time>
      </trkpt>
      <trkpt lat="45.885812854394317" lon="7.921591177582741">
        <ele>1637.74</ele>
        <time>2014-02-23T12:47:11Z</time>
      </trkpt>
      <trkpt lat="45.885754013434052" lon="7.921694777905941">
        <ele>1636.3</ele>
        <time>2014-02-23T12:47:18Z</time>
      </trkpt>
      <trkpt lat="45.885694334283471" lon="7.921878090128303">
        <ele>1634.3800000000001</ele>
        <time>2014-02-23T12:47:28Z</time>
      </trkpt>
      <trkpt lat="45.885621830821037" lon="7.922041369602084">
        <ele>1631.98</ele>
        <time>2014-02-23T12:47:40Z</time>
      </trkpt>
      <trkpt lat="45.885546561330557" lon="7.922205906361342">
        <ele>1630.05</ele>
        <time>2014-02-23T12:47:54Z</time>
      </trkpt>
      <trkpt lat="45.885549997910857" lon="7.922215042635799">
        <ele>1630.53</ele>
        <time>2014-02-23T12:47:57Z</time>
      </trkpt>
      <trkpt lat="45.885544046759605" lon="7.922280170023441">
        <ele>1629.5699999999999</ele>
        <time>2014-02-23T12:48:01Z</time>
      </trkpt>
      <trkpt lat="45.885469783097506" lon="7.922537075355649">
        <ele>1630.05</ele>
        <time>2014-02-23T12:48:17Z</time>
      </trkpt>
      <trkpt lat="45.885421084240079" lon="7.922710245475173">
        <ele>1628.6099999999999</ele>
        <time>2014-02-23T12:48:29Z</time>
      </trkpt>
      <trkpt lat="45.885379510000348" lon="7.922925157472491">
        <ele>1628.6099999999999</ele>
        <time>2014-02-23T12:48:43Z</time>
      </trkpt>
      <trkpt lat="45.885357968509197" lon="7.922996571287513">
        <ele>1627.6500000000001</ele>
        <time>2014-02-23T12:48:48Z</time>
      </trkpt>
      <trkpt lat="45.885334331542253" lon="7.923157503828406">
        <ele>1626.21</ele>
        <time>2014-02-23T12:48:58Z</time>
      </trkpt>
      <trkpt lat="45.88524229824543" lon="7.923300750553608">
        <ele>1624.77</ele>
        <time>2014-02-23T12:49:10Z</time>
      </trkpt>
      <trkpt lat="45.885161999613047" lon="7.923499653115869">
        <ele>1622.3599999999999</ele>
        <time>2014-02-23T12:49:23Z</time>
      </trkpt>
      <trkpt lat="45.885131070390344" lon="7.923551956191659">
        <ele>1621.8800000000001</ele>
        <time>2014-02-23T12:49:27Z</time>
      </trkpt>
      <trkpt lat="45.885028475895524" lon="7.923709452152252">
        <ele>1619.48</ele>
        <time>2014-02-23T12:49:41Z</time>
      </trkpt>
      <trkpt lat="45.884949266910553" lon="7.923880107700825">
        <ele>1619</ele>
        <time>2014-02-23T12:49:53Z</time>
      </trkpt>
      <trkpt lat="45.884848684072495" lon="7.924050511792302">
        <ele>1619.48</ele>
        <time>2014-02-23T12:50:06Z</time>
      </trkpt>
      <trkpt lat="45.884799566119909" lon="7.924142545089126">
        <ele>1619</ele>
        <time>2014-02-23T12:50:13Z</time>
      </trkpt>
      <trkpt lat="45.884703760966659" lon="7.924263579770923">
        <ele>1618.04</ele>
        <time>2014-02-23T12:50:29Z</time>
      </trkpt>
      <trkpt lat="45.884689092636108" lon="7.924293000251055">
        <ele>1618.52</ele>
        <time>2014-02-23T12:50:32Z</time>
      </trkpt>
      <trkpt lat="45.884566465392709" lon="7.924434654414654">
        <ele>1616.5899999999999</ele>
        <time>2014-02-23T12:50:44Z</time>
      </trkpt>
      <trkpt lat="45.884514162316918" lon="7.924644118174911">
        <ele>1615.6300000000001</ele>
        <time>2014-02-23T12:50:56Z</time>
      </trkpt>
      <trkpt lat="45.884400419890881" lon="7.924845786765218">
        <ele>1615.1500000000001</ele>
        <time>2014-02-23T12:51:11Z</time>
      </trkpt>
      <trkpt lat="45.884315678849816" lon="7.925067823380232">
        <ele>1614.6700000000001</ele>
        <time>2014-02-23T12:51:25Z</time>
      </trkpt>
      <trkpt lat="45.884246192872524" lon="7.925285082310438">
        <ele>1613.71</ele>
        <time>2014-02-23T12:51:40Z</time>
      </trkpt>
      <trkpt lat="45.88423864915967" lon="7.925318693742156">
        <ele>1614.1900000000001</ele>
        <time>2014-02-23T12:51:43Z</time>
      </trkpt>
      <trkpt lat="45.884234877303243" lon="7.9253492038697">
        <ele>1614.1900000000001</ele>
        <time>2014-02-23T12:51:45Z</time>
      </trkpt>
      <trkpt lat="45.884200679138303" lon="7.925532348453999">
        <ele>1611.79</ele>
        <time>2014-02-23T12:51:57Z</time>
      </trkpt>
      <trkpt lat="45.884211575612426" lon="7.92575178667903">
        <ele>1610.3499999999999</ele>
        <time>2014-02-23T12:52:10Z</time>
      </trkpt>
      <trkpt lat="45.884185675531626" lon="7.92586955241859">
        <ele>1607.9400000000001</ele>
        <time>2014-02-23T12:52:18Z</time>
      </trkpt>
      <trkpt lat="45.884185926988721" lon="7.926066862419248">
        <ele>1607.9400000000001</ele>
        <time>2014-02-23T12:52:32Z</time>
      </trkpt>
      <trkpt lat="45.884169582277536" lon="7.926330892369151">
        <ele>1606.98</ele>
        <time>2014-02-23T12:52:48Z</time>
      </trkpt>
      <trkpt lat="45.884183580055833" lon="7.926551252603531">
        <ele>1604.5799999999999</ele>
        <time>2014-02-23T12:53:02Z</time>
      </trkpt>
      <trkpt lat="45.88422205299139" lon="7.926741102710366">
        <ele>1603.6199999999999</ele>
        <time>2014-02-23T12:53:15Z</time>
      </trkpt>
      <trkpt lat="45.884236805140972" lon="7.926795333623886">
        <ele>1603.6199999999999</ele>
        <time>2014-02-23T12:53:19Z</time>
      </trkpt>
      <trkpt lat="45.884307967498899" lon="7.926957942545414">
        <ele>1601.6900000000001</ele>
        <time>2014-02-23T12:53:32Z</time>
      </trkpt>
      <trkpt lat="45.8843285869807" lon="7.92704570107162">
        <ele>1601.21</ele>
        <time>2014-02-23T12:53:44Z</time>
      </trkpt>
      <trkpt lat="45.884302267804742" lon="7.927101105451584">
        <ele>1599.29</ele>
        <time>2014-02-23T12:53:57Z</time>
      </trkpt>
      <trkpt lat="45.884297490119934" lon="7.927090879529715">
        <ele>1599.29</ele>
        <time>2014-02-23T12:54:23Z</time>
      </trkpt>
      <trkpt lat="45.884339231997728" lon="7.927063554525375">
        <ele>1600.25</ele>
        <time>2014-02-23T12:54:34Z</time>
      </trkpt>
      <trkpt lat="45.884366976097226" lon="7.927127256989479">
        <ele>1599.77</ele>
        <time>2014-02-23T12:54:54Z</time>
      </trkpt>
      <trkpt lat="45.884372759610415" lon="7.927124239504337">
        <ele>1598.8099999999999</ele>
        <time>2014-02-23T12:55:07Z</time>
      </trkpt>
      <trkpt lat="45.884350128471851" lon="7.927144272252917">
        <ele>1598.3299999999999</ele>
        <time>2014-02-23T12:55:28Z</time>
      </trkpt>
      <trkpt lat="45.884334789589047" lon="7.927109654992819">
        <ele>1598.3299999999999</ele>
        <time>2014-02-23T12:55:49Z</time>
      </trkpt>
      <trkpt lat="45.884360605850816" lon="7.927087778225541">
        <ele>1599.77</ele>
        <time>2014-02-23T12:56:15Z</time>
      </trkpt>
      <trkpt lat="45.884379968047142" lon="7.927058190107346">
        <ele>1599.29</ele>
        <time>2014-02-23T12:56:38Z</time>
      </trkpt>
      <trkpt lat="45.884367227554321" lon="7.927088448777795">
        <ele>1598.3299999999999</ele>
        <time>2014-02-23T12:57:01Z</time>
      </trkpt>
      <trkpt lat="45.884349374100566" lon="7.92710043489933">
        <ele>1598.3299999999999</ele>
        <time>2014-02-23T12:57:24Z</time>
      </trkpt>
      <trkpt lat="45.884351553395391" lon="7.927121641114354">
        <ele>1598.8099999999999</ele>
        <time>2014-02-23T12:57:46Z</time>
      </trkpt>
      <trkpt lat="45.884376950562" lon="7.92712340131402">
        <ele>1598.8099999999999</ele>
        <time>2014-02-23T12:58:16Z</time>
      </trkpt>
      <trkpt lat="45.884343758225441" lon="7.927141925320029">
        <ele>1598.3299999999999</ele>
        <time>2014-02-23T12:58:51Z</time>
      </trkpt>
      <trkpt lat="45.884378375485539" lon="7.927124658599496">
        <ele>1598.8099999999999</ele>
        <time>2014-02-23T12:59:24Z</time>
      </trkpt>
      <trkpt lat="45.884369323030114" lon="7.927141590043902">
        <ele>1597.8499999999999</ele>
        <time>2014-02-23T12:59:59Z</time>
      </trkpt>
      <trkpt lat="45.884405449032784" lon="7.927105966955423">
        <ele>1598.8099999999999</ele>
        <time>2014-02-23T13:00:29Z</time>
      </trkpt>
      <trkpt lat="45.884409639984369" lon="7.927127676084638">
        <ele>1598.8099999999999</ele>
        <time>2014-02-23T13:00:33Z</time>
      </trkpt>
      <trkpt lat="45.884406287223101" lon="7.927089119330049">
        <ele>1599.77</ele>
        <time>2014-02-23T13:00:43Z</time>
      </trkpt>
      <trkpt lat="45.884365886449814" lon="7.927069338038564">
        <ele>1599.77</ele>
        <time>2014-02-23T13:00:58Z</time>
      </trkpt>
      <trkpt lat="45.884385081008077" lon="7.927053328603506">
        <ele>1600.25</ele>
        <time>2014-02-23T13:01:13Z</time>
      </trkpt>
      <trkpt lat="45.884379046037793" lon="7.927031451836228">
        <ele>1599.77</ele>
        <time>2014-02-23T13:01:38Z</time>
      </trkpt>
      <trkpt lat="45.884363874793053" lon="7.927067074924707">
        <ele>1600.25</ele>
        <time>2014-02-23T13:01:59Z</time>
      </trkpt>
      <trkpt lat="45.884367059916258" lon="7.927062548696995">
        <ele>1599.77</ele>
        <time>2014-02-23T13:02:21Z</time>
      </trkpt>
      <trkpt lat="45.884363958612084" lon="7.927037570625544">
        <ele>1599.77</ele>
        <time>2014-02-23T13:02:45Z</time>
      </trkpt>
      <trkpt lat="45.884346105158329" lon="7.927076295018196">
        <ele>1599.77</ele>
        <time>2014-02-23T13:03:08Z</time>
      </trkpt>
      <trkpt lat="45.884367814287543" lon="7.927083754912019">
        <ele>1599.77</ele>
        <time>2014-02-23T13:03:23Z</time>
      </trkpt>
      <trkpt lat="45.884365634992719" lon="7.927074367180467">
        <ele>1599.29</ele>
        <time>2014-02-23T13:03:46Z</time>
      </trkpt>
      <trkpt lat="45.884358929470181" lon="7.927093394100666">
        <ele>1599.77</ele>
        <time>2014-02-23T13:03:59Z</time>
      </trkpt>
      <trkpt lat="45.884349290281534" lon="7.927072523161769">
        <ele>1599.77</ele>
        <time>2014-02-23T13:04:24Z</time>
      </trkpt>
      <trkpt lat="45.884336298331618" lon="7.927073277533054">
        <ele>1599.77</ele>
        <time>2014-02-23T13:04:39Z</time>
      </trkpt>
      <trkpt lat="45.884345434606075" lon="7.927067661657929">
        <ele>1599.29</ele>
        <time>2014-02-23T13:04:58Z</time>
      </trkpt>
      <trkpt lat="45.884345937520266" lon="7.927061039954424">
        <ele>1599.77</ele>
        <time>2014-02-23T13:05:13Z</time>
      </trkpt>
      <trkpt lat="45.884351888671517" lon="7.927065901458263">
        <ele>1599.77</ele>
        <time>2014-02-23T13:05:29Z</time>
      </trkpt>
      <trkpt lat="45.884349290281534" lon="7.927073109894991">
        <ele>1599.77</ele>
        <time>2014-02-23T13:05:40Z</time>
      </trkpt>
      <trkpt lat="45.884377118200064" lon="7.927092891186476">
        <ele>1599.29</ele>
        <time>2014-02-23T13:05:59Z</time>
      </trkpt>
      <trkpt lat="45.884400838986039" lon="7.927089370787144">
        <ele>1599.77</ele>
        <time>2014-02-23T13:06:21Z</time>
      </trkpt>
      <trkpt lat="45.88441357947886" lon="7.927112504839897">
        <ele>1599.29</ele>
        <time>2014-02-23T13:06:26Z</time>
      </trkpt>
      <trkpt lat="45.884465798735619" lon="7.927197078242898">
        <ele>1599.29</ele>
        <time>2014-02-23T13:06:34Z</time>
      </trkpt>
      <trkpt lat="45.884487759321928" lon="7.927259355783463">
        <ele>1599.77</ele>
        <time>2014-02-23T13:06:49Z</time>
      </trkpt>
      <trkpt lat="45.884495889768004" lon="7.92728902772069">
        <ele>1600.25</ele>
        <time>2014-02-23T13:07:06Z</time>
      </trkpt>
      <trkpt lat="45.884434953331947" lon="7.927345773205161">
        <ele>1599.29</ele>
        <time>2014-02-23T13:07:19Z</time>
      </trkpt>
      <trkpt lat="45.884337220340967" lon="7.927395477890968">
        <ele>1598.3299999999999</ele>
        <time>2014-02-23T13:07:33Z</time>
      </trkpt>
      <trkpt lat="45.884250048547983" lon="7.927481476217508">
        <ele>1597.8499999999999</ele>
        <time>2014-02-23T13:07:47Z</time>
      </trkpt>
      <trkpt lat="45.884219370782375" lon="7.927500335499644">
        <ele>1598.3299999999999</ele>
        <time>2014-02-23T13:07:51Z</time>
      </trkpt>
      <trkpt lat="45.884205792099237" lon="7.927519949153066">
        <ele>1598.3299999999999</ele>
        <time>2014-02-23T13:07:53Z</time>
      </trkpt>
      <trkpt lat="45.884166397154331" lon="7.927568228915334">
        <ele>1597.8499999999999</ele>
        <time>2014-02-23T13:07:59Z</time>
      </trkpt>
      <trkpt lat="45.884122224524617" lon="7.927643414586783">
        <ele>1597.8499999999999</ele>
        <time>2014-02-23T13:08:07Z</time>
      </trkpt>
      <trkpt lat="45.884063802659512" lon="7.927664536982775">
        <ele>1597.3699999999999</ele>
        <time>2014-02-23T13:08:19Z</time>
      </trkpt>
      <trkpt lat="45.884072603657842" lon="7.927672667428851">
        <ele>1596.8900000000001</ele>
        <time>2014-02-23T13:08:27Z</time>
      </trkpt>
      <trkpt lat="45.883981492370367" lon="7.927815075963736">
        <ele>1595.9300000000001</ele>
        <time>2014-02-23T13:08:39Z</time>
      </trkpt>
      <trkpt lat="45.883825924247503" lon="7.92795404791832">
        <ele>1594.48</ele>
        <time>2014-02-23T13:08:52Z</time>
      </trkpt>
      <trkpt lat="45.883692232891917" lon="7.928088577464223">
        <ele>1592.5599999999999</ele>
        <time>2014-02-23T13:09:04Z</time>
      </trkpt>
      <trkpt lat="45.883622327819467" lon="7.928355960175395">
        <ele>1589.6800000000001</ele>
        <time>2014-02-23T13:09:18Z</time>
      </trkpt>
      <trkpt lat="45.883583351969719" lon="7.9285819362849">
        <ele>1586.3099999999999</ele>
        <time>2014-02-23T13:09:30Z</time>
      </trkpt>
      <trkpt lat="45.883569102734327" lon="7.928805481642485">
        <ele>1583.4300000000001</ele>
        <time>2014-02-23T13:09:42Z</time>
      </trkpt>
      <trkpt lat="45.883557787165046" lon="7.929073618724942">
        <ele>1580.54</ele>
        <time>2014-02-23T13:09:56Z</time>
      </trkpt>
      <trkpt lat="45.88355703279376" lon="7.929090801626444">
        <ele>1580.0599999999999</ele>
        <time>2014-02-23T13:09:57Z</time>
      </trkpt>
      <trkpt lat="45.883551249280572" lon="7.929203705862165">
        <ele>1579.5799999999999</ele>
        <time>2014-02-23T13:10:03Z</time>
      </trkpt>
      <trkpt lat="45.883533898741007" lon="7.92948198504746">
        <ele>1577.6600000000001</ele>
        <time>2014-02-23T13:10:18Z</time>
      </trkpt>
      <trkpt lat="45.883523169904947" lon="7.929587680846453">
        <ele>1577.1800000000001</ele>
        <time>2014-02-23T13:10:24Z</time>
      </trkpt>
      <trkpt lat="45.883453767746687" lon="7.929524397477508">
        <ele>1573.3299999999999</ele>
        <time>2014-02-23T13:10:33Z</time>
      </trkpt>
      <trkpt lat="45.883435076102614" lon="7.929491875693202">
        <ele>1573.8199999999999</ele>
        <time>2014-02-23T13:10:37Z</time>
      </trkpt>
      <trkpt lat="45.883345892652869" lon="7.929546777158976">
        <ele>1569.49</ele>
        <time>2014-02-23T13:10:43Z</time>
      </trkpt>
      <trkpt lat="45.883318316191435" lon="7.929541580379009">
        <ele>1568.05</ele>
        <time>2014-02-23T13:10:47Z</time>
      </trkpt>
      <trkpt lat="45.883302222937346" lon="7.929612826555967">
        <ele>1565.6400000000001</ele>
        <time>2014-02-23T13:10:54Z</time>
      </trkpt>
      <trkpt lat="45.883300127461553" lon="7.929634703323245">
        <ele>1564.6800000000001</ele>
        <time>2014-02-23T13:10:56Z</time>
      </trkpt>
      <trkpt lat="45.883274981752038" lon="7.929678037762642">
        <ele>1563.72</ele>
        <time>2014-02-23T13:11:00Z</time>
      </trkpt>
      <trkpt lat="45.883271964266896" lon="7.929709553718567">
        <ele>1562.76</ele>
        <time>2014-02-23T13:11:02Z</time>
      </trkpt>
      <trkpt lat="45.88326433673501" lon="7.929646605625749">
        <ele>1563.24</ele>
        <time>2014-02-23T13:11:13Z</time>
      </trkpt>
      <trkpt lat="45.883265007287264" lon="7.929635206237435">
        <ele>1563.72</ele>
        <time>2014-02-23T13:11:14Z</time>
      </trkpt>
      <trkpt lat="45.883293505758047" lon="7.929516853764653">
        <ele>1567.0899999999999</ele>
        <time>2014-02-23T13:11:26Z</time>
      </trkpt>
      <trkpt lat="45.883306581526995" lon="7.929485253989697">
        <ele>1567.5699999999999</ele>
        <time>2014-02-23T13:11:29Z</time>
      </trkpt>
      <trkpt lat="45.883344300091267" lon="7.929331529885531">
        <ele>1570.45</ele>
        <time>2014-02-23T13:11:43Z</time>
      </trkpt>
      <trkpt lat="45.883394088596106" lon="7.929254081100225">
        <ele>1572.8499999999999</ele>
        <time>2014-02-23T13:11:55Z</time>
      </trkpt>
      <trkpt lat="45.883425856009126" lon="7.929176297038794">
        <ele>1574.78</ele>
        <time>2014-02-23T13:12:07Z</time>
      </trkpt>
      <trkpt lat="45.883468184620142" lon="7.929096752777696">
        <ele>1577.1800000000001</ele>
        <time>2014-02-23T13:12:20Z</time>
      </trkpt>
      <trkpt lat="45.883483188226819" lon="7.929047467187047">
        <ele>1578.6199999999999</ele>
        <time>2014-02-23T13:12:32Z</time>
      </trkpt>
      <trkpt lat="45.883501544594765" lon="7.928925678133965">
        <ele>1581.03</ele>
        <time>2014-02-23T13:12:45Z</time>
      </trkpt>
      <trkpt lat="45.883531803265214" lon="7.928805900737643">
        <ele>1583.4300000000001</ele>
        <time>2014-02-23T13:12:58Z</time>
      </trkpt>
      <trkpt lat="45.883525516837835" lon="7.9287666734308">
        <ele>1583.9100000000001</ele>
        <time>2014-02-23T13:13:04Z</time>
      </trkpt>
      <trkpt lat="45.883535910397768" lon="7.928672041743994">
        <ele>1584.8699999999999</ele>
        <time>2014-02-23T13:13:14Z</time>
      </trkpt>
      <trkpt lat="45.883541190996766" lon="7.92852234095335">
        <ele>1586.79</ele>
        <time>2014-02-23T13:13:27Z</time>
      </trkpt>
      <trkpt lat="45.883566504344344" lon="7.928384710103273">
        <ele>1588.72</ele>
        <time>2014-02-23T13:13:39Z</time>
      </trkpt>
      <trkpt lat="45.883603049442172" lon="7.928274571895599">
        <ele>1589.6800000000001</ele>
        <time>2014-02-23T13:13:49Z</time>
      </trkpt>
      <trkpt lat="45.883618807420135" lon="7.928187903016806">
        <ele>1590.6400000000001</ele>
        <time>2014-02-23T13:13:56Z</time>
      </trkpt>
      <trkpt lat="45.883632218465209" lon="7.92811137624085">
        <ele>1591.5999999999999</ele>
        <time>2014-02-23T13:14:01Z</time>
      </trkpt>
      <trkpt lat="45.883652502670884" lon="7.928061001002789">
        <ele>1591.5999999999999</ele>
        <time>2014-02-23T13:14:05Z</time>
      </trkpt>
      <trkpt lat="45.883723497390747" lon="7.927938122302294">
        <ele>1592.5599999999999</ele>
        <time>2014-02-23T13:14:17Z</time>
      </trkpt>
      <trkpt lat="45.88375392369926" lon="7.927907025441527">
        <ele>1593.52</ele>
        <time>2014-02-23T13:14:22Z</time>
      </trkpt>
      <trkpt lat="45.883807651698589" lon="7.92787148617208">
        <ele>1594</ele>
        <time>2014-02-23T13:14:29Z</time>
      </trkpt>
      <trkpt lat="45.883855596184731" lon="7.927882969379425">
        <ele>1594.48</ele>
        <time>2014-02-23T13:14:33Z</time>
      </trkpt>
      <trkpt lat="45.883905133232474" lon="7.92793108150363">
        <ele>1594.96</ele>
        <time>2014-02-23T13:14:39Z</time>
      </trkpt>
      <trkpt lat="45.883923154324293" lon="7.927990593016148">
        <ele>1594.96</ele>
        <time>2014-02-23T13:14:42Z</time>
      </trkpt>
      <trkpt lat="45.883914353325963" lon="7.928092181682587">
        <ele>1595.45</ele>
        <time>2014-02-23T13:14:54Z</time>
      </trkpt>
      <trkpt lat="45.883921729400754" lon="7.928114896640182">
        <ele>1595.9300000000001</ele>
        <time>2014-02-23T13:15:07Z</time>
      </trkpt>
      <trkpt lat="45.88392692618072" lon="7.928113890811801">
        <ele>1595.45</ele>
        <time>2014-02-23T13:15:21Z</time>
      </trkpt>
      <trkpt lat="45.883934302255511" lon="7.928121602162719">
        <ele>1595.45</ele>
        <time>2014-02-23T13:15:22Z</time>
      </trkpt>
      <trkpt lat="45.883939331397414" lon="7.92816418223083">
        <ele>1595.45</ele>
        <time>2014-02-23T13:15:27Z</time>
      </trkpt>
      <trkpt lat="45.883905552327633" lon="7.928230063989759">
        <ele>1594</ele>
        <time>2014-02-23T13:15:42Z</time>
      </trkpt>
      <trkpt lat="45.883923238143325" lon="7.928230818361044">
        <ele>1594.48</ele>
        <time>2014-02-23T13:15:59Z</time>
      </trkpt>
      <trkpt lat="45.883928937837481" lon="7.928247582167387">
        <ele>1594.48</ele>
        <time>2014-02-23T13:16:17Z</time>
      </trkpt>
      <trkpt lat="45.883936649188399" lon="7.928356463089585">
        <ele>1594.96</ele>
        <time>2014-02-23T13:16:32Z</time>
      </trkpt>
      <trkpt lat="45.883649066090584" lon="7.928226543590426">
        <ele>1594.48</ele>
        <time>2014-02-23T13:22:02Z</time>
      </trkpt>
      <trkpt lat="45.883608162403107" lon="7.928117075935006">
        <ele>1594.96</ele>
        <time>2014-02-23T13:22:21Z</time>
      </trkpt>
      <trkpt lat="45.88356239721179" lon="7.928092014044523">
        <ele>1595.45</ele>
        <time>2014-02-23T13:22:48Z</time>
      </trkpt>
      <trkpt lat="45.883790301159024" lon="7.928317654877901">
        <ele>1595.9300000000001</ele>
        <time>2014-02-23T13:23:10Z</time>
      </trkpt>
      <trkpt lat="45.883649066090584" lon="7.928129062056541">
        <ele>1610.8299999999999</ele>
        <time>2014-02-23T13:28:31Z</time>
      </trkpt>
      <trkpt lat="45.883781164884567" lon="7.928019007667899">
        <ele>1610.8299999999999</ele>
        <time>2014-02-23T13:28:54Z</time>
      </trkpt>
      <trkpt lat="45.883837826550007" lon="7.928061503916979">
        <ele>1611.3099999999999</ele>
        <time>2014-02-23T13:29:15Z</time>
      </trkpt>
      <trkpt lat="45.883735064417124" lon="7.928123865276575">
        <ele>1611.3099999999999</ele>
        <time>2014-02-23T13:29:35Z</time>
      </trkpt>
      <trkpt lat="45.883805556222796" lon="7.928057564422488">
        <ele>1611.79</ele>
        <time>2014-02-23T13:29:58Z</time>
      </trkpt>
      <trkpt lat="45.883758617565036" lon="7.928013475611806">
        <ele>1611.79</ele>
        <time>2014-02-23T13:30:08Z</time>
      </trkpt>
      <trkpt lat="45.883512357249856" lon="7.928081871941686">
        <ele>1611.79</ele>
        <time>2014-02-23T13:30:28Z</time>
      </trkpt>
      <trkpt lat="45.883526438847184" lon="7.928022611886263">
        <ele>1611.79</ele>
        <time>2014-02-23T13:30:56Z</time>
      </trkpt>
      <trkpt lat="45.883632134646177" lon="7.927915742620826">
        <ele>1611.79</ele>
        <time>2014-02-23T13:31:20Z</time>
      </trkpt>
      <trkpt lat="45.883772950619459" lon="7.927985480055213">
        <ele>1611.79</ele>
        <time>2014-02-23T13:31:41Z</time>
      </trkpt>
      <trkpt lat="45.883761383593082" lon="7.927987659350038">
        <ele>1611.79</ele>
        <time>2014-02-23T13:32:07Z</time>
      </trkpt>
      <trkpt lat="45.883741015568376" lon="7.928216569125652">
        <ele>1611.79</ele>
        <time>2014-02-23T13:32:36Z</time>
      </trkpt>
      <trkpt lat="45.883703883737326" lon="7.928215898573399">
        <ele>1612.27</ele>
        <time>2014-02-23T13:32:39Z</time>
      </trkpt>
      <trkpt lat="45.88350816629827" lon="7.928148675709963">
        <ele>1612.27</ele>
        <time>2014-02-23T13:32:56Z</time>
      </trkpt>
      <trkpt lat="45.883578490465879" lon="7.928192680701613">
        <ele>1612.75</ele>
        <time>2014-02-23T13:33:19Z</time>
      </trkpt>
      <trkpt lat="45.883734226226807" lon="7.928094528615475">
        <ele>1612.27</ele>
        <time>2014-02-23T13:33:47Z</time>
      </trkpt>
      <trkpt lat="45.883894991129637" lon="7.928099809214473">
        <ele>1612.75</ele>
        <time>2014-02-23T13:34:12Z</time>
      </trkpt>
      <trkpt lat="45.883862050250173" lon="7.928160997107625">
        <ele>1612.27</ele>
        <time>2014-02-23T13:34:42Z</time>
      </trkpt>
      <trkpt lat="45.883917538449168" lon="7.928084470331669">
        <ele>1612.75</ele>
        <time>2014-02-23T13:35:15Z</time>
      </trkpt>
      <trkpt lat="45.883946875110269" lon="7.928023366257548">
        <ele>1612.75</ele>
        <time>2014-02-23T13:35:23Z</time>
      </trkpt>
      <trkpt lat="45.883826175704598" lon="7.927812142297626">
        <ele>1612.75</ele>
        <time>2014-02-23T13:35:53Z</time>
      </trkpt>
      <trkpt lat="45.88379792869091" lon="7.928041554987431">
        <ele>1612.75</ele>
        <time>2014-02-23T13:36:24Z</time>
      </trkpt>
      <trkpt lat="45.88372508995235" lon="7.928062761202455">
        <ele>1612.75</ele>
        <time>2014-02-23T13:36:52Z</time>
      </trkpt>
      <trkpt lat="45.88379692286253" lon="7.928021857514978">
        <ele>1612.27</ele>
        <time>2014-02-23T13:37:18Z</time>
      </trkpt>
      <trkpt lat="45.883607072755694" lon="7.927800826728344">
        <ele>1612.75</ele>
        <time>2014-02-23T13:37:32Z</time>
      </trkpt>
      <trkpt lat="45.883468436077237" lon="7.927732765674591">
        <ele>1612.75</ele>
        <time>2014-02-23T13:37:49Z</time>
      </trkpt>
      <trkpt lat="45.883497605100274" lon="7.927793199196458">
        <ele>1612.75</ele>
        <time>2014-02-23T13:37:53Z</time>
      </trkpt>
      <trkpt lat="45.88329560123384" lon="7.928131660446525">
        <ele>1612.75</ele>
        <time>2014-02-23T13:38:15Z</time>
      </trkpt>
      <trkpt lat="45.882897041738033" lon="7.928250934928656">
        <ele>1612.75</ele>
        <time>2014-02-23T13:38:45Z</time>
      </trkpt>
      <trkpt lat="45.882617337629199" lon="7.928188070654869">
        <ele>1613.23</ele>
        <time>2014-02-23T13:39:21Z</time>
      </trkpt>
      <trkpt lat="45.883487714454532" lon="7.928125793114305">
        <ele>1613.23</ele>
        <time>2014-02-23T13:39:56Z</time>
      </trkpt>
      <trkpt lat="45.88366599753499" lon="7.928192932158709">
        <ele>1613.23</ele>
        <time>2014-02-23T13:40:21Z</time>
      </trkpt>
      <trkpt lat="45.883870683610439" lon="7.928174491971731">
        <ele>1613.23</ele>
        <time>2014-02-23T13:40:47Z</time>
      </trkpt>
      <trkpt lat="45.883994987234473" lon="7.928192261606455">
        <ele>1612.75</ele>
        <time>2014-02-23T13:41:13Z</time>
      </trkpt>
      <trkpt lat="45.883942600339651" lon="7.928170971572399">
        <ele>1613.23</ele>
        <time>2014-02-23T13:41:39Z</time>
      </trkpt>
      <trkpt lat="45.883962884545326" lon="7.928182538598776">
        <ele>1612.75</ele>
        <time>2014-02-23T13:41:44Z</time>
      </trkpt>
      <trkpt lat="45.883917706087232" lon="7.928185136988759">
        <ele>1612.75</ele>
        <time>2014-02-23T13:41:48Z</time>
      </trkpt>
      <trkpt lat="45.883498694747686" lon="7.928140377625823">
        <ele>1613.23</ele>
        <time>2014-02-23T13:42:11Z</time>
      </trkpt>
      <trkpt lat="45.883265342563391" lon="7.928241798654199">
        <ele>1612.75</ele>
        <time>2014-02-23T13:42:35Z</time>
      </trkpt>
      <trkpt lat="45.883102985098958" lon="7.928224699571729">
        <ele>1612.75</ele>
        <time>2014-02-23T13:43:03Z</time>
      </trkpt>
      <trkpt lat="45.883007347583771" lon="7.928199470043182">
        <ele>1613.23</ele>
        <time>2014-02-23T13:43:31Z</time>
      </trkpt>
      <trkpt lat="45.883268108591437" lon="7.928135935217142">
        <ele>1613.23</ele>
        <time>2014-02-23T13:43:56Z</time>
      </trkpt>
      <trkpt lat="45.883410768583417" lon="7.928096121177077">
        <ele>1613.23</ele>
        <time>2014-02-23T13:44:22Z</time>
      </trkpt>
      <trkpt lat="45.883506154641509" lon="7.928119171410799">
        <ele>1612.75</ele>
        <time>2014-02-23T13:44:50Z</time>
      </trkpt>
      <trkpt lat="45.883580502122641" lon="7.928113136440516">
        <ele>1613.23</ele>
        <time>2014-02-23T13:45:14Z</time>
      </trkpt>
      <trkpt lat="45.883528366684914" lon="7.928127720952034">
        <ele>1613.23</ele>
        <time>2014-02-23T13:45:39Z</time>
      </trkpt>
      <trkpt lat="45.883503975346684" lon="7.927998807281256">
        <ele>1613.23</ele>
        <time>2014-02-23T13:46:01Z</time>
      </trkpt>
      <trkpt lat="45.883545717224479" lon="7.928003752604127">
        <ele>1613.23</ele>
        <time>2014-02-23T13:46:05Z</time>
      </trkpt>
      <trkpt lat="45.883629452437162" lon="7.928047841414809">
        <ele>1613.71</ele>
        <time>2014-02-23T13:46:26Z</time>
      </trkpt>
      <trkpt lat="45.883813099935651" lon="7.928116740658879">
        <ele>1613.71</ele>
        <time>2014-02-23T13:46:49Z</time>
      </trkpt>
      <trkpt lat="45.883906139060855" lon="7.928144233301282">
        <ele>1613.23</ele>
        <time>2014-02-23T13:47:14Z</time>
      </trkpt>
      <trkpt lat="45.883876634761691" lon="7.928138868883252">
        <ele>1613.23</ele>
        <time>2014-02-23T13:47:19Z</time>
      </trkpt>
      <trkpt lat="45.883954502642155" lon="7.928162086755037">
        <ele>1612.75</ele>
        <time>2014-02-23T13:47:43Z</time>
      </trkpt>
      <trkpt lat="45.88392005302012" lon="7.928045494481921">
        <ele>1613.23</ele>
        <time>2014-02-23T13:48:11Z</time>
      </trkpt>
      <trkpt lat="45.883924830704927" lon="7.928047757595778">
        <ele>1613.23</ele>
        <time>2014-02-23T13:48:31Z</time>
      </trkpt>
      <trkpt lat="45.88398358784616" lon="7.928088074550033">
        <ele>1613.23</ele>
        <time>2014-02-23T13:49:00Z</time>
      </trkpt>
      <trkpt lat="45.883949976414442" lon="7.928121099248529">
        <ele>1613.23</ele>
        <time>2014-02-23T13:49:30Z</time>
      </trkpt>
      <trkpt lat="45.883913096040487" lon="7.928148591890931">
        <ele>1613.23</ele>
        <time>2014-02-23T13:49:57Z</time>
      </trkpt>
      <trkpt lat="45.883444882929325" lon="7.928258897736669">
        <ele>1613.23</ele>
        <time>2014-02-23T13:50:16Z</time>
      </trkpt>
      <trkpt lat="45.882709538564086" lon="7.928362246602774">
        <ele>1613.23</ele>
        <time>2014-02-23T13:50:48Z</time>
      </trkpt>
      <trkpt lat="45.883056633174419" lon="7.928205253556371">
        <ele>1613.23</ele>
        <time>2014-02-23T13:51:11Z</time>
      </trkpt>
      <trkpt lat="45.883243130519986" lon="7.928197123110294">
        <ele>1613.23</ele>
        <time>2014-02-23T13:51:14Z</time>
      </trkpt>
      <trkpt lat="45.883212285116315" lon="7.928121769800782">
        <ele>1612.75</ele>
        <time>2014-02-23T13:51:35Z</time>
      </trkpt>
      <trkpt lat="45.88316953741014" lon="7.928191088140011">
        <ele>1613.23</ele>
        <time>2014-02-23T13:51:56Z</time>
      </trkpt>
      <trkpt lat="45.883274478837848" lon="7.928228806704283">
        <ele>1612.75</ele>
        <time>2014-02-23T13:52:09Z</time>
      </trkpt>
      <trkpt lat="45.883738920092583" lon="7.928215395659208">
        <ele>1612.75</ele>
        <time>2014-02-23T13:52:38Z</time>
      </trkpt>
      <trkpt lat="45.884192297235131" lon="7.928186394274235">
        <ele>1613.23</ele>
        <time>2014-02-23T13:52:58Z</time>
      </trkpt>
      <trkpt lat="45.884687416255474" lon="7.928095115348697">
        <ele>1613.71</ele>
        <time>2014-02-23T13:53:25Z</time>
      </trkpt>
      <trkpt lat="45.884517263621092" lon="7.928062258288264">
        <ele>1613.23</ele>
        <time>2014-02-23T13:53:50Z</time>
      </trkpt>
      <trkpt lat="45.884644500911236" lon="7.927994029596448">
        <ele>1613.71</ele>
        <time>2014-02-23T13:54:30Z</time>
      </trkpt>
      <trkpt lat="45.884261280298233" lon="7.928094444796443">
        <ele>1613.71</ele>
        <time>2014-02-23T13:54:36Z</time>
      </trkpt>
      <trkpt lat="45.883644372224808" lon="7.928271302953363">
        <ele>1613.23</ele>
        <time>2014-02-23T13:55:12Z</time>
      </trkpt>
      <trkpt lat="45.883837575092912" lon="7.928572129458189">
        <ele>1613.71</ele>
        <time>2014-02-23T13:56:21Z</time>
      </trkpt>
      <trkpt lat="45.88376322761178" lon="7.928467188030481">
        <ele>1613.71</ele>
        <time>2014-02-23T13:56:57Z</time>
      </trkpt>
      <trkpt lat="45.883851321414113" lon="7.928218832239509">
        <ele>1612.75</ele>
        <time>2014-02-23T13:57:52Z</time>
      </trkpt>
      <trkpt lat="45.883908988907933" lon="7.928198967128992">
        <ele>1612.75</ele>
        <time>2014-02-23T13:58:11Z</time>
      </trkpt>
      <trkpt lat="45.883943689987063" lon="7.928174659609795">
        <ele>1612.75</ele>
        <time>2014-02-23T13:58:30Z</time>
      </trkpt>
      <trkpt lat="45.883907731622458" lon="7.928183125331998">
        <ele>1612.75</ele>
        <time>2014-02-23T13:58:47Z</time>
      </trkpt>
      <trkpt lat="45.883889123797417" lon="7.928166529163718">
        <ele>1613.71</ele>
        <time>2014-02-23T13:58:58Z</time>
      </trkpt>
      <trkpt lat="45.883898343890905" lon="7.928143395110965">
        <ele>1614.1900000000001</ele>
        <time>2014-02-23T13:59:02Z</time>
      </trkpt>
      <trkpt lat="45.883902618661523" lon="7.928031831979752">
        <ele>1613.23</ele>
        <time>2014-02-23T13:59:12Z</time>
      </trkpt>
      <trkpt lat="45.88390295393765" lon="7.928010122850537">
        <ele>1612.75</ele>
        <time>2014-02-23T13:59:43Z</time>
      </trkpt>
      <trkpt lat="45.883944779634476" lon="7.928041974082589">
        <ele>1612.75</ele>
        <time>2014-02-23T14:00:05Z</time>
      </trkpt>
      <trkpt lat="45.883952239528298" lon="7.928004423156381">
        <ele>1611.79</ele>
        <time>2014-02-23T14:00:34Z</time>
      </trkpt>
      <trkpt lat="45.883939415216446" lon="7.928062006831169">
        <ele>1612.27</ele>
        <time>2014-02-23T14:00:51Z</time>
      </trkpt>
      <trkpt lat="45.883922064676881" lon="7.928038537502289">
        <ele>1613.23</ele>
        <time>2014-02-23T14:01:00Z</time>
      </trkpt>
      <trkpt lat="45.88392298668623" lon="7.928034095093608">
        <ele>1612.27</ele>
        <time>2014-02-23T14:01:19Z</time>
      </trkpt>
      <trkpt lat="45.883902786299586" lon="7.928040465340018">
        <ele>1612.27</ele>
        <time>2014-02-23T14:01:30Z</time>
      </trkpt>
      <trkpt lat="45.883916616439819" lon="7.928022611886263">
        <ele>1612.27</ele>
        <time>2014-02-23T14:01:47Z</time>
      </trkpt>
      <trkpt lat="45.883899601176381" lon="7.928039291873574">
        <ele>1612.27</ele>
        <time>2014-02-23T14:02:13Z</time>
      </trkpt>
      <trkpt lat="45.883895494043827" lon="7.92799218557775">
        <ele>1611.79</ele>
        <time>2014-02-23T14:02:35Z</time>
      </trkpt>
      <trkpt lat="45.883900104090571" lon="7.928042896091938">
        <ele>1611.3099999999999</ele>
        <time>2014-02-23T14:03:02Z</time>
      </trkpt>
      <trkpt lat="45.883903624489903" lon="7.928032502532005">
        <ele>1611.3099999999999</ele>
        <time>2014-02-23T14:03:25Z</time>
      </trkpt>
      <trkpt lat="45.883912676945329" lon="7.928037364035845">
        <ele>1611.3099999999999</ele>
        <time>2014-02-23T14:03:41Z</time>
      </trkpt>
      <trkpt lat="45.883908737450838" lon="7.928030239418149">
        <ele>1611.3099999999999</ele>
        <time>2014-02-23T14:03:48Z</time>
      </trkpt>
      <trkpt lat="45.883924411609769" lon="7.927962010726333">
        <ele>1611.3099999999999</ele>
        <time>2014-02-23T14:03:53Z</time>
      </trkpt>
      <trkpt lat="45.883992221206427" lon="7.927830666303635">
        <ele>1610.3499999999999</ele>
        <time>2014-02-23T14:04:04Z</time>
      </trkpt>
      <trkpt lat="45.884007308632135" lon="7.927783895283938">
        <ele>1611.3099999999999</ele>
        <time>2014-02-23T14:04:09Z</time>
      </trkpt>
      <trkpt lat="45.884014097973704" lon="7.927757576107979">
        <ele>1610.8299999999999</ele>
        <time>2014-02-23T14:04:11Z</time>
      </trkpt>
      <trkpt lat="45.884136892855167" lon="7.927514165639877">
        <ele>1612.27</ele>
        <time>2014-02-23T14:04:28Z</time>
      </trkpt>
      <trkpt lat="45.88422104716301" lon="7.927407464012504">
        <ele>1612.75</ele>
        <time>2014-02-23T14:04:40Z</time>
      </trkpt>
      <trkpt lat="45.884355492889881" lon="7.92730713263154">
        <ele>1613.23</ele>
        <time>2014-02-23T14:04:55Z</time>
      </trkpt>
      <trkpt lat="45.884478287771344" lon="7.927237814292312">
        <ele>1614.6700000000001</ele>
        <time>2014-02-23T14:05:09Z</time>
      </trkpt>
      <trkpt lat="45.884500332176685" lon="7.927225241437554">
        <ele>1613.23</ele>
        <time>2014-02-23T14:05:19Z</time>
      </trkpt>
      <trkpt lat="45.884624803438783" lon="7.927161706611514">
        <ele>1609.8599999999999</ele>
        <time>2014-02-23T14:05:30Z</time>
      </trkpt>
      <trkpt lat="45.884718177840114" lon="7.92711510322988">
        <ele>1608.4200000000001</ele>
        <time>2014-02-23T14:05:41Z</time>
      </trkpt>
      <trkpt lat="45.884739300236106" lon="7.927113007754087">
        <ele>1607.9400000000001</ele>
        <time>2014-02-23T14:05:43Z</time>
      </trkpt>
      <trkpt lat="45.88488170877099" lon="7.927041342481971">
        <ele>1605.54</ele>
        <time>2014-02-23T14:05:58Z</time>
      </trkpt>
      <trkpt lat="45.884893611073494" lon="7.927020387724042">
        <ele>1605.0599999999999</ele>
        <time>2014-02-23T14:06:00Z</time>
      </trkpt>
      <trkpt lat="45.884962007403374" lon="7.926922906190157">
        <ele>1606.5</ele>
        <time>2014-02-23T14:06:07Z</time>
      </trkpt>
      <trkpt lat="45.885015903040767" lon="7.926854593679309">
        <ele>1606.5</ele>
        <time>2014-02-23T14:06:11Z</time>
      </trkpt>
      <trkpt lat="45.885091340169311" lon="7.926813270896673">
        <ele>1607.9400000000001</ele>
        <time>2014-02-23T14:06:21Z</time>
      </trkpt>
      <trkpt lat="45.885151270776987" lon="7.926859790459275">
        <ele>1609.8599999999999</ele>
        <time>2014-02-23T14:06:35Z</time>
      </trkpt>
      <trkpt lat="45.885150516405702" lon="7.926931288093329">
        <ele>1612.75</ele>
        <time>2014-02-23T14:06:47Z</time>
      </trkpt>
      <trkpt lat="45.88523299433291" lon="7.926897676661611">
        <ele>1613.71</ele>
        <time>2014-02-23T14:07:01Z</time>
      </trkpt>
      <trkpt lat="45.885243974626064" lon="7.927005216479302">
        <ele>1615.1500000000001</ele>
        <time>2014-02-23T14:07:13Z</time>
      </trkpt>
      <trkpt lat="45.885271383449435" lon="7.927087107673287">
        <ele>1617.0699999999999</ele>
        <time>2014-02-23T14:07:28Z</time>
      </trkpt>
      <trkpt lat="45.885325949639082" lon="7.927042851224542">
        <ele>1619</ele>
        <time>2014-02-23T14:07:41Z</time>
      </trkpt>
      <trkpt lat="45.885385042056441" lon="7.927022147923708">
        <ele>1620.4400000000001</ele>
        <time>2014-02-23T14:07:51Z</time>
      </trkpt>
      <trkpt lat="45.885380348190665" lon="7.927212752401829">
        <ele>1622.3599999999999</ele>
        <time>2014-02-23T14:08:07Z</time>
      </trkpt>
      <trkpt lat="45.885375235229731" lon="7.927310653030872">
        <ele>1623.8</ele>
        <time>2014-02-23T14:08:23Z</time>
      </trkpt>
      <trkpt lat="45.885421335697174" lon="7.927336888387799">
        <ele>1624.28</ele>
        <time>2014-02-23T14:08:36Z</time>
      </trkpt>
      <trkpt lat="45.88543969206512" lon="7.927313167601824">
        <ele>1624.77</ele>
        <time>2014-02-23T14:08:40Z</time>
      </trkpt>
      <trkpt lat="45.885518817231059" lon="7.927179392427206">
        <ele>1626.6900000000001</ele>
        <time>2014-02-23T14:08:57Z</time>
      </trkpt>
      <trkpt lat="45.885584363713861" lon="7.927124407142401">
        <ele>1626.6900000000001</ele>
        <time>2014-02-23T14:09:12Z</time>
      </trkpt>
      <trkpt lat="45.885648736730218" lon="7.927099848166108">
        <ele>1627.6500000000001</ele>
        <time>2014-02-23T14:09:26Z</time>
      </trkpt>
      <trkpt lat="45.885689472779632" lon="7.927076211199164">
        <ele>1628.6099999999999</ele>
        <time>2014-02-23T14:09:33Z</time>
      </trkpt>
      <trkpt lat="45.885812938213348" lon="7.92715516872704">
        <ele>1630.53</ele>
        <time>2014-02-23T14:09:48Z</time>
      </trkpt>
      <trkpt lat="45.885830456390977" lon="7.927165143191814">
        <ele>1631.01</ele>
        <time>2014-02-23T14:09:50Z</time>
      </trkpt>
      <trkpt lat="45.885896589607" lon="7.927258349955082">
        <ele>1631.98</ele>
        <time>2014-02-23T14:10:04Z</time>
      </trkpt>
      <trkpt lat="45.885871779173613" lon="7.927409140393138">
        <ele>1633.4200000000001</ele>
        <time>2014-02-23T14:10:20Z</time>
      </trkpt>
      <trkpt lat="45.885981749743223" lon="7.92752212844789">
        <ele>1636.3</ele>
        <time>2014-02-23T14:10:37Z</time>
      </trkpt>
      <trkpt lat="45.886070597916842" lon="7.927628997713327">
        <ele>1638.7</ele>
        <time>2014-02-23T14:10:54Z</time>
      </trkpt>
      <trkpt lat="45.886097168549895" lon="7.927665710449219">
        <ele>1640.1500000000001</ele>
        <time>2014-02-23T14:11:10Z</time>
      </trkpt>
      <trkpt lat="45.886158440262079" lon="7.927727652713656">
        <ele>1642.55</ele>
        <time>2014-02-23T14:11:24Z</time>
      </trkpt>
      <trkpt lat="45.886176628991961" lon="7.927901996299624">
        <ele>1642.55</ele>
        <time>2014-02-23T14:11:40Z</time>
      </trkpt>
      <trkpt lat="45.886176209896803" lon="7.927955221384764">
        <ele>1642.55</ele>
        <time>2014-02-23T14:11:47Z</time>
      </trkpt>
      <trkpt lat="45.88614477775991" lon="7.928115064278245">
        <ele>1642.55</ele>
        <time>2014-02-23T14:12:03Z</time>
      </trkpt>
      <trkpt lat="45.886208983138204" lon="7.928313380107284">
        <ele>1643.99</ele>
        <time>2014-02-23T14:12:20Z</time>
      </trkpt>
      <trkpt lat="45.886222058907151" lon="7.928497279062867">
        <ele>1646.4000000000001</ele>
        <time>2014-02-23T14:12:42Z</time>
      </trkpt>
      <trkpt lat="45.886188950389624" lon="7.928595431149006">
        <ele>1643.99</ele>
        <time>2014-02-23T14:12:58Z</time>
      </trkpt>
      <trkpt lat="45.886176377534866" lon="7.928656283766031">
        <ele>1643.99</ele>
        <time>2014-02-23T14:13:16Z</time>
      </trkpt>
      <trkpt lat="45.886167073622346" lon="7.928653853014112">
        <ele>1643.51</ele>
        <time>2014-02-23T14:13:35Z</time>
      </trkpt>
      <trkpt lat="45.886169755831361" lon="7.928689224645495">
        <ele>1643.51</ele>
        <time>2014-02-23T14:13:50Z</time>
      </trkpt>
      <trkpt lat="45.886203786358237" lon="7.928710514679551">
        <ele>1643.03</ele>
        <time>2014-02-23T14:14:04Z</time>
      </trkpt>
      <trkpt lat="45.886181239038706" lon="7.928746975958347">
        <ele>1643.03</ele>
        <time>2014-02-23T14:14:16Z</time>
      </trkpt>
      <trkpt lat="45.886145951226354" lon="7.928810846060515">
        <ele>1641.5899999999999</ele>
        <time>2014-02-23T14:14:28Z</time>
      </trkpt>
      <trkpt lat="45.886165061965585" lon="7.928705234080553">
        <ele>1643.03</ele>
        <time>2014-02-23T14:14:45Z</time>
      </trkpt>
      <trkpt lat="45.886198338121176" lon="7.928712945431471">
        <ele>1642.55</ele>
        <time>2014-02-23T14:15:05Z</time>
      </trkpt>
      <trkpt lat="45.886178556829691" lon="7.928744545206428">
        <ele>1642.0699999999999</ele>
        <time>2014-02-23T14:15:17Z</time>
      </trkpt>
      <trkpt lat="45.88617998175323" lon="7.928752088919282">
        <ele>1642.0699999999999</ele>
        <time>2014-02-23T14:15:18Z</time>
      </trkpt>
      <trkpt lat="45.88613597676158" lon="7.928937999531627">
        <ele>1639.6700000000001</ele>
        <time>2014-02-23T14:15:29Z</time>
      </trkpt>
      <trkpt lat="45.88607688434422" lon="7.929039001464844">
        <ele>1637.26</ele>
        <time>2014-02-23T14:15:36Z</time>
      </trkpt>
      <trkpt lat="45.886026257649064" lon="7.929112426936626">
        <ele>1636.3</ele>
        <time>2014-02-23T14:15:41Z</time>
      </trkpt>
      <trkpt lat="45.885923746973276" lon="7.929314933717251">
        <ele>1632.46</ele>
        <time>2014-02-23T14:15:56Z</time>
      </trkpt>
      <trkpt lat="45.885866414755583" lon="7.929444266483188">
        <ele>1630.05</ele>
        <time>2014-02-23T14:16:06Z</time>
      </trkpt>
      <trkpt lat="45.885874461382627" lon="7.929487936198711">
        <ele>1629.5699999999999</ele>
        <time>2014-02-23T14:16:09Z</time>
      </trkpt>
      <trkpt lat="45.885933889076114" lon="7.929542837664485">
        <ele>1628.6099999999999</ele>
        <time>2014-02-23T14:16:23Z</time>
      </trkpt>
      <trkpt lat="45.885937660932541" lon="7.929541412740946">
        <ele>1628.1300000000001</ele>
        <time>2014-02-23T14:16:26Z</time>
      </trkpt>
      <trkpt lat="45.885994238778949" lon="7.929561529308558">
        <ele>1627.1700000000001</ele>
        <time>2014-02-23T14:16:31Z</time>
      </trkpt>
      <trkpt lat="45.886041596531868" lon="7.92965398170054">
        <ele>1625.25</ele>
        <time>2014-02-23T14:16:39Z</time>
      </trkpt>
      <trkpt lat="45.886036483570933" lon="7.929684072732925">
        <ele>1626.21</ele>
        <time>2014-02-23T14:16:41Z</time>
      </trkpt>
      <trkpt lat="45.885997172445059" lon="7.929843831807375">
        <ele>1622.8399999999999</ele>
        <time>2014-02-23T14:16:51Z</time>
      </trkpt>
      <trkpt lat="45.885981163010001" lon="7.929978780448437">
        <ele>1621.4000000000001</ele>
        <time>2014-02-23T14:16:59Z</time>
      </trkpt>
      <trkpt lat="45.885951826348901" lon="7.930034687742591">
        <ele>1621.4000000000001</ele>
        <time>2014-02-23T14:17:04Z</time>
      </trkpt>
      <trkpt lat="45.886006308719516" lon="7.930269213393331">
        <ele>1618.04</ele>
        <time>2014-02-23T14:17:19Z</time>
      </trkpt>
      <trkpt lat="45.886004380881786" lon="7.930284636095166">
        <ele>1618.04</ele>
        <time>2014-02-23T14:17:20Z</time>
      </trkpt>
      <trkpt lat="45.88601628318429" lon="7.930378261953592">
        <ele>1617.0699999999999</ele>
        <time>2014-02-23T14:17:25Z</time>
      </trkpt>
      <trkpt lat="45.886029442772269" lon="7.930515808984637">
        <ele>1615.6300000000001</ele>
        <time>2014-02-23T14:17:39Z</time>
      </trkpt>
      <trkpt lat="45.886012343689799" lon="7.93076709844172">
        <ele>1615.6300000000001</ele>
        <time>2014-02-23T14:17:57Z</time>
      </trkpt>
      <trkpt lat="45.885992646217346" lon="7.93094546534121">
        <ele>1616.5899999999999</ele>
        <time>2014-02-23T14:18:13Z</time>
      </trkpt>
      <trkpt lat="45.886003291234374" lon="7.931040013208985">
        <ele>1616.1099999999999</ele>
        <time>2014-02-23T14:18:26Z</time>
      </trkpt>
      <trkpt lat="45.885954927653074" lon="7.931142104789615">
        <ele>1616.5899999999999</ele>
        <time>2014-02-23T14:18:38Z</time>
      </trkpt>
      <trkpt lat="45.885939253494143" lon="7.931278562173247">
        <ele>1614.6700000000001</ele>
        <time>2014-02-23T14:18:51Z</time>
      </trkpt>
      <trkpt lat="45.885919975116849" lon="7.931353244930506">
        <ele>1613.23</ele>
        <time>2014-02-23T14:19:00Z</time>
      </trkpt>
      <trkpt lat="45.885863984003663" lon="7.93134612031281">
        <ele>1612.27</ele>
        <time>2014-02-23T14:19:07Z</time>
      </trkpt>
      <trkpt lat="45.885872282087803" lon="7.931278897449374">
        <ele>1610.8299999999999</ele>
        <time>2014-02-23T14:19:12Z</time>
      </trkpt>
      <trkpt lat="45.885877227410674" lon="7.931165657937527">
        <ele>1608.9000000000001</ele>
        <time>2014-02-23T14:19:24Z</time>
      </trkpt>
      <trkpt lat="45.885856775566936" lon="7.931105894967914">
        <ele>1608.4200000000001</ele>
        <time>2014-02-23T14:19:36Z</time>
      </trkpt>
      <trkpt lat="45.885866079479456" lon="7.931057531386614">
        <ele>1608.4200000000001</ele>
        <time>2014-02-23T14:19:54Z</time>
      </trkpt>
      <trkpt lat="45.885847639292479" lon="7.931002965196967">
        <ele>1607.9400000000001</ele>
        <time>2014-02-23T14:20:12Z</time>
      </trkpt>
      <trkpt lat="45.885846549645066" lon="7.931018136441708">
        <ele>1606.98</ele>
        <time>2014-02-23T14:20:28Z</time>
      </trkpt>
      <trkpt lat="45.885826768353581" lon="7.931025344878435">
        <ele>1606.02</ele>
        <time>2014-02-23T14:20:43Z</time>
      </trkpt>
      <trkpt lat="45.88579491712153" lon="7.930966084823012">
        <ele>1606.02</ele>
        <time>2014-02-23T14:20:55Z</time>
      </trkpt>
      <trkpt lat="45.885763904079795" lon="7.930974885821343">
        <ele>1605.54</ele>
        <time>2014-02-23T14:21:07Z</time>
      </trkpt>
      <trkpt lat="45.88574898429215" lon="7.930898442864418">
        <ele>1604.0999999999999</ele>
        <time>2014-02-23T14:21:12Z</time>
      </trkpt>
      <trkpt lat="45.885733645409346" lon="7.930787047371268">
        <ele>1602.1700000000001</ele>
        <time>2014-02-23T14:21:26Z</time>
      </trkpt>
      <trkpt lat="45.885692657902837" lon="7.930714208632708">
        <ele>1600.25</ele>
        <time>2014-02-23T14:21:36Z</time>
      </trkpt>
      <trkpt lat="45.885678073391318" lon="7.930653188377619">
        <ele>1600.25</ele>
        <time>2014-02-23T14:21:50Z</time>
      </trkpt>
      <trkpt lat="45.885678827762604" lon="7.930645477026701">
        <ele>1599.77</ele>
        <time>2014-02-23T14:22:02Z</time>
      </trkpt>
      <trkpt lat="45.885702297091484" lon="7.930584205314517">
        <ele>1599.29</ele>
        <time>2014-02-23T14:22:13Z</time>
      </trkpt>
      <trkpt lat="45.885696765035391" lon="7.93056576512754">
        <ele>1598.8099999999999</ele>
        <time>2014-02-23T14:22:39Z</time>
      </trkpt>
      <trkpt lat="45.885667847469449" lon="7.930554701015353">
        <ele>1598.3299999999999</ele>
        <time>2014-02-23T14:22:43Z</time>
      </trkpt>
      <trkpt lat="45.885589476674795" lon="7.930433917790651">
        <ele>1595.9300000000001</ele>
        <time>2014-02-23T14:22:57Z</time>
      </trkpt>
      <trkpt lat="45.885547567158937" lon="7.930575907230377">
        <ele>1593.52</ele>
        <time>2014-02-23T14:23:10Z</time>
      </trkpt>
      <trkpt lat="45.885572461411357" lon="7.930723177269101">
        <ele>1591.5999999999999</ele>
        <time>2014-02-23T14:23:24Z</time>
      </trkpt>
      <trkpt lat="45.885591236874461" lon="7.930928952991962">
        <ele>1588.72</ele>
        <time>2014-02-23T14:23:39Z</time>
      </trkpt>
      <trkpt lat="45.885578412562609" lon="7.931040516123176">
        <ele>1587.75</ele>
        <time>2014-02-23T14:23:53Z</time>
      </trkpt>
      <trkpt lat="45.885603055357933" lon="7.931084856390953">
        <ele>1586.79</ele>
        <time>2014-02-23T14:24:04Z</time>
      </trkpt>
      <trkpt lat="45.885540945455432" lon="7.93122785165906">
        <ele>1584.8699999999999</ele>
        <time>2014-02-23T14:24:16Z</time>
      </trkpt>
      <trkpt lat="45.885530635714531" lon="7.931261630728841">
        <ele>1584.3900000000001</ele>
        <time>2014-02-23T14:24:19Z</time>
      </trkpt>
      <trkpt lat="45.885523008182645" lon="7.931286944076419">
        <ele>1583.9100000000001</ele>
        <time>2014-02-23T14:24:21Z</time>
      </trkpt>
      <trkpt lat="45.885450420901179" lon="7.931482242420316">
        <ele>1580.54</ele>
        <time>2014-02-23T14:24:36Z</time>
      </trkpt>
      <trkpt lat="45.88539082556963" lon="7.931657508015633">
        <ele>1578.1400000000001</ele>
        <time>2014-02-23T14:24:50Z</time>
      </trkpt>
      <trkpt lat="45.885381102561951" lon="7.931831851601601">
        <ele>1576.7</ele>
        <time>2014-02-23T14:25:03Z</time>
      </trkpt>
      <trkpt lat="45.8853595610708" lon="7.931912904605269">
        <ele>1575.74</ele>
        <time>2014-02-23T14:25:11Z</time>
      </trkpt>
      <trkpt lat="45.885334499180317" lon="7.931867390871048">
        <ele>1575.26</ele>
        <time>2014-02-23T14:25:15Z</time>
      </trkpt>
      <trkpt lat="45.885320417582989" lon="7.931706793606281">
        <ele>1572.8499999999999</ele>
        <time>2014-02-23T14:25:26Z</time>
      </trkpt>
      <trkpt lat="45.885311532765627" lon="7.931677205488086">
        <ele>1572.8499999999999</ele>
        <time>2014-02-23T14:25:29Z</time>
      </trkpt>
      <trkpt lat="45.885297702625394" lon="7.931432286277413">
        <ele>1571.4100000000001</ele>
        <time>2014-02-23T14:25:45Z</time>
      </trkpt>
      <trkpt lat="45.885314801707864" lon="7.931295912712812">
        <ele>1568.05</ele>
        <time>2014-02-23T14:25:58Z</time>
      </trkpt>
      <trkpt lat="45.885289404541254" lon="7.931214356794953">
        <ele>1567.0899999999999</ele>
        <time>2014-02-23T14:26:12Z</time>
      </trkpt>
      <trkpt lat="45.885244309902191" lon="7.931089717894793">
        <ele>1564.6800000000001</ele>
        <time>2014-02-23T14:26:24Z</time>
      </trkpt>
      <trkpt lat="45.885244561359286" lon="7.930984273552895">
        <ele>1563.72</ele>
        <time>2014-02-23T14:26:33Z</time>
      </trkpt>
      <trkpt lat="45.885240621864796" lon="7.930944124236703">
        <ele>1563.72</ele>
        <time>2014-02-23T14:26:36Z</time>
      </trkpt>
      <trkpt lat="45.885225450620055" lon="7.930736588314176">
        <ele>1560.8399999999999</ele>
        <time>2014-02-23T14:26:51Z</time>
      </trkpt>
      <trkpt lat="45.885215727612376" lon="7.930558891966939">
        <ele>1558.9200000000001</ele>
        <time>2014-02-23T14:27:04Z</time>
      </trkpt>
      <trkpt lat="45.885214805603027" lon="7.930533578619361">
        <ele>1558.4300000000001</ele>
        <time>2014-02-23T14:27:06Z</time>
      </trkpt>
      <trkpt lat="45.885215727612376" lon="7.930420003831387">
        <ele>1556.99</ele>
        <time>2014-02-23T14:27:14Z</time>
      </trkpt>
      <trkpt lat="45.885212793946266" lon="7.930271811783314">
        <ele>1555.55</ele>
        <time>2014-02-23T14:27:24Z</time>
      </trkpt>
      <trkpt lat="45.885217571631074" lon="7.930131247267127">
        <ele>1555.55</ele>
        <time>2014-02-23T14:27:36Z</time>
      </trkpt>
      <trkpt lat="45.885168705135584" lon="7.930086487904191">
        <ele>1554.5899999999999</ele>
        <time>2014-02-23T14:27:49Z</time>
      </trkpt>
      <trkpt lat="45.885122017934918" lon="7.930058911442757">
        <ele>1553.6300000000001</ele>
        <time>2014-02-23T14:28:05Z</time>
      </trkpt>
      <trkpt lat="45.885102907195687" lon="7.930052792653441">
        <ele>1553.1500000000001</ele>
        <time>2014-02-23T14:28:11Z</time>
      </trkpt>
      <trkpt lat="45.885012885555625" lon="7.929905271157622">
        <ele>1550.26</ele>
        <time>2014-02-23T14:28:26Z</time>
      </trkpt>
      <trkpt lat="45.884996792301536" lon="7.929881466552615">
        <ele>1550.26</ele>
        <time>2014-02-23T14:28:30Z</time>
      </trkpt>
      <trkpt lat="45.88490660302341" lon="7.929808963090181">
        <ele>1549.3</ele>
        <time>2014-02-23T14:28:43Z</time>
      </trkpt>
      <trkpt lat="45.88482110761106" lon="7.929870989173651">
        <ele>1545.9400000000001</ele>
        <time>2014-02-23T14:28:55Z</time>
      </trkpt>
      <trkpt lat="45.884796213358641" lon="7.929910970851779">
        <ele>1545.46</ele>
        <time>2014-02-23T14:28:59Z</time>
      </trkpt>
      <trkpt lat="45.88478003628552" lon="7.929959585890174">
        <ele>1544.5</ele>
        <time>2014-02-23T14:29:02Z</time>
      </trkpt>
      <trkpt lat="45.88485580869019" lon="7.930186148732901">
        <ele>1541.6099999999999</ele>
        <time>2014-02-23T14:29:16Z</time>
      </trkpt>
      <trkpt lat="45.884942980483174" lon="7.930337358266115">
        <ele>1540.6500000000001</ele>
        <time>2014-02-23T14:29:30Z</time>
      </trkpt>
      <trkpt lat="45.884931161999702" lon="7.930385302752256">
        <ele>1539.21</ele>
        <time>2014-02-23T14:29:35Z</time>
      </trkpt>
      <trkpt lat="45.88489780202508" lon="7.930488400161266">
        <ele>1537.77</ele>
        <time>2014-02-23T14:29:43Z</time>
      </trkpt>
      <trkpt lat="45.884882379323244" lon="7.93056333437562">
        <ele>1535.8399999999999</ele>
        <time>2014-02-23T14:29:48Z</time>
      </trkpt>
      <trkpt lat="45.884876931086183" lon="7.930578421801329">
        <ele>1535.8399999999999</ele>
        <time>2014-02-23T14:29:49Z</time>
      </trkpt>
      <trkpt lat="45.884808618575335" lon="7.930779000744224">
        <ele>1533.9200000000001</ele>
        <time>2014-02-23T14:30:05Z</time>
      </trkpt>
      <trkpt lat="45.884791268035769" lon="7.930829292163253">
        <ele>1533.4400000000001</ele>
        <time>2014-02-23T14:30:10Z</time>
      </trkpt>
      <trkpt lat="45.884709628298879" lon="7.93099575676024">
        <ele>1530.5599999999999</ele>
        <time>2014-02-23T14:30:24Z</time>
      </trkpt>
      <trkpt lat="45.88470040820539" lon="7.931033559143543">
        <ele>1530.0799999999999</ele>
        <time>2014-02-23T14:30:27Z</time>
      </trkpt>
      <trkpt lat="45.884681548923254" lon="7.93125718832016">
        <ele>1527.6700000000001</ele>
        <time>2014-02-23T14:30:42Z</time>
      </trkpt>
      <trkpt lat="45.884664785116911" lon="7.931431867182255">
        <ele>1524.3099999999999</ele>
        <time>2014-02-23T14:30:55Z</time>
      </trkpt>
      <trkpt lat="45.884634861722589" lon="7.931469585746527">
        <ele>1524.3099999999999</ele>
        <time>2014-02-23T14:30:59Z</time>
      </trkpt>
      <trkpt lat="45.884507456794381" lon="7.931597996503115">
        <ele>1520.46</ele>
        <time>2014-02-23T14:31:11Z</time>
      </trkpt>
      <trkpt lat="45.884499745443463" lon="7.931606629863381">
        <ele>1520.46</ele>
        <time>2014-02-23T14:31:12Z</time>
      </trkpt>
      <trkpt lat="45.884391786530614" lon="7.931776698678732">
        <ele>1517.5799999999999</ele>
        <time>2014-02-23T14:31:27Z</time>
      </trkpt>
      <trkpt lat="45.884403772652149" lon="7.931785248219967">
        <ele>1517.5799999999999</ele>
        <time>2014-02-23T14:31:35Z</time>
      </trkpt>
      <trkpt lat="45.884400336071849" lon="7.931776866316795">
        <ele>1516.6199999999999</ele>
        <time>2014-02-23T14:31:47Z</time>
      </trkpt>
      <trkpt lat="45.884302938356996" lon="7.93170964345336">
        <ele>1516.6199999999999</ele>
        <time>2014-02-23T14:32:12Z</time>
      </trkpt>
      <trkpt lat="45.884338309988379" lon="7.931766305118799">
        <ele>1517.0999999999999</ele>
        <time>2014-02-23T14:32:41Z</time>
      </trkpt>
      <trkpt lat="45.884351804852486" lon="7.931809304282069">
        <ele>1517.0999999999999</ele>
        <time>2014-02-23T14:33:04Z</time>
      </trkpt>
      <trkpt lat="45.884348787367344" lon="7.931783404201269">
        <ele>1517.0999999999999</ele>
        <time>2014-02-23T14:33:24Z</time>
      </trkpt>
      <trkpt lat="45.884329928085208" lon="7.931775273755193">
        <ele>1518.0599999999999</ele>
        <time>2014-02-23T14:33:33Z</time>
      </trkpt>
      <trkpt lat="45.884353229776025" lon="7.931744093075395">
        <ele>1518.0599999999999</ele>
        <time>2014-02-23T14:33:50Z</time>
      </trkpt>
      <trkpt lat="45.884430510923266" lon="7.931712409481406">
        <ele>1518.54</ele>
        <time>2014-02-23T14:34:17Z</time>
      </trkpt>
      <trkpt lat="45.884414752945304" lon="7.931780638173223">
        <ele>1518.0599999999999</ele>
        <time>2014-02-23T14:34:31Z</time>
      </trkpt>
      <trkpt lat="45.884391954168677" lon="7.931890189647675">
        <ele>1517.0999999999999</ele>
        <time>2014-02-23T14:34:50Z</time>
      </trkpt>
      <trkpt lat="45.884375358000398" lon="7.932044584304094">
        <ele>1515.1800000000001</ele>
        <time>2014-02-23T14:35:03Z</time>
      </trkpt>
      <trkpt lat="45.884408298879862" lon="7.932231752201915">
        <ele>1513.25</ele>
        <time>2014-02-23T14:35:17Z</time>
      </trkpt>
      <trkpt lat="45.884387763217092" lon="7.932470887899399">
        <ele>1512.77</ele>
        <time>2014-02-23T14:35:32Z</time>
      </trkpt>
      <trkpt lat="45.884266477078199" lon="7.932594604790211">
        <ele>1511.3299999999999</ele>
        <time>2014-02-23T14:35:46Z</time>
      </trkpt>
      <trkpt lat="45.88416681624949" lon="7.932663084939122">
        <ele>1511.3299999999999</ele>
        <time>2014-02-23T14:36:00Z</time>
      </trkpt>
      <trkpt lat="45.884095821529627" lon="7.932708179578185">
        <ele>1510.3699999999999</ele>
        <time>2014-02-23T14:36:15Z</time>
      </trkpt>
      <trkpt lat="45.883921980857849" lon="7.932836841791868">
        <ele>1507.97</ele>
        <time>2014-02-23T14:36:31Z</time>
      </trkpt>
      <trkpt lat="45.883772447705269" lon="7.932998277246952">
        <ele>1505.5599999999999</ele>
        <time>2014-02-23T14:36:46Z</time>
      </trkpt>
      <trkpt lat="45.883662141859531" lon="7.933161556720734">
        <ele>1503.6400000000001</ele>
        <time>2014-02-23T14:37:00Z</time>
      </trkpt>
      <trkpt lat="45.883542783558369" lon="7.933364817872644">
        <ele>1501.72</ele>
        <time>2014-02-23T14:37:14Z</time>
      </trkpt>
      <trkpt lat="45.883389227092266" lon="7.933586519211531">
        <ele>1498.8299999999999</ele>
        <time>2014-02-23T14:37:30Z</time>
      </trkpt>
      <trkpt lat="45.883198790252209" lon="7.933794055134058">
        <ele>1495.95</ele>
        <time>2014-02-23T14:37:48Z</time>
      </trkpt>
      <trkpt lat="45.883024781942368" lon="7.933956999331713">
        <ele>1493.0599999999999</ele>
        <time>2014-02-23T14:38:04Z</time>
      </trkpt>
      <trkpt lat="45.882796458899975" lon="7.934093540534377">
        <ele>1489.7</ele>
        <time>2014-02-23T14:38:22Z</time>
      </trkpt>
      <trkpt lat="45.882644327357411" lon="7.934200409799814">
        <ele>1487.3</ele>
        <time>2014-02-23T14:38:36Z</time>
      </trkpt>
      <trkpt lat="45.882462607696652" lon="7.934379111975431">
        <ele>1484.8900000000001</ele>
        <time>2014-02-23T14:38:54Z</time>
      </trkpt>
      <trkpt lat="45.882345680147409" lon="7.934505175799131">
        <ele>1482.49</ele>
        <time>2014-02-23T14:39:06Z</time>
      </trkpt>
      <trkpt lat="45.882205367088318" lon="7.934700474143028">
        <ele>1481.05</ele>
        <time>2014-02-23T14:39:20Z</time>
      </trkpt>
      <trkpt lat="45.882110735401511" lon="7.934847325086594">
        <ele>1479.1300000000001</ele>
        <time>2014-02-23T14:39:33Z</time>
      </trkpt>
      <trkpt lat="45.882006967440248" lon="7.935067182406783">
        <ele>1476.24</ele>
        <time>2014-02-23T14:39:48Z</time>
      </trkpt>
      <trkpt lat="45.88191719725728" lon="7.935285530984402">
        <ele>1473.8399999999999</ele>
        <time>2014-02-23T14:40:02Z</time>
      </trkpt>
      <trkpt lat="45.881855338811874" lon="7.935375217348337">
        <ele>1471.9200000000001</ele>
        <time>2014-02-23T14:40:08Z</time>
      </trkpt>
      <trkpt lat="45.881806053221226" lon="7.935413606464863">
        <ele>1471.4400000000001</ele>
        <time>2014-02-23T14:40:12Z</time>
      </trkpt>
      <trkpt lat="45.881715947762132" lon="7.93544864282012">
        <ele>1469.99</ele>
        <time>2014-02-23T14:40:19Z</time>
      </trkpt>
      <trkpt lat="45.881535150110722" lon="7.935526091605425">
        <ele>1467.1099999999999</ele>
        <time>2014-02-23T14:40:34Z</time>
      </trkpt>
      <trkpt lat="45.881396429613233" lon="7.935558194294572">
        <ele>1464.71</ele>
        <time>2014-02-23T14:40:45Z</time>
      </trkpt>
      <trkpt lat="45.881177578121424" lon="7.935633128508925">
        <ele>1461.3399999999999</ele>
        <time>2014-02-23T14:41:01Z</time>
      </trkpt>
      <trkpt lat="45.88099560700357" lon="7.93572474271059">
        <ele>1458.46</ele>
        <time>2014-02-23T14:41:16Z</time>
      </trkpt>
      <trkpt lat="45.880803745239973" lon="7.935861954465509">
        <ele>1455.5699999999999</ele>
        <time>2014-02-23T14:41:31Z</time>
      </trkpt>
      <trkpt lat="45.880648344755173" lon="7.93596706353128">
        <ele>1453.1700000000001</ele>
        <time>2014-02-23T14:41:45Z</time>
      </trkpt>
      <trkpt lat="45.88051138445735" lon="7.935951892286539">
        <ele>1450.77</ele>
        <time>2014-02-23T14:41:59Z</time>
      </trkpt>
      <trkpt lat="45.880362102761865" lon="7.935903947800398">
        <ele>1450.77</ele>
        <time>2014-02-23T14:42:13Z</time>
      </trkpt>
      <trkpt lat="45.880235703662038" lon="7.935859691351652">
        <ele>1447.4000000000001</ele>
        <time>2014-02-23T14:42:22Z</time>
      </trkpt>
      <trkpt lat="45.880143921822309" lon="7.935702363029122">
        <ele>1445.48</ele>
        <time>2014-02-23T14:42:34Z</time>
      </trkpt>
      <trkpt lat="45.880289431661367" lon="7.935472112149">
        <ele>1442.1099999999999</ele>
        <time>2014-02-23T14:42:51Z</time>
      </trkpt>
      <trkpt lat="45.880477018654346" lon="7.935320483520627">
        <ele>1440.1900000000001</ele>
        <time>2014-02-23T14:43:07Z</time>
      </trkpt>
      <trkpt lat="45.880471654236317" lon="7.93518134392798">
        <ele>1438.27</ele>
        <time>2014-02-23T14:43:15Z</time>
      </trkpt>
      <trkpt lat="45.880300495773554" lon="7.935041533783078">
        <ele>1435.3900000000001</ele>
        <time>2014-02-23T14:43:30Z</time>
      </trkpt>
      <trkpt lat="45.880168648436666" lon="7.935005407780409">
        <ele>1433.9400000000001</ele>
        <time>2014-02-23T14:43:40Z</time>
      </trkpt>
      <trkpt lat="45.879967734217644" lon="7.934954613447189">
        <ele>1431.0599999999999</ele>
        <time>2014-02-23T14:43:56Z</time>
      </trkpt>
      <trkpt lat="45.879747625440359" lon="7.934913877397776">
        <ele>1428.1800000000001</ele>
        <time>2014-02-23T14:44:12Z</time>
      </trkpt>
      <trkpt lat="45.879523828625679" lon="7.934863502159715">
        <ele>1424.3299999999999</ele>
        <time>2014-02-23T14:44:28Z</time>
      </trkpt>
      <trkpt lat="45.879313945770264" lon="7.934822766110301">
        <ele>1421.9300000000001</ele>
        <time>2014-02-23T14:44:43Z</time>
      </trkpt>
      <trkpt lat="45.879115797579288" lon="7.934785801917315">
        <ele>1419.04</ele>
        <time>2014-02-23T14:44:58Z</time>
      </trkpt>
      <trkpt lat="45.878898790106177" lon="7.934788819402456">
        <ele>1416.1600000000001</ele>
        <time>2014-02-23T14:45:14Z</time>
      </trkpt>
      <trkpt lat="45.878730649128556" lon="7.93477239087224">
        <ele>1413.76</ele>
        <time>2014-02-23T14:45:27Z</time>
      </trkpt>
      <trkpt lat="45.878558987751603" lon="7.934668706730008">
        <ele>1413.28</ele>
        <time>2014-02-23T14:45:42Z</time>
      </trkpt>
      <trkpt lat="45.878375507891178" lon="7.93464926071465">
        <ele>1411.3499999999999</ele>
        <time>2014-02-23T14:45:56Z</time>
      </trkpt>
      <trkpt lat="45.878269895911217" lon="7.934722350910306">
        <ele>1409.9100000000001</ele>
        <time>2014-02-23T14:46:05Z</time>
      </trkpt>
      <trkpt lat="45.87807510048151" lon="7.934921504929662">
        <ele>1407.51</ele>
        <time>2014-02-23T14:46:23Z</time>
      </trkpt>
      <trkpt lat="45.877873934805393" lon="7.934981267899275">
        <ele>1406.55</ele>
        <time>2014-02-23T14:46:39Z</time>
      </trkpt>
      <trkpt lat="45.877641839906573" lon="7.93494438752532">
        <ele>1404.1400000000001</ele>
        <time>2014-02-23T14:46:56Z</time>
      </trkpt>
      <trkpt lat="45.877409158274531" lon="7.934963498264551">
        <ele>1401.26</ele>
        <time>2014-02-23T14:47:13Z</time>
      </trkpt>
      <trkpt lat="45.877188546583056" lon="7.934973975643516">
        <ele>1398.8599999999999</ele>
        <time>2014-02-23T14:47:30Z</time>
      </trkpt>
      <trkpt lat="45.876971120014787" lon="7.935007587075234">
        <ele>1396.45</ele>
        <time>2014-02-23T14:47:46Z</time>
      </trkpt>
      <trkpt lat="45.876853102818131" lon="7.935023847967386">
        <ele>1395.01</ele>
        <time>2014-02-23T14:47:55Z</time>
      </trkpt>
      <trkpt lat="45.876614470034838" lon="7.935065506026149">
        <ele>1392.6099999999999</ele>
        <time>2014-02-23T14:48:12Z</time>
      </trkpt>
      <trkpt lat="45.876414980739355" lon="7.935085874050856">
        <ele>1390.2</ele>
        <time>2014-02-23T14:48:27Z</time>
      </trkpt>
      <trkpt lat="45.876210043206811" lon="7.935174973681569">
        <ele>1387.8</ele>
        <time>2014-02-23T14:48:43Z</time>
      </trkpt>
      <trkpt lat="45.875980462878942" lon="7.935323836281896">
        <ele>1384.9200000000001</ele>
        <time>2014-02-23T14:49:01Z</time>
      </trkpt>
      <trkpt lat="45.875749625265598" lon="7.935408996418119">
        <ele>1381.55</ele>
        <time>2014-02-23T14:49:17Z</time>
      </trkpt>
      <trkpt lat="45.875569833442569" lon="7.935478985309601">
        <ele>1378.1900000000001</ele>
        <time>2014-02-23T14:49:31Z</time>
      </trkpt>
      <trkpt lat="45.875489702448249" lon="7.935489127412438">
        <ele>1376.75</ele>
        <time>2014-02-23T14:49:37Z</time>
      </trkpt>
      <trkpt lat="45.875444440171123" lon="7.935522822663188">
        <ele>1375.78</ele>
        <time>2014-02-23T14:49:41Z</time>
      </trkpt>
      <trkpt lat="45.875228857621551" lon="7.935622315853834">
        <ele>1372.4200000000001</ele>
        <time>2014-02-23T14:49:58Z</time>
      </trkpt>
      <trkpt lat="45.875213351100683" lon="7.935625920072198">
        <ele>1372.4200000000001</ele>
        <time>2014-02-23T14:49:59Z</time>
      </trkpt>
      <trkpt lat="45.875002462416887" lon="7.9356724396348">
        <ele>1368.5699999999999</ele>
        <time>2014-02-23T14:50:15Z</time>
      </trkpt>
      <trkpt lat="45.874822754412889" lon="7.935719545930624">
        <ele>1365.6900000000001</ele>
        <time>2014-02-23T14:50:28Z</time>
      </trkpt>
      <trkpt lat="45.874639023095369" lon="7.935743099078536">
        <ele>1362.3299999999999</ele>
        <time>2014-02-23T14:50:41Z</time>
      </trkpt>
      <trkpt lat="45.874436683952808" lon="7.935775788500905">
        <ele>1358.96</ele>
        <time>2014-02-23T14:50:55Z</time>
      </trkpt>
      <trkpt lat="45.874234596267343" lon="7.935857176780701">
        <ele>1356.0799999999999</ele>
        <time>2014-02-23T14:51:09Z</time>
      </trkpt>
      <trkpt lat="45.874043991789222" lon="7.935935128480196">
        <ele>1353.1900000000001</ele>
        <time>2014-02-23T14:51:22Z</time>
      </trkpt>
      <trkpt lat="45.873845089226961" lon="7.936081476509571">
        <ele>1350.3099999999999</ele>
        <time>2014-02-23T14:51:38Z</time>
      </trkpt>
      <trkpt lat="45.87374878115952" lon="7.936141155660152">
        <ele>1348.8699999999999</ele>
        <time>2014-02-23T14:51:45Z</time>
      </trkpt>
      <trkpt lat="45.873717600479722" lon="7.936120619997382">
        <ele>1347.9100000000001</ele>
        <time>2014-02-23T14:51:48Z</time>
      </trkpt>
      <trkpt lat="45.873691281303763" lon="7.936037136241794">
        <ele>1348.3900000000001</ele>
        <time>2014-02-23T14:52:00Z</time>
      </trkpt>
      <trkpt lat="45.873665967956185" lon="7.9360022675246">
        <ele>1348.3900000000001</ele>
        <time>2014-02-23T14:52:29Z</time>
      </trkpt>
      <trkpt lat="45.873680720105767" lon="7.936031017452478">
        <ele>1347.9100000000001</ele>
        <time>2014-02-23T14:52:43Z</time>
      </trkpt>
      <trkpt lat="45.873727658763528" lon="7.936156746000052">
        <ele>1347.9100000000001</ele>
        <time>2014-02-23T14:52:52Z</time>
      </trkpt>
      <trkpt lat="45.873620957136154" lon="7.93624073266983">
        <ele>1346.9400000000001</ele>
        <time>2014-02-23T14:53:01Z</time>
      </trkpt>
      <trkpt lat="45.873384419828653" lon="7.936285072937608">
        <ele>1344.54</ele>
        <time>2014-02-23T14:53:18Z</time>
      </trkpt>
      <trkpt lat="45.873141596093774" lon="7.936347769573331">
        <ele>1342.1400000000001</ele>
        <time>2014-02-23T14:53:36Z</time>
      </trkpt>
      <trkpt lat="45.872930372133851" lon="7.936388505622745">
        <ele>1340.7</ele>
        <time>2014-02-23T14:53:52Z</time>
      </trkpt>
      <trkpt lat="45.872708251699805" lon="7.9364581592381">
        <ele>1339.73</ele>
        <time>2014-02-23T14:54:09Z</time>
      </trkpt>
      <trkpt lat="45.872555617243052" lon="7.936547929421067">
        <ele>1338.77</ele>
        <time>2014-02-23T14:54:23Z</time>
      </trkpt>
      <trkpt lat="45.872369036078453" lon="7.936661504209042">
        <ele>1337.3299999999999</ele>
        <time>2014-02-23T14:54:38Z</time>
      </trkpt>
      <trkpt lat="45.872162170708179" lon="7.93682562187314">
        <ele>1335.4100000000001</ele>
        <time>2014-02-23T14:54:56Z</time>
      </trkpt>
      <trkpt lat="45.871940469369292" lon="7.936994768679142">
        <ele>1332.04</ele>
        <time>2014-02-23T14:55:14Z</time>
      </trkpt>
      <trkpt lat="45.871714744716883" lon="7.937172297388315">
        <ele>1329.6400000000001</ele>
        <time>2014-02-23T14:55:32Z</time>
      </trkpt>
      <trkpt lat="45.871490109711885" lon="7.937287967652082">
        <ele>1327.72</ele>
        <time>2014-02-23T14:55:49Z</time>
      </trkpt>
      <trkpt lat="45.871248124167323" lon="7.937286961823702">
        <ele>1326.28</ele>
        <time>2014-02-23T14:56:06Z</time>
      </trkpt>
      <trkpt lat="45.871033212170005" lon="7.93728930875659">
        <ele>1325.3099999999999</ele>
        <time>2014-02-23T14:56:22Z</time>
      </trkpt>
      <trkpt lat="45.870818216353655" lon="7.937334403395653">
        <ele>1323.8699999999999</ele>
        <time>2014-02-23T14:56:39Z</time>
      </trkpt>
      <trkpt lat="45.870613027364016" lon="7.937391567975283">
        <ele>1322.4300000000001</ele>
        <time>2014-02-23T14:56:55Z</time>
      </trkpt>
      <trkpt lat="45.870451256632805" lon="7.937426269054413">
        <ele>1319.55</ele>
        <time>2014-02-23T14:57:06Z</time>
      </trkpt>
      <trkpt lat="45.870284037664533" lon="7.937476979568601">
        <ele>1317.1400000000001</ele>
        <time>2014-02-23T14:57:18Z</time>
      </trkpt>
      <trkpt lat="45.870101731270552" lon="7.937536993995309">
        <ele>1313.78</ele>
        <time>2014-02-23T14:57:32Z</time>
      </trkpt>
      <trkpt lat="45.869890255853534" lon="7.937560547143221">
        <ele>1310.4100000000001</ele>
        <time>2014-02-23T14:57:48Z</time>
      </trkpt>
      <trkpt lat="45.869688922539353" lon="7.937542023137212">
        <ele>1308.01</ele>
        <time>2014-02-23T14:58:03Z</time>
      </trkpt>
      <trkpt lat="45.869543747976422" lon="7.937497263774276">
        <ele>1306.5699999999999</ele>
        <time>2014-02-23T14:58:15Z</time>
      </trkpt>
      <trkpt lat="45.869492702186108" lon="7.937463987618685">
        <ele>1306.0899999999999</ele>
        <time>2014-02-23T14:58:20Z</time>
      </trkpt>
      <trkpt lat="45.869292123243213" lon="7.937378156930208">
        <ele>1303.6900000000001</ele>
        <time>2014-02-23T14:58:36Z</time>
      </trkpt>
      <trkpt lat="45.869121551513672" lon="7.93728293851018">
        <ele>1301.76</ele>
        <time>2014-02-23T14:58:51Z</time>
      </trkpt>
      <trkpt lat="45.868941927328706" lon="7.937236418947578">
        <ele>1300.8</ele>
        <time>2014-02-23T14:59:08Z</time>
      </trkpt>
      <trkpt lat="45.868831956759095" lon="7.937196018174291">
        <ele>1300.3199999999999</ele>
        <time>2014-02-23T14:59:20Z</time>
      </trkpt>
      <trkpt lat="45.868851821869612" lon="7.937228288501501">
        <ele>1299.8399999999999</ele>
        <time>2014-02-23T14:59:34Z</time>
      </trkpt>
      <trkpt lat="45.868846541270614" lon="7.93724874034524">
        <ele>1299.8399999999999</ele>
        <time>2014-02-23T14:59:45Z</time>
      </trkpt>
      <trkpt lat="45.868697091937065" lon="7.937380587682128">
        <ele>1298.4000000000001</ele>
        <time>2014-02-23T15:00:00Z</time>
      </trkpt>
      <trkpt lat="45.868494417518377" lon="7.937583513557911">
        <ele>1295.99</ele>
        <time>2014-02-23T15:00:17Z</time>
      </trkpt>
      <trkpt lat="45.868297191336751" lon="7.937728855758905">
        <ele>1294.55</ele>
        <time>2014-02-23T15:00:33Z</time>
      </trkpt>
      <trkpt lat="45.86808362044394" lon="7.937869923189282">
        <ele>1292.6300000000001</ele>
        <time>2014-02-23T15:00:50Z</time>
      </trkpt>
      <trkpt lat="45.867875330150127" lon="7.937907222658396">
        <ele>1290.23</ele>
        <time>2014-02-23T15:01:06Z</time>
      </trkpt>
      <trkpt lat="45.867639714851975" lon="7.93781066313386">
        <ele>1289.27</ele>
        <time>2014-02-23T15:01:23Z</time>
      </trkpt>
      <trkpt lat="45.867455564439297" lon="7.937593990936875">
        <ele>1287.8199999999999</ele>
        <time>2014-02-23T15:01:40Z</time>
      </trkpt>
      <trkpt lat="45.867319274693727" lon="7.937434818595648">
        <ele>1284.9400000000001</ele>
        <time>2014-02-23T15:01:52Z</time>
      </trkpt>
      <trkpt lat="45.867146858945489" lon="7.937221163883805">
        <ele>1282.0599999999999</ele>
        <time>2014-02-23T15:02:09Z</time>
      </trkpt>
      <trkpt lat="45.867013167589903" lon="7.93703961186111">
        <ele>1280.6099999999999</ele>
        <time>2014-02-23T15:02:23Z</time>
      </trkpt>
      <trkpt lat="45.866859024390578" lon="7.936918493360281">
        <ele>1279.1700000000001</ele>
        <time>2014-02-23T15:02:36Z</time>
      </trkpt>
      <trkpt lat="45.866604298353195" lon="7.936772732064128">
        <ele>1277.25</ele>
        <time>2014-02-23T15:02:55Z</time>
      </trkpt>
      <trkpt lat="45.866583762690425" lon="7.936758399009705">
        <ele>1276.77</ele>
        <time>2014-02-23T15:02:57Z</time>
      </trkpt>
      <trkpt lat="45.866362731903791" lon="7.936698719859123">
        <ele>1275.3299999999999</ele>
        <time>2014-02-23T15:03:13Z</time>
      </trkpt>
      <trkpt lat="45.866203727200627" lon="7.936664689332247">
        <ele>1274.3599999999999</ele>
        <time>2014-02-23T15:03:25Z</time>
      </trkpt>
      <trkpt lat="45.866152513772249" lon="7.93662722222507">
        <ele>1273.8800000000001</ele>
        <time>2014-02-23T15:03:30Z</time>
      </trkpt>
      <trkpt lat="45.865982444956899" lon="7.936682878062129">
        <ele>1273.4000000000001</ele>
        <time>2014-02-23T15:03:44Z</time>
      </trkpt>
      <trkpt lat="45.865971883758903" lon="7.936689164489508">
        <ele>1272.9200000000001</ele>
        <time>2014-02-23T15:03:45Z</time>
      </trkpt>
      <trkpt lat="45.865900302305818" lon="7.936726296320558">
        <ele>1272.9200000000001</ele>
        <time>2014-02-23T15:03:51Z</time>
      </trkpt>
      <trkpt lat="45.865702237933874" lon="7.936659408733249">
        <ele>1272.4400000000001</ele>
        <time>2014-02-23T15:04:06Z</time>
      </trkpt>
      <trkpt lat="45.865493612363935" lon="7.936563268303871">
        <ele>1271.48</ele>
        <time>2014-02-23T15:04:22Z</time>
      </trkpt>
      <trkpt lat="45.865324130281806" lon="7.936492022126913">
        <ele>1270.52</ele>
        <time>2014-02-23T15:04:35Z</time>
      </trkpt>
      <trkpt lat="45.865114498883486" lon="7.936417004093528">
        <ele>1269.0799999999999</ele>
        <time>2014-02-23T15:04:51Z</time>
      </trkpt>
      <trkpt lat="45.864908220246434" lon="7.936317007988691">
        <ele>1267.6400000000001</ele>
        <time>2014-02-23T15:05:08Z</time>
      </trkpt>
      <trkpt lat="45.864867568016052" lon="7.936258753761649">
        <ele>1267.6400000000001</ele>
        <time>2014-02-23T15:05:17Z</time>
      </trkpt>
      <trkpt lat="45.864830603823066" lon="7.936287336051464">
        <ele>1268.1199999999999</ele>
        <time>2014-02-23T15:05:20Z</time>
      </trkpt>
      <trkpt lat="45.864829514175653" lon="7.936332179233432">
        <ele>1268.1199999999999</ele>
        <time>2014-02-23T15:05:24Z</time>
      </trkpt>
      <trkpt lat="45.864852564409375" lon="7.936373166739941">
        <ele>1268.1199999999999</ele>
        <time>2014-02-23T15:05:38Z</time>
      </trkpt>
      <trkpt lat="45.864865388721228" lon="7.936394372954965">
        <ele>1268.1199999999999</ele>
        <time>2014-02-23T15:05:40Z</time>
      </trkpt>
      <trkpt lat="45.864865807816386" lon="7.936406275257468">
        <ele>1267.6400000000001</ele>
        <time>2014-02-23T15:05:41Z</time>
      </trkpt>
      <trkpt lat="45.864868825301528" lon="7.936486909165978">
        <ele>1268.5999999999999</ele>
        <time>2014-02-23T15:05:54Z</time>
      </trkpt>
      <trkpt lat="45.864866562187672" lon="7.936482466757298">
        <ele>1267.1600000000001</ele>
        <time>2014-02-23T15:05:57Z</time>
      </trkpt>
      <trkpt lat="45.864843847230077" lon="7.936432426795363">
        <ele>1267.1600000000001</ele>
        <time>2014-02-23T15:06:20Z</time>
      </trkpt>
      <trkpt lat="45.864861365407705" lon="7.936484897509217">
        <ele>1267.1600000000001</ele>
        <time>2014-02-23T15:06:52Z</time>
      </trkpt>
      <trkpt lat="45.864860359579325" lon="7.936498895287514">
        <ele>1267.1600000000001</ele>
        <time>2014-02-23T15:07:21Z</time>
      </trkpt>
      <trkpt lat="45.864834878593683" lon="7.936476934701204">
        <ele>1267.1600000000001</ele>
        <time>2014-02-23T15:07:52Z</time>
      </trkpt>
      <trkpt lat="45.864835968241096" lon="7.936481377109885">
        <ele>1267.1600000000001</ele>
        <time>2014-02-23T15:08:21Z</time>
      </trkpt>
      <trkpt lat="45.864864718168974" lon="7.936472240835428">
        <ele>1267.1600000000001</ele>
        <time>2014-02-23T15:08:49Z</time>
      </trkpt>
      <trkpt lat="45.864854827523232" lon="7.936465116217732">
        <ele>1268.1199999999999</ele>
        <time>2014-02-23T15:09:04Z</time>
      </trkpt>
    </trkseg>
  </trk>

</gpx>